OPT374 / N374FX 7700 Squawk Report (13th of December, 2018)

Time Lat Lon Altitude Heading Speed Vertical Rate
2018-12-14 06:31:25 GMT 34.200558 -118.358986 0 244 0
2018-12-14 06:31:00 GMT 34.200554 -118.358994 0 244 0
2018-12-14 06:30:50 GMT 34.200558 -118.358986 0 244 0
2018-12-14 06:30:40 GMT 34.200554 -118.358994 0 244 0
2018-12-14 06:30:19 GMT 34.200558 -118.358971 0 244 0
2018-12-14 06:30:04 GMT 34.200558 -118.358986 0 244 0
2018-12-14 06:29:59 GMT 34.200554 -118.358994 0 244 0
2018-12-14 06:29:44 GMT 34.200558 -118.358971 0 244 0
2018-12-14 06:29:34 GMT 34.200554 -118.358994 0 244 0
2018-12-14 06:29:24 GMT 34.200558 -118.358971 0 244 0
2018-12-14 06:29:14 GMT 34.200558 -118.358986 0 244 0
2018-12-14 06:28:54 GMT 34.200554 -118.358994 0 244 0
2018-12-14 06:28:43 GMT 34.200558 -118.358971 0 244 0
2018-12-14 06:28:28 GMT 34.200554 -118.358994 0 244 0
2018-12-14 06:28:08 GMT 34.200558 -118.358986 0 244 0
2018-12-14 06:28:03 GMT 34.200554 -118.358994 0 244 0
2018-12-14 06:27:53 GMT 34.200558 -118.358971 0 244 0
2018-12-14 06:27:43 GMT 34.200554 -118.358978 0 244 0
2018-12-14 06:27:33 GMT 34.200558 -118.358971 0 244 0
2018-12-14 06:27:23 GMT 34.200554 -118.358994 0 244 0
2018-12-14 06:27:08 GMT 34.200554 -118.358978 0 244 0
2018-12-14 06:27:03 GMT 34.200558 -118.358986 0 244 0
2018-12-14 06:26:38 GMT 34.200554 -118.358994 0 244 0
2018-12-14 06:26:28 GMT 34.200554 -118.358978 0 244 0
2018-12-14 06:26:18 GMT 34.200558 -118.358971 0 244 0
2018-12-14 06:26:08 GMT 34.200554 -118.358978 0 244 0
2018-12-14 06:25:58 GMT 34.200558 -118.358971 0 244 0
2018-12-14 06:25:48 GMT 34.200554 -118.358978 0 244 0
2018-12-14 06:25:38 GMT 34.200558 -118.358971 0 244 0
2018-12-14 06:25:23 GMT 34.200554 -118.358978 0 244 0
2018-12-14 06:25:13 GMT 34.200558 -118.358971 0 244 0
2018-12-14 06:25:03 GMT 34.200554 -118.358978 0 244 0
2018-12-14 06:24:28 GMT 34.200558 -118.358971 0 244 0
2018-12-14 06:24:18 GMT 34.200554 -118.358978 0 244 0
2018-12-14 06:24:03 GMT 34.200558 -118.358971 0 244 0
2018-12-14 06:23:58 GMT 34.200554 -118.358978 0 244 0
2018-12-14 06:23:43 GMT 34.200558 -118.358971 0 244 0
2018-12-14 06:23:33 GMT 34.200554 -118.358978 0 244 0
2018-12-14 06:23:23 GMT 34.200558 -118.358971 0 244 0
2018-12-14 06:23:08 GMT 34.200554 -118.358978 0 244 0
2018-12-14 06:22:08 GMT 34.200558 -118.358971 0 244 0
2018-12-14 06:21:38 GMT 34.200554 -118.358978 0 244 0
2018-12-14 06:21:13 GMT 34.200558 -118.358971 0 244 0
2018-12-14 06:20:43 GMT 34.200554 -118.358978 0 244 0
2018-12-14 06:20:33 GMT 34.200558 -118.358971 0 244 0
2018-12-14 06:20:18 GMT 34.200554 -118.358994 0 244 0
2018-12-14 06:20:08 GMT 34.200565 -118.358978 0 244 0
2018-12-14 06:19:58 GMT 34.200558 -118.358986 0 244 0
2018-12-14 06:19:48 GMT 34.200565 -118.358994 0 244 0
2018-12-14 06:19:38 GMT 34.200558 -118.358986 0 244 0
2018-12-14 06:19:08 GMT 34.200565 -118.358994 0 244 0
2018-12-14 06:18:58 GMT 34.200565 -118.358978 0 244 0
2018-12-14 06:18:48 GMT 34.200554 -118.358978 0 244 0
2018-12-14 06:18:34 GMT 34.200558 -118.358971 0 244 0
2018-12-14 06:18:13 GMT 34.200554 -118.358978 0 244 0
2018-12-14 06:17:43 GMT 34.200565 -118.358963 0 244 0
2018-12-14 06:17:33 GMT 34.200565 -118.358971 0 244 0
2018-12-14 06:17:23 GMT 34.200558 -118.358971 0 244 0
2018-12-14 06:17:13 GMT 34.200554 -118.358963 0 244 0
2018-12-14 06:17:02 GMT 34.200554 -118.358948 0 244 4
We lost coverage of the aircraft here for a total of 26 minutes
2018-12-14 05:51:02 GMT 34.200554 -118.358978 0 244 0
2018-12-14 05:50:47 GMT 34.200558 -118.358971 0 244 0
2018-12-14 05:50:27 GMT 34.200554 -118.358978 0 244 0
2018-12-14 05:50:17 GMT 34.200558 -118.358986 0 244 0
2018-12-14 05:49:48 GMT 34.200554 -118.358978 0 244 0
2018-12-14 05:49:13 GMT 34.200558 -118.358971 0 244 0
2018-12-14 05:49:03 GMT 34.200554 -118.358978 0 244 0
2018-12-14 05:48:53 GMT 34.200558 -118.358971 0 244 0
2018-12-14 05:48:43 GMT 34.200554 -118.358963 0 244 0
2018-12-14 05:48:28 GMT 34.200558 -118.358971 0 244 0
2018-12-14 05:47:42 GMT 34.200554 -118.358963 0 244 0
2018-12-14 05:47:32 GMT 34.200558 -118.358971 0 244 0
2018-12-14 05:47:12 GMT 34.200554 -118.358963 0 244 0
2018-12-14 05:46:56 GMT 34.200554 -118.358978 0 244 0
2018-12-14 05:46:51 GMT 34.200554 -118.358963 0 244 0
2018-12-14 05:46:36 GMT 34.200558 -118.358971 0 244 0
2018-12-14 05:46:06 GMT 34.200554 -118.358978 0 244 0
2018-12-14 05:45:56 GMT 34.200558 -118.358971 0 244 0
2018-12-14 05:45:46 GMT 34.200554 -118.358994 0 244 0
2018-12-14 05:45:36 GMT 34.200554 -118.358978 0 244 0
2018-12-14 05:45:26 GMT 34.200558 -118.358971 0 244 0
2018-12-14 05:45:16 GMT 34.200542 -118.358971 0 244 0
2018-12-14 05:44:31 GMT 34.200554 -118.358978 0 244 0
2018-12-14 05:43:16 GMT 34.200558 -118.358971 0 244 0
2018-12-14 05:43:06 GMT 34.200558 -118.358986 0 244 0
2018-12-14 05:42:51 GMT 34.200558 -118.358971 0 244 0
2018-12-14 05:42:36 GMT 34.200554 -118.358978 0 244 0
2018-12-14 05:42:10 GMT 34.200554 -118.358994 0 244 0
2018-12-14 05:42:00 GMT 34.200554 -118.358978 0 244 0
2018-12-14 05:40:50 GMT 34.200558 -118.358971 0 244 0
2018-12-14 05:40:35 GMT 34.200554 -118.358978 0 244 0
2018-12-14 05:40:30 GMT 34.200558 -118.358986 0 244 0
2018-12-14 05:39:56 GMT 34.200558 -118.358971 0 244 0
2018-12-14 05:39:40 GMT 34.200554 -118.358978 0 244 0
2018-12-14 05:39:05 GMT 34.200558 -118.358971 0 244 0
2018-12-14 05:38:50 GMT 34.200554 -118.358963 0 244 0
2018-12-14 05:38:40 GMT 34.200558 -118.358971 0 244 0
2018-12-14 05:38:35 GMT 34.200554 -118.358978 0 244 0
2018-12-14 05:38:11 GMT 34.200558 -118.358971 0 244 0
2018-12-14 05:37:51 GMT 34.200565 -118.358978 0 244 0
2018-12-14 05:37:41 GMT 34.200554 -118.358994 0 244 0
2018-12-14 05:37:31 GMT 34.200565 -118.358971 0 244 0
2018-12-14 05:37:21 GMT 34.200565 -118.358978 0 244 0
2018-12-14 05:36:36 GMT 34.200565 -118.358963 0 244 0
2018-12-14 05:36:20 GMT 34.200565 -118.358978 0 244 0
2018-12-14 05:36:16 GMT 34.200565 -118.358971 0 244 0
2018-12-14 05:36:07 GMT 34.200565 -118.358978 0 244 0
2018-12-14 05:35:56 GMT 34.200542 -118.358971 0 244 0
2018-12-14 05:35:44 GMT 34.200520 -118.358932 0 244 0
2018-12-14 05:35:35 GMT 34.200520 -118.358879 0 244 4
We lost coverage of the aircraft here for a total of 22 minutes
2018-12-14 05:13:33 GMT 34.200558 -118.358971 0 244 0
2018-12-14 05:13:18 GMT 34.200554 -118.358994 0 244 0
2018-12-14 05:12:58 GMT 34.200554 -118.358978 0 244 0
2018-12-14 05:12:53 GMT 34.200558 -118.358986 0 244 0
2018-12-14 05:12:43 GMT 34.200554 -118.358994 0 244 0
2018-12-14 05:12:28 GMT 34.200558 -118.358986 0 244 0
2018-12-14 05:12:18 GMT 34.200554 -118.358994 0 244 0
2018-12-14 05:12:08 GMT 34.200558 -118.358986 0 244 0
2018-12-14 05:11:13 GMT 34.200554 -118.358994 0 244 0
2018-12-14 05:10:58 GMT 34.200558 -118.358986 0 244 0
2018-12-14 05:10:43 GMT 34.200554 -118.358994 0 244 0
2018-12-14 05:10:28 GMT 34.200565 -118.358986 0 244 0
2018-12-14 05:10:23 GMT 34.200565 -118.358994 0 244 0
2018-12-14 05:09:52 GMT 34.200565 -118.358971 0 244 0
2018-12-14 05:09:41 GMT 34.200558 -118.358986 0 244 0
2018-12-14 05:09:30 GMT 34.200565 -118.358986 0 244 0
We lost coverage of the aircraft here for a total of 24 minutes
2018-12-14 04:45:01 GMT 34.200558 -118.358971 0 244 0
2018-12-14 04:44:15 GMT 34.200554 -118.358978 0 244 0
2018-12-14 04:44:06 GMT 34.200558 -118.358971 0 244 0
2018-12-14 04:43:55 GMT 34.200554 -118.358978 0 244 0
2018-12-14 04:43:45 GMT 34.200558 -118.358971 0 244 0
2018-12-14 04:42:51 GMT 34.200554 -118.358978 0 244 0
2018-12-14 04:42:36 GMT 34.200558 -118.358971 0 244 0
2018-12-14 04:42:26 GMT 34.200565 -118.358963 0 244 0
2018-12-14 04:42:15 GMT 34.200554 -118.358963 0 244 0
2018-12-14 04:42:00 GMT 34.200531 -118.358963 0 244 0
2018-12-14 04:41:50 GMT 34.200535 -118.358971 0 244 0
2018-12-14 04:41:30 GMT 34.200554 -118.358978 0 244 0
2018-12-14 04:41:12 GMT 34.200565 -118.358986 0 244 0
2018-12-14 04:41:01 GMT 34.200542 -118.358971 0 244 0
We lost coverage of the aircraft here for a total of 24 minutes
2018-12-14 04:17:30 GMT 34.200542 -118.358971 0 244 0
2018-12-14 04:16:50 GMT 34.200554 -118.358978 0 244 0
2018-12-14 04:16:40 GMT 34.200558 -118.358971 0 244 0
2018-12-14 04:16:30 GMT 34.200554 -118.358978 0 244 0
2018-12-14 04:16:00 GMT 34.200558 -118.358971 0 244 0
2018-12-14 04:15:11 GMT 34.200554 -118.358978 0 244 0
2018-12-14 04:14:55 GMT 34.200558 -118.358971 0 244 0
2018-12-14 04:14:25 GMT 34.200554 -118.358978 0 244 0
2018-12-14 04:14:15 GMT 34.200558 -118.358971 0 244 0
2018-12-14 04:14:05 GMT 34.200554 -118.358978 0 244 0
2018-12-14 04:13:41 GMT 34.200558 -118.358971 0 244 0
2018-12-14 04:13:36 GMT 34.200554 -118.358978 0 244 0
2018-12-14 04:13:11 GMT 34.200558 -118.358971 0 244 0
2018-12-14 04:13:01 GMT 34.200554 -118.358978 0 244 0
2018-12-14 04:12:26 GMT 34.200558 -118.358971 0 244 0
2018-12-14 04:12:21 GMT 34.200554 -118.358978 0 244 0
2018-12-14 04:12:11 GMT 34.200558 -118.358971 0 244 0
2018-12-14 04:12:01 GMT 34.200554 -118.358978 0 244 0
2018-12-14 04:11:46 GMT 34.200558 -118.358971 0 244 0
2018-12-14 04:11:26 GMT 34.200554 -118.358978 0 244 0
2018-12-14 04:11:16 GMT 34.200558 -118.358971 0 244 0
2018-12-14 04:11:06 GMT 34.200542 -118.358971 0 244 0
2018-12-14 04:10:51 GMT 34.200558 -118.358971 0 244 0
2018-12-14 04:10:46 GMT 34.200542 -118.358971 0 244 0
2018-12-14 04:10:11 GMT 34.200542 -118.358978 0 244 0
2018-12-14 04:10:01 GMT 34.200542 -118.358971 0 244 0
2018-12-14 04:09:51 GMT 34.200542 -118.358978 0 244 0
2018-12-14 04:09:41 GMT 34.200542 -118.358994 0 244 0
2018-12-14 04:09:16 GMT 34.200542 -118.358978 0 244 0
2018-12-14 04:09:00 GMT 34.200542 -118.358971 0 244 0
2018-12-14 04:08:50 GMT 34.200542 -118.358986 0 244 0
2018-12-14 04:08:45 GMT 34.200554 -118.358994 0 244 0
2018-12-14 04:08:35 GMT 34.200542 -118.358994 0 244 0
2018-12-14 04:08:15 GMT 34.200542 -118.358978 0 244 0
2018-12-14 04:08:05 GMT 34.200542 -118.358986 0 244 0
2018-12-14 04:07:55 GMT 34.200542 -118.358994 0 244 0
2018-12-14 04:07:21 GMT 34.200542 -118.358978 0 244 0
2018-12-14 04:07:10 GMT 34.200542 -118.358971 0 244 0
2018-12-14 04:06:50 GMT 34.200542 -118.358978 0 244 0
2018-12-14 04:06:25 GMT 34.200558 -118.358971 0 244 0
2018-12-14 04:06:15 GMT 34.200554 -118.358978 0 244 0
2018-12-14 04:06:05 GMT 34.200558 -118.358971 0 244 0
2018-12-14 04:05:45 GMT 34.200554 -118.358978 0 244 0
2018-12-14 04:05:00 GMT 34.200558 -118.358971 0 244 0
2018-12-14 04:04:40 GMT 34.200554 -118.358978 0 244 0
2018-12-14 04:04:20 GMT 34.200542 -118.358971 0 244 0
2018-12-14 04:03:56 GMT 34.200554 -118.358978 0 244 0
2018-12-14 04:03:11 GMT 34.200558 -118.358971 0 244 0
2018-12-14 04:02:51 GMT 34.200554 -118.358978 0 244 0
2018-12-14 04:02:36 GMT 34.200542 -118.358971 0 244 0
2018-12-14 04:02:26 GMT 34.200554 -118.358978 0 244 0
2018-12-14 04:02:15 GMT 34.200558 -118.358971 0 244 0
2018-12-14 04:02:05 GMT 34.200554 -118.358978 0 244 0
2018-12-14 04:01:50 GMT 34.200542 -118.358978 0 244 0
2018-12-14 04:01:40 GMT 34.200542 -118.358986 0 244 0
2018-12-14 04:01:30 GMT 34.200554 -118.358994 0 244 0
2018-12-14 04:01:25 GMT 34.200542 -118.358971 0 244 0
2018-12-14 04:01:15 GMT 34.200554 -118.358978 0 244 0
2018-12-14 04:01:05 GMT 34.200542 -118.358978 0 244 0
2018-12-14 04:00:49 GMT 34.200558 -118.358971 0 244 0
2018-12-14 04:00:39 GMT 34.200542 -118.358971 0 244 0
2018-12-14 04:00:29 GMT 34.200558 -118.358971 0 244 0
2018-12-14 04:00:19 GMT 34.200554 -118.358978 0 244 0
2018-12-14 03:59:49 GMT 34.200558 -118.358971 0 244 0
2018-12-14 03:59:39 GMT 34.200554 -118.358978 0 244 0
2018-12-14 03:59:14 GMT 34.200558 -118.358971 0 244 0
2018-12-14 03:59:04 GMT 34.200554 -118.358994 0 244 0
2018-12-14 03:58:39 GMT 34.200558 -118.358986 0 244 0
2018-12-14 03:58:34 GMT 34.200558 -118.358971 0 244 0
2018-12-14 03:58:14 GMT 34.200542 -118.358971 0 244 0
2018-12-14 03:58:04 GMT 34.200554 -118.358978 0 244 0
2018-12-14 03:57:39 GMT 34.200542 -118.358971 0 244 0
2018-12-14 03:57:29 GMT 34.200542 -118.358978 0 244 0
2018-12-14 03:57:14 GMT 34.200542 -118.358971 0 244 0
2018-12-14 03:56:49 GMT 34.200554 -118.358978 0 244 0
2018-12-14 03:56:24 GMT 34.200558 -118.358971 0 244 0
2018-12-14 03:55:53 GMT 34.200554 -118.358978 0 244 0
2018-12-14 03:55:34 GMT 34.200558 -118.358971 0 244 0
2018-12-14 03:54:59 GMT 34.200554 -118.358978 0 244 0
2018-12-14 03:54:48 GMT 34.200554 -118.358994 0 244 0
2018-12-14 03:54:38 GMT 34.200542 -118.358971 0 244 0
2018-12-14 03:54:29 GMT 34.200558 -118.358971 0 244 0
2018-12-14 03:54:18 GMT 34.200554 -118.358978 0 244 0
2018-12-14 03:54:09 GMT 34.200558 -118.358986 0 244 0
2018-12-14 03:53:59 GMT 34.200542 -118.358978 0 244 0
2018-12-14 03:53:33 GMT 34.200554 -118.358978 0 244 0
2018-12-14 03:53:13 GMT 34.200542 -118.358978 0 244 0
2018-12-14 03:53:03 GMT 34.200542 -118.358971 0 244 0
2018-12-14 03:52:33 GMT 34.200542 -118.358978 0 244 0
2018-12-14 03:52:19 GMT 34.200542 -118.358963 0 244 0
2018-12-14 03:52:09 GMT 34.200554 -118.358978 0 244 0
2018-12-14 03:51:59 GMT 34.200554 -118.358963 0 244 0
2018-12-14 03:51:49 GMT 34.200542 -118.358971 0 244 0
2018-12-14 03:51:39 GMT 34.200542 -118.358963 0 244 0
2018-12-14 03:51:29 GMT 34.200542 -118.358978 0 244 0
2018-12-14 03:51:19 GMT 34.200554 -118.358963 0 244 0
2018-12-14 03:51:09 GMT 34.200554 -118.358978 0 244 0
2018-12-14 03:50:54 GMT 34.200554 -118.358963 0 244 0
2018-12-14 03:50:48 GMT 34.200558 -118.358971 0 244 0
2018-12-14 03:50:37 GMT 34.200554 -118.358963 0 244 0
2018-12-14 03:50:26 GMT 34.200542 -118.358986 0 244 0
2018-12-14 03:50:16 GMT 34.200668 -118.359016 0 244 0
2018-12-14 03:50:05 GMT 34.200714 -118.358994 0 247 4
We lost coverage of the aircraft here for a total of 71 minutes
2018-12-14 02:39:18 GMT 34.200542 -118.358963 0 244 0 0
2018-12-14 02:39:03 GMT 34.200542 -118.358971 0 244 0 0
2018-12-14 02:38:58 GMT 34.200542 -118.358978 0 244 0 0
2018-12-14 02:38:23 GMT 34.200542 -118.358971 0 244 0 0
2018-12-14 02:38:08 GMT 34.200554 -118.358978 0 244 0 0
2018-12-14 02:37:38 GMT 34.200542 -118.358971 0 244 0 0
2018-12-14 02:37:03 GMT 34.200558 -118.358971 0 244 0 0
2018-12-14 02:36:29 GMT 34.200554 -118.358978 0 244 0 0
2018-12-14 02:36:19 GMT 34.200558 -118.358971 0 244 0 0
2018-12-14 02:36:13 GMT 34.200554 -118.358978 0 244 0 0
2018-12-14 02:35:59 GMT 34.200542 -118.358971 0 244 0 0
2018-12-14 02:35:53 GMT 34.200554 -118.358978 0 244 0 0
2018-12-14 02:35:38 GMT 34.200542 -118.358978 0 244 0 0
2018-12-14 02:35:28 GMT 34.200554 -118.358978 0 244 0 0
2018-12-14 02:35:18 GMT 34.200542 -118.358971 0 244 0 0
2018-12-14 02:35:08 GMT 34.200554 -118.358978 0 244 0 0
2018-12-14 02:34:58 GMT 34.200542 -118.358978 0 244 0 0
2018-12-14 02:34:28 GMT 34.200542 -118.358971 0 244 0 0
2018-12-14 02:33:57 GMT 34.200554 -118.358978 0 244 0 0
2018-12-14 02:33:07 GMT 34.200542 -118.358971 0 244 0 0
2018-12-14 02:32:57 GMT 34.200554 -118.358978 0 244 0 0
2018-12-14 02:32:43 GMT 34.200542 -118.358971 0 247 0 0
2018-12-14 02:32:36 GMT 34.200542 -118.358948 0 241 2 0
2018-12-14 02:32:25 GMT 34.200600 -118.358864 0 149 4 0
2018-12-14 02:32:14 GMT 34.200680 -118.359077 0 39 8 0
2018-12-14 02:32:00 GMT 34.200127 -118.359230 0 329 11 0
2018-12-14 02:31:53 GMT 34.199844 -118.359047 0 298 11 0
2018-12-14 02:31:43 GMT 34.199600 -118.358505 0 284 11 0
2018-12-14 02:31:30 GMT 34.199219 -118.357986 0 331 11 0
2018-12-14 02:31:26 GMT 34.198868 -118.357590 0 261 15 0
2018-12-14 02:31:23 GMT 34.198929 -118.357826 0 261 15 0
2018-12-14 02:31:19 GMT 34.198868 -118.357590 0 261 15 0
2018-12-14 02:31:16 GMT 34.198849 -118.356667 0 258 18 0
2018-12-14 02:31:11 GMT 34.198849 -118.356766 0 258 18 0
2018-12-14 02:31:00 GMT 34.198833 -118.355568 0 258 26 0
2018-12-14 02:30:57 GMT 34.198822 -118.354401 0 258 18 0
2018-12-14 02:30:49 GMT 34.198814 -118.354210 0 258 16 0
2018-12-14 02:30:46 GMT 34.198811 -118.353638 0 258 13 0
2018-12-14 02:30:39 GMT 34.198799 -118.353470 0 258 12 0
2018-12-14 02:30:28 GMT 34.198780 -118.352837 0 258 9 0
2018-12-14 02:30:22 GMT 34.198647 -118.352364 0 303 7 0
2018-12-14 02:30:17 GMT 34.198677 -118.352394 0 298 7 0
2018-12-14 02:30:11 GMT 34.198425 -118.352219 0 345 8 0
2018-12-14 02:30:06 GMT 34.198437 -118.352226 0 343 8 0
2018-12-14 02:29:56 GMT 34.198078 -118.352364 0 30 12 0
2018-12-14 02:29:53 GMT 34.197773 -118.352768 0 50 13 0
2018-12-14 02:29:43 GMT 34.197716 -118.353188 0 78 19 0
2018-12-14 02:29:31 GMT 34.197727 -118.354897 0 75 48 0
2018-12-14 02:29:24 GMT 34.197762 -118.357285 0 78 80 0
2018-12-14 02:29:13 GMT 34.197830 -118.363220 450 91 108 -256
2018-12-14 02:29:02 GMT 34.197926 -118.370193 550 90 120 -768
2018-12-14 02:28:52 GMT 34.198067 -118.376770 675 90 123 -512
2018-12-14 02:28:42 GMT 34.198059 -118.383965 750 90 122 -576
2018-12-14 02:28:31 GMT 34.198158 -118.391357 950 90 121 -832
2018-12-14 02:28:23 GMT 34.198196 -118.396523 975 90 121 -832
2018-12-14 02:28:20 GMT 34.198196 -118.398315 1,000 90 122 -896
2018-12-14 02:28:12 GMT 34.198250 -118.404861 1,175 89 125 -768
2018-12-14 02:28:09 GMT 34.198250 -118.405891 1,175 89 124 -640
2018-12-14 02:27:59 GMT 34.198250 -118.413391 1,275 91 125 -128
2018-12-14 02:27:48 GMT 34.198425 -118.420563 1,275 89 118 -576
2018-12-14 02:27:41 GMT 34.198391 -118.424950 1,350 90 116 -832
2018-12-14 02:27:37 GMT 34.198391 -118.427635 1,400 90 116 -832
2018-12-14 02:27:30 GMT 34.198483 -118.432449 1,500 92 125 -576
2018-12-14 02:27:27 GMT 34.198563 -118.434578 1,525 92 125 -512
2018-12-14 02:27:16 GMT 34.198700 -118.442314 1,675 91 134 -1536
2018-12-14 02:27:05 GMT 34.198811 -118.450645 1,900 90 137 -1344
2018-12-14 02:26:57 GMT 34.198792 -118.457840 2,125 90 140 -832
2018-12-14 02:26:54 GMT 34.198792 -118.459412 2,150 91 140 -576
2018-12-14 02:26:49 GMT 34.198929 -118.463898 2,200 93 144 384
2018-12-14 02:26:43 GMT 34.199089 -118.467522 2,175 92 144 384
2018-12-14 02:26:37 GMT 34.199295 -118.472412 2,125 92 142 64
2018-12-14 02:26:32 GMT 34.199387 -118.476227 2,125 91 141 -896
2018-12-14 02:26:28 GMT 34.199478 -118.480652 2,200 91 143 -1920
2018-12-14 02:26:25 GMT 34.199554 -118.483253 2,325 91 141 -1984
2018-12-14 02:26:22 GMT 34.199570 -118.484856 2,375 91 140 -1920
2018-12-14 02:26:17 GMT 34.199696 -118.491783 2,550 91 136 -1536
2018-12-14 02:26:14 GMT 34.199696 -118.491783 2,650 91 131 -1024
2018-12-14 02:26:11 GMT 34.199696 -118.493156 2,675 91 129 -768
2018-12-14 02:26:07 GMT 34.199753 -118.495621 2,750 90 127 -256
2018-12-14 02:26:03 GMT 34.199787 -118.499275 2,750 90 129 64
2018-12-14 02:25:58 GMT 34.199799 -118.502853 2,750 90 130 64
2018-12-14 02:25:52 GMT 34.199787 -118.507057 2,750 90 131 128
2018-12-14 02:25:48 GMT 34.199799 -118.509239 2,750 90 131 128
2018-12-14 02:25:45 GMT 34.199787 -118.511871 2,750 90 130 64
2018-12-14 02:25:41 GMT 34.199799 -118.514732 2,725 90 130 -128
2018-12-14 02:25:35 GMT 34.199890 -118.519501 2,750 92 128 -640
2018-12-14 02:25:30 GMT 34.199982 -118.522804 2,800 91 130 -960
2018-12-14 02:25:24 GMT 34.200066 -118.527031 2,900 91 134 -1472
2018-12-14 02:25:20 GMT 34.200165 -118.530540 3,000 91 135 -1344
2018-12-14 02:25:14 GMT 34.200256 -118.535027 3,150 90 137 -1344
2018-12-14 02:25:08 GMT 34.200298 -118.538704 3,250 90 138 -1344
2018-12-14 02:25:02 GMT 34.200298 -118.543396 3,375 90 130 -576
2018-12-14 02:24:57 GMT 34.200348 -118.546768 3,425 90 127 -256
2018-12-14 02:24:51 GMT 34.200394 -118.551178 3,425 90 125 0
2018-12-14 02:24:47 GMT 34.200394 -118.553696 3,425 90 125 -128
2018-12-14 02:24:42 GMT 34.200439 -118.558159 3,450 91 133 -128
2018-12-14 02:24:37 GMT 34.200531 -118.561874 3,450 92 142 -128
2018-12-14 02:24:31 GMT 34.200577 -118.566078 3,475 90 154 -64
2018-12-14 02:24:26 GMT 34.200626 -118.571152 3,475 90 164 192
2018-12-14 02:24:21 GMT 34.200668 -118.575943 3,450 91 171 192
2018-12-14 02:24:15 GMT 34.200714 -118.580986 3,450 90 172 128
2018-12-14 02:24:09 GMT 34.200718 -118.586716 3,425 89 172 128
2018-12-14 02:24:04 GMT 34.200672 -118.591637 3,425 89 175 256
2018-12-14 02:23:58 GMT 34.200623 -118.597466 3,400 89 184 64
2018-12-14 02:23:52 GMT 34.200672 -118.603935 3,425 93 190 -1472
2018-12-14 02:23:47 GMT 34.201046 -118.608566 3,500 102 189 -1856
2018-12-14 02:23:44 GMT 34.201950 -118.613167 3,725 110 187 -704
2018-12-14 02:23:39 GMT 34.203140 -118.617096 3,725 111 187 -512
2018-12-14 02:23:36 GMT 34.204163 -118.620010 3,750 113 189 -256
2018-12-14 02:23:32 GMT 34.205559 -118.623848 3,750 113 192 -320
2018-12-14 02:23:27 GMT 34.207306 -118.628578 3,800 113 196 -704
2018-12-14 02:23:21 GMT 34.209377 -118.634209 3,875 113 201 -1024
2018-12-14 02:23:14 GMT 34.212357 -118.642220 4,000 113 203 -1152
2018-12-14 02:23:11 GMT 34.213943 -118.646515 4,100 113 205 -1152
2018-12-14 02:23:05 GMT 34.215660 -118.651199 4,175 113 205 -1152
2018-12-14 02:23:00 GMT 34.217896 -118.657265 4,325 113 207 -1152
2018-12-14 02:22:55 GMT 34.219574 -118.661873 4,375 113 208 -1152
2018-12-14 02:22:50 GMT 34.221771 -118.667870 4,525 113 210 -1216
2018-12-14 02:22:47 GMT 34.222599 -118.670082 4,525 114 211 -1216
2018-12-14 02:22:44 GMT 34.223740 -118.673141 4,575 113 212 -1216
2018-12-14 02:22:40 GMT 34.225948 -118.679123 4,775 114 215 -1216
2018-12-14 02:22:37 GMT 34.227161 -118.682442 4,775 114 215 -1216
2018-12-14 02:22:33 GMT 34.228138 -118.685074 4,800 114 215 -1216
2018-12-14 02:22:29 GMT 34.230515 -118.691467 5,125 113 217 -1216
2018-12-14 02:22:25 GMT 34.232162 -118.695953 5,000 113 218 -1216
2018-12-14 02:22:22 GMT 34.232559 -118.697090 5,025 113 218 -1280
2018-12-14 02:22:18 GMT 34.234268 -118.701782 5,450 114 217 -1920
2018-12-14 02:22:15 GMT 34.236286 -118.707214 5,200 114 221 -1536
2018-12-14 02:22:11 GMT 34.237152 -118.709518 5,250 113 222 -1792
2018-12-14 02:22:08 GMT 34.239120 -118.714844 5,400 114 220 -1984
2018-12-14 02:22:04 GMT 34.240585 -118.718880 5,500 113 217 -1856
2018-12-14 02:22:01 GMT 34.244011 -118.728165 5,675 114 214 -1088
2018-12-14 02:21:56 GMT 34.244011 -118.728165 5,725 113 214 -640
2018-12-14 02:21:51 GMT 34.245575 -118.732330 5,750 112 205 64
2018-12-14 02:21:46 GMT 34.248062 -118.738976 5,750 113 209 -64
2018-12-14 02:21:43 GMT 34.248856 -118.741150 5,750 114 211 64
2018-12-14 02:21:40 GMT 34.249878 -118.743881 5,750 114 211 64
2018-12-14 02:21:33 GMT 34.253181 -118.752708 5,750 114 209 -64
2018-12-14 02:21:29 GMT 34.254253 -118.755630 5,750 113 209 -64
2018-12-14 02:21:24 GMT 34.256535 -118.761864 5,750 113 206 0
2018-12-14 02:21:21 GMT 34.257935 -118.765739 5,750 113 205 64
2018-12-14 02:21:18 GMT 34.258724 -118.767929 5,750 112 205 64
2018-12-14 02:21:14 GMT 34.260632 -118.773308 5,750 112 204 64
2018-12-14 02:21:11 GMT 34.261368 -118.775436 5,750 112 204 0
2018-12-14 02:21:08 GMT 34.262192 -118.777962 5,750 112 204 0
2018-12-14 02:21:01 GMT 34.265331 -118.786812 5,750 117 203 0
2018-12-14 02:20:57 GMT 34.266499 -118.789391 5,750 119 204 -64
2018-12-14 02:20:52 GMT 34.269150 -118.794327 5,750 126 204 0
2018-12-14 02:20:49 GMT 34.271347 -118.797913 5,750 126 204 0
2018-12-14 02:20:46 GMT 34.272457 -118.799683 5,750 126 205 0
2018-12-14 02:20:39 GMT 34.276833 -118.806786 5,750 126 206 0
2018-12-14 02:20:36 GMT 34.278397 -118.809349 5,750 126 207 0
2018-12-14 02:20:31 GMT 34.281300 -118.814163 5,750 125 208 0
2018-12-14 02:20:28 GMT 34.283302 -118.817482 5,750 124 209 0
2018-12-14 02:20:19 GMT 34.287552 -118.824875 5,750 145 215 0
2018-12-14 02:20:16 GMT 34.289978 -118.829300 5,750 122 211 64
2018-12-14 02:20:10 GMT 34.294334 -118.837112 5,750 145 215 0
2018-12-14 02:20:04 GMT 34.295963 -118.839516 5,750 131 214 0
2018-12-14 02:19:59 GMT 34.302853 -118.846207 5,750 149 217 0
2018-12-14 02:19:56 GMT 34.302853 -118.846207 5,750 148 217 0
2018-12-14 02:19:48 GMT 34.309296 -118.850655 5,750 150 220 0
2018-12-14 02:19:43 GMT 34.314148 -118.853912 5,750 152 224 -64
2018-12-14 02:19:38 GMT 34.318909 -118.856934 5,750 152 228 -256
2018-12-14 02:19:35 GMT 34.324677 -118.860466 5,775 152 235 -512
2018-12-14 02:19:27 GMT 34.333069 -118.866631 5,900 144 244 -896
2018-12-14 02:19:23 GMT 34.333069 -118.866631 5,850 144 244 -896
2018-12-14 02:19:16 GMT 34.338978 -118.872353 6,000 136 251 -1664
2018-12-14 02:19:13 GMT 34.341492 -118.875275 6,050 132 251 -1984
2018-12-14 02:19:06 GMT 34.347565 -118.884125 6,325 130 252 -1984
2018-12-14 02:19:03 GMT 34.349266 -118.887115 6,400 122 253 -1984
2018-12-14 02:18:57 GMT 34.352325 -118.893593 6,575 113 256 -1984
2018-12-14 02:18:54 GMT 34.353924 -118.897705 6,675 104 259 -1984
2018-12-14 02:18:51 GMT 34.355038 -118.901024 6,775 109 257 -1984
2018-12-14 02:18:45 GMT 34.357407 -118.911079 7,025 99 259 -2048
2018-12-14 02:18:41 GMT 34.358047 -118.915962 7,125 96 260 -2048
2018-12-14 02:18:34 GMT 34.358780 -118.927788 7,400 93 262 -2048
2018-12-14 02:18:30 GMT 34.358997 -118.932838 7,525 93 262 -2048
2018-12-14 02:18:22 GMT 34.359467 -118.943031 7,750 93 264 -2048
2018-12-14 02:18:19 GMT 34.359650 -118.947464 7,850 93 264 -1984
2018-12-14 02:18:15 GMT 34.359974 -118.955093 8,025 93 266 -1984
2018-12-14 02:18:11 GMT 34.360153 -118.958839 8,100 93 266 -1984
2018-12-14 02:18:08 GMT 34.360336 -118.963326 8,200 92 268 -2048
2018-12-14 02:18:02 GMT 34.360859 -118.974319 8,500 93 269 -2048
2018-12-14 02:17:59 GMT 34.361069 -118.979240 8,550 93 270 -1792
2018-12-14 02:17:51 GMT 34.361557 -118.990234 8,725 93 275 0
2018-12-14 02:17:48 GMT 34.361801 -118.995834 8,750 93 275 -64
2018-12-14 02:17:44 GMT 34.361984 -118.999481 8,750 93 275 -64
2018-12-14 02:17:41 GMT 34.362301 -119.006477 8,750 93 275 -64
2018-12-14 02:17:37 GMT 34.362991 -119.021729 8,750 93 275 0
2018-12-14 02:17:30 GMT 34.362991 -119.021729 8,750 93 275 0
2018-12-14 02:17:27 GMT 34.363312 -119.028679 8,750 93 275 0
2018-12-14 02:17:19 GMT 34.363747 -119.039330 8,750 92 275 64
2018-12-14 02:17:16 GMT 34.363976 -119.044533 8,750 92 275 0
2018-12-14 02:17:09 GMT 34.364456 -119.055702 8,750 92 275 -64
2018-12-14 02:17:05 GMT 34.365189 -119.072739 8,750 92 274 -128
2018-12-14 02:16:58 GMT 34.365189 -119.072739 8,775 92 274 -64
2018-12-14 02:16:53 GMT 34.365421 -119.078178 8,775 92 274 -64
2018-12-14 02:16:46 GMT 34.365921 -119.089439 8,775 92 274 0
2018-12-14 02:16:43 GMT 34.366119 -119.094086 8,775 92 274 0
2018-12-14 02:16:37 GMT 34.366562 -119.104408 8,775 92 273 64
2018-12-14 02:16:33 GMT 34.366791 -119.110352 8,775 92 273 0
2018-12-14 02:16:25 GMT 34.367249 -119.121223 8,775 92 273 0
2018-12-14 02:16:22 GMT 34.367477 -119.126549 8,775 92 273 0
2018-12-14 02:16:14 GMT 34.367981 -119.138603 8,775 92 273 0
2018-12-14 02:16:11 GMT 34.368355 -119.147591 8,775 92 273 0
2018-12-14 02:16:05 GMT 34.368587 -119.153419 8,775 92 273 0
2018-12-14 02:16:01 GMT 34.368805 -119.159569 8,775 92 273 0
2018-12-14 02:15:53 GMT 34.369240 -119.170815 8,775 92 273 0
2018-12-14 02:15:49 GMT 34.369446 -119.177277 8,775 92 273 0
2018-12-14 02:15:43 GMT 34.369797 -119.185928 8,775 92 273 0
2018-12-14 02:15:38 GMT 34.370041 -119.193756 8,775 92 273 0
2018-12-14 02:15:31 GMT 34.370449 -119.204468 8,775 92 272 0
2018-12-14 02:15:27 GMT 34.370636 -119.209732 8,775 92 272 0
2018-12-14 02:15:21 GMT 34.371048 -119.220551 8,775 93 272 0
2018-12-14 02:15:18 GMT 34.371231 -119.224976 8,775 93 272 -64
2018-12-14 02:15:12 GMT 34.371754 -119.232445 8,775 103 270 128
2018-12-14 02:15:09 GMT 34.372356 -119.236961 8,800 100 271 -64
2018-12-14 02:15:06 GMT 34.373241 -119.242172 8,800 102 271 64
2018-12-14 02:14:59 GMT 34.374985 -119.251266 8,775 104 271 128
2018-12-14 02:14:55 GMT 34.376541 -119.257660 8,775 110 271 64
2018-12-14 02:14:50 GMT 34.379944 -119.265976 8,775 126 272 64
2018-12-14 02:14:44 GMT 34.383453 -119.271446 8,775 135 273 64
2018-12-14 02:14:38 GMT 34.389721 -119.277596 8,775 149 275 -128
2018-12-14 02:14:35 GMT 34.395073 -119.280853 8,775 159 276 -64
2018-12-14 02:14:27 GMT 34.403183 -119.284172 8,775 162 279 -64
2018-12-14 02:14:23 GMT 34.408573 -119.286232 8,775 162 281 -64
2018-12-14 02:14:17 GMT 34.416302 -119.289268 9,275 162 275 -2048
2018-12-14 02:14:13 GMT 34.421188 -119.291153 8,775 162 281 0
2018-12-14 02:14:07 GMT 34.428406 -119.293976 8,800 162 278 -64
2018-12-14 02:14:01 GMT 34.434677 -119.296387 8,800 162 276 -192
2018-12-14 02:13:55 GMT 34.442780 -119.299583 8,825 161 271 -576
2018-12-14 02:13:52 GMT 34.447632 -119.301453 8,850 162 270 -704
2018-12-14 02:13:45 GMT 34.460175 -119.306313 9,150 162 273 -2048
2018-12-14 02:13:41 GMT 34.460175 -119.306313 9,000 162 271 -1600
2018-12-14 02:13:33 GMT 34.470257 -119.310150 9,200 162 274 -2048
2018-12-14 02:13:30 GMT 34.473888 -119.311523 9,375 162 275 -2048
2018-12-14 02:13:23 GMT 34.480545 -119.313988 9,725 163 275 -1856
2018-12-14 02:13:19 GMT 34.486038 -119.315948 9,675 163 276 -1024
2018-12-14 02:13:13 GMT 34.493408 -119.318695 9,775 163 279 64
2018-12-14 02:13:08 GMT 34.500328 -119.321198 9,775 163 279 64
2018-12-14 02:13:02 GMT 34.506382 -119.323364 9,775 164 279 -192
2018-12-14 02:12:58 GMT 34.513271 -119.325661 9,775 164 279 -320
2018-12-14 02:12:50 GMT 34.522488 -119.328629 9,750 165 278 448
2018-12-14 02:12:46 GMT 34.526489 -119.329887 9,800 165 278 512
2018-12-14 02:12:40 GMT 34.534149 -119.332428 9,750 163 280 576
2018-12-14 02:12:37 GMT 34.539059 -119.334244 9,700 162 283 384
2018-12-14 02:12:30 GMT 34.547161 -119.337273 9,675 162 288 -448
2018-12-14 02:12:25 GMT 34.555023 -119.340332 9,700 161 293 -576
2018-12-14 02:12:18 GMT 34.562382 -119.343338 9,775 160 308 -3648
2018-12-14 02:12:14 GMT 34.566898 -119.345222 9,850 160 306 -2624
2018-12-14 02:12:08 GMT 34.575851 -119.348969 10,175 161 306 -4480
2018-12-14 02:12:05 GMT 34.581657 -119.351349 10,500 161 301 -4736
2018-12-14 02:11:57 GMT 34.591015 -119.355064 11,050 162 296 -3648
2018-12-14 02:11:54 GMT 34.595482 -119.356728 11,275 163 294 -3264
2018-12-14 02:11:46 GMT 34.604328 -119.359818 11,700 164 294 -2880
2018-12-14 02:11:43 GMT 34.608936 -119.361359 11,775 163 295 -2624
2018-12-14 02:11:38 GMT 34.616478 -119.364395 12,025 156 298 -1664
2018-12-14 02:11:33 GMT 34.623226 -119.367767 12,200 156 301 -1536
2018-12-14 02:11:26 GMT 34.630581 -119.371605 12,475 158 305 -1664
2018-12-14 02:11:22 GMT 34.637470 -119.374466 12,500 163 310 -1920
2018-12-14 02:11:15 GMT 34.645111 -119.376717 12,675 169 313 -3264
2018-12-14 02:11:10 GMT 34.652370 -119.377846 12,975 177 311 -5184
2018-12-14 02:11:05 GMT 34.660328 -119.377785 13,675 186 313 -5760
2018-12-14 02:11:02 GMT 34.665543 -119.377274 13,825 188 314 -5760
2018-12-14 02:10:59 GMT 34.668365 -119.376770 14,000 189 315 -5760
2018-12-14 02:10:54 GMT 34.676880 -119.375145 14,575 191 328 -5568
2018-12-14 02:10:50 GMT 34.683472 -119.373741 15,000 191 321 -5632
2018-12-14 02:10:44 GMT 34.691380 -119.372002 15,575 191 328 -5568
2018-12-14 02:10:41 GMT 34.695847 -119.371033 17,075 191 342 -6336
2018-12-14 02:10:36 GMT 34.704712 -119.369034 16,325 191 335 -5824
2018-12-14 02:10:32 GMT 34.711029 -119.367630 16,725 191 339 -6144
2018-12-14 02:10:28 GMT 34.715588 -119.366570 17,025 192 343 -6656
2018-12-14 02:10:23 GMT 34.725594 -119.364166 17,725 192 345 -7168
2018-12-14 02:10:20 GMT 34.729752 -119.363091 18,050 192 346 -7616
2018-12-14 02:10:12 GMT 34.740921 -119.360291 18,950 192 346 -7936
2018-12-14 02:10:07 GMT 34.750214 -119.358101 19,725 191 345 -7936
2018-12-14 02:10:02 GMT 34.758183 -119.356384 20,400 191 345 -7616
2018-12-14 02:09:59 GMT 34.762417 -119.355469 20,750 191 345 -7616
2018-12-14 02:09:55 GMT 34.766842 -119.354553 21,125 191 345 -7424
2018-12-14 02:09:51 GMT 34.775314 -119.352722 21,775 190 344 -7360
2018-12-14 02:09:46 GMT 34.782623 -119.351212 24,575 190 343 -7168
2018-12-14 02:09:40 GMT 34.791412 -119.349472 23,150 190 342 -7232
2018-12-14 02:09:37 GMT 34.795441 -119.348686 23,325 190 341 -7232
2018-12-14 02:09:34 GMT 34.800934 -119.347618 26,875 190 341 -7104
2018-12-14 02:09:30 GMT 34.812416 -119.345345 24,375 190 342 -6848
2018-12-14 02:09:27 GMT 34.812416 -119.345345 24,625 190 343 -6656
2018-12-14 02:09:21 GMT 34.819885 -119.343979 25,150 189 345 -6400
2018-12-14 02:09:18 GMT 34.827347 -119.342636 25,625 189 348 -6272
2018-12-14 02:09:15 GMT 34.829269 -119.342293 26,175 189 352 -6464
2018-12-14 02:09:12 GMT 34.835541 -119.341171 26,175 189 352 -6464
2018-12-14 02:09:06 GMT 34.845245 -119.339272 26,825 190 354 -6656
2018-12-14 02:09:03 GMT 34.850868 -119.338135 27,425 191 357 -6912
2018-12-14 02:08:58 GMT 34.859013 -119.336357 30,500 191 358 -7360
2018-12-14 02:08:55 GMT 34.863968 -119.335236 28,925 187 361 -7360
2018-12-14 02:08:52 GMT 34.867905 -119.334396 28,425 189 359 -7296
2018-12-14 02:08:46 GMT 34.877014 -119.332993 30,500 184 362 -7360
2018-12-14 02:08:42 GMT 34.885365 -119.332870 31,350 155 392 -5696
2018-12-14 02:08:36 GMT 34.894272 -119.334282 30,500 160 383 -5760
2018-12-14 02:08:33 GMT 34.900360 -119.336189 30,675 161 381 -5824
2018-12-14 02:08:30 GMT 34.904121 -119.337730 30,800 141 441 -3904
2018-12-14 02:08:26 GMT 34.912857 -119.342186 31,425 147 406 -5504
2018-12-14 02:08:23 GMT 34.917671 -119.345222 31,675 151 400 -5632
2018-12-14 02:08:19 GMT 34.921600 -119.348015 31,900 148 405 -5504
2018-12-14 02:08:15 GMT 34.929260 -119.354095 32,625 143 416 -5248
2018-12-14 02:08:10 GMT 34.937965 -119.361816 33,150 142 420 -5248
2018-12-14 02:08:03 GMT 34.946812 -119.370117 33,150 140 431 -5184
2018-12-14 02:07:59 GMT 34.954285 -119.377388 33,675 140 432 -5248
2018-12-14 02:07:53 GMT 34.962963 -119.385963 34,475 141 440 -3840
2018-12-14 02:07:49 GMT 34.970352 -119.393135 34,600 141 441 -4096
2018-12-14 02:07:46 GMT 34.974743 -119.397354 34,800 142 441 -3648
2018-12-14 02:07:43 GMT 34.980423 -119.402618 35,600 143 439 -2816
2018-12-14 02:07:40 GMT 34.984909 -119.406754 35,225 143 446 -4800
2018-12-14 02:07:37 GMT 34.997314 -119.418022 35,775 143 447 -2304
2018-12-14 02:07:32 GMT 34.997314 -119.418022 35,600 142 448 -2496
2018-12-14 02:07:28 GMT 35.003952 -119.424080 35,600 143 447 -2304
2018-12-14 02:07:25 GMT 35.009079 -119.428726 35,700 142 448 -2624
2018-12-14 02:07:21 GMT 35.015942 -119.435120 35,900 142 450 -3648
2018-12-14 02:07:17 GMT 35.023132 -119.441788 36,150 142 450 -4416
2018-12-14 02:07:14 GMT 35.026554 -119.444962 36,225 142 449 -4672
2018-12-14 02:07:09 GMT 35.034142 -119.451881 36,675 143 445 -4800
2018-12-14 02:07:06 GMT 35.041214 -119.458160 37,775 145 434 -3968
2018-12-14 02:06:59 GMT 35.051739 -119.467216 39,250 145 417 -3136
2018-12-14 02:06:56 GMT 35.056908 -119.471626 37,650 145 436 -3968
2018-12-14 02:06:53 GMT 35.061703 -119.475693 37,975 145 433 -3968
2018-12-14 02:06:48 GMT 35.071712 -119.484215 38,300 144 432 -3904
2018-12-14 02:06:44 GMT 35.078201 -119.489716 39,275 144 412 -2496
2018-12-14 02:06:36 GMT 35.090939 -119.500526 39,075 145 425 -4032
2018-12-14 02:06:32 GMT 35.095047 -119.504005 40,425 144 412 -2304
2018-12-14 02:06:27 GMT 35.103645 -119.511276 39,675 145 419 -3584
2018-12-14 02:06:24 GMT 35.107742 -119.514832 40,025 145 417 -3264
2018-12-14 02:06:21 GMT 35.114586 -119.520607 40,025 145 417 -3264
2018-12-14 02:06:17 GMT 35.120918 -119.525986 40,425 145 415 -3072
2018-12-14 02:06:14 GMT 35.124115 -119.528725 40,400 145 415 -3008
2018-12-14 02:06:11 GMT 35.130249 -119.533997 40,525 144 414 -2752
2018-12-14 02:06:06 GMT 35.138077 -119.540665 40,750 144 412 -1920
2018-12-14 02:06:03 GMT 35.141308 -119.543381 40,825 144 412 -1600
2018-12-14 02:05:59 GMT 35.147598 -119.548798 40,925 144 412 -960
2018-12-14 02:05:55 GMT 35.154007 -119.554230 41,000 144 410 -192
2018-12-14 02:05:52 GMT 35.158035 -119.557709 41,000 145 410 -64
2018-12-14 02:05:47 GMT 35.165497 -119.564041 41,000 145 410 0
2018-12-14 02:05:43 GMT 35.174267 -119.571533 41,000 145 410 0
2018-12-14 02:05:35 GMT 35.186325 -119.581810 41,000 144 409 0
2018-12-14 02:05:29 GMT 35.195866 -119.589958 41,000 144 409 0
2018-12-14 02:05:21 GMT 35.207062 -119.599579 41,000 144 409 0
2018-12-14 02:05:16 GMT 35.216537 -119.607704 41,000 144 409 0
2018-12-14 02:05:13 GMT 35.220566 -119.611122 41,000 144 409 0
2018-12-14 02:05:10 GMT 35.223099 -119.613304 41,000 144 409 0
2018-12-14 02:05:07 GMT 35.228870 -119.618225 41,000 144 409 0
2018-12-14 02:05:04 GMT 35.239288 -119.627213 41,000 144 408 0
2018-12-14 02:05:00 GMT 35.239288 -119.627213 41,000 144 409 0
2018-12-14 02:04:55 GMT 35.247208 -119.633965 41,000 144 409 0
2018-12-14 02:04:52 GMT 35.253174 -119.639069 41,000 144 409 0
2018-12-14 02:04:49 GMT 35.256500 -119.641975 41,000 144 409 0
2018-12-14 02:04:46 GMT 35.262543 -119.647118 41,000 144 409 0
2018-12-14 02:04:39 GMT 35.272816 -119.655960 41,000 144 409 0
2018-12-14 02:04:34 GMT 35.280590 -119.662621 41,000 144 409 0
2018-12-14 02:04:30 GMT 35.286530 -119.667725 41,000 144 409 0
2018-12-14 02:04:27 GMT 35.289642 -119.670410 41,000 144 408 0
2018-12-14 02:04:24 GMT 35.296600 -119.676361 41,000 144 409 0
2018-12-14 02:04:19 GMT 35.303879 -119.682655 41,000 144 408 0
2018-12-14 02:04:15 GMT 35.313171 -119.690613 41,000 144 408 0
2018-12-14 02:04:07 GMT 35.322487 -119.698677 41,000 144 408 0
2018-12-14 02:04:02 GMT 35.329330 -119.704521 41,000 144 408 0
2018-12-14 02:03:56 GMT 35.340225 -119.713898 41,000 144 408 0
2018-12-14 02:03:50 GMT 35.347858 -119.720413 41,000 144 408 0
2018-12-14 02:03:47 GMT 35.353725 -119.725494 41,000 144 408 0
2018-12-14 02:03:44 GMT 35.362793 -119.733238 41,000 144 408 0
2018-12-14 02:03:41 GMT 35.362793 -119.733238 41,000 144 408 64
2018-12-14 02:03:37 GMT 35.369751 -119.739243 41,000 144 408 0
2018-12-14 02:03:34 GMT 35.372955 -119.741997 41,000 144 408 -64
2018-12-14 02:03:31 GMT 35.376068 -119.744682 41,000 144 408 -64
2018-12-14 02:03:24 GMT 35.389984 -119.756638 41,000 144 408 0
2018-12-14 02:03:21 GMT 35.392914 -119.759155 41,000 144 408 0
2018-12-14 02:03:14 GMT 35.404770 -119.769402 41,000 144 407 0
2018-12-14 02:03:07 GMT 35.415081 -119.778267 41,000 144 407 0
2018-12-14 02:03:04 GMT 35.420761 -119.783173 41,000 144 407 0
2018-12-14 02:02:58 GMT 35.429699 -119.790894 41,000 144 407 0
2018-12-14 02:02:52 GMT 35.438637 -119.798546 41,000 144 407 0
2018-12-14 02:02:46 GMT 35.446289 -119.805161 41,000 144 407 0
2018-12-14 02:02:43 GMT 35.452370 -119.810410 41,000 144 407 -64
2018-12-14 02:02:40 GMT 35.462193 -119.818878 41,000 144 407 64
2018-12-14 02:02:36 GMT 35.462193 -119.818878 41,000 144 407 0
2018-12-14 02:02:32 GMT 35.469452 -119.825134 41,000 144 407 0
2018-12-14 02:02:29 GMT 35.471733 -119.827118 41,000 144 407 0
2018-12-14 02:02:25 GMT 35.480164 -119.834404 41,000 144 407 0
2018-12-14 02:02:21 GMT 35.486160 -119.839554 41,000 144 407 0
2018-12-14 02:02:18 GMT 35.491474 -119.844185 41,000 144 406 0
2018-12-14 02:02:15 GMT 35.495544 -119.847679 41,000 144 406 0
2018-12-14 02:02:10 GMT 35.501293 -119.852661 41,000 144 406 0
2018-12-14 02:02:07 GMT 35.507301 -119.857857 41,000 144 406 0
2018-12-14 02:02:04 GMT 35.512573 -119.862442 41,000 144 406 64
2018-12-14 02:01:58 GMT 35.520447 -119.869247 41,000 144 407 0
2018-12-14 02:01:53 GMT 35.528091 -119.875946 41,000 144 407 0
2018-12-14 02:01:48 GMT 35.537235 -119.883865 41,000 144 407 0
2018-12-14 02:01:45 GMT 35.541843 -119.887840 41,000 144 407 -64
2018-12-14 02:01:41 GMT 35.545624 -119.891106 41,000 144 407 0
2018-12-14 02:01:37 GMT 35.553665 -119.898125 41,000 144 406 0
2018-12-14 02:01:32 GMT 35.561874 -119.905243 41,000 144 406 0
2018-12-14 02:01:29 GMT 35.565819 -119.908646 41,000 144 406 0
2018-12-14 02:01:26 GMT 35.570663 -119.912849 41,000 144 406 0
2018-12-14 02:01:22 GMT 35.575779 -119.917290 41,000 144 406 0
2018-12-14 02:01:18 GMT 35.583252 -119.923668 41,000 144 406 0
2018-12-14 02:01:15 GMT 35.592724 -119.931839 41,000 145 406 0
2018-12-14 02:01:12 GMT 35.592724 -119.931839 41,000 145 405 0
2018-12-14 02:01:08 GMT 35.599274 -119.937401 41,000 145 406 0
2018-12-14 02:01:05 GMT 35.603165 -119.940659 41,000 145 406 0
2018-12-14 02:01:00 GMT 35.608566 -119.945236 41,000 145 405 0
2018-12-14 02:00:57 GMT 35.615067 -119.950676 41,000 145 406 0
2018-12-14 02:00:54 GMT 35.619213 -119.954109 41,000 145 405 0
2018-12-14 02:00:49 GMT 35.632095 -119.964981 41,000 145 405 0
2018-12-14 02:00:46 GMT 35.632095 -119.964981 41,000 143 407 0
2018-12-14 02:00:43 GMT 35.636215 -119.968758 41,000 142 408 64
2018-12-14 02:00:37 GMT 35.644955 -119.977425 41,000 135 412 0
2018-12-14 02:00:34 GMT 35.648354 -119.981102 41,000 137 411 0
2018-12-14 02:00:31 GMT 35.654800 -119.988609 41,000 134 413 0
2018-12-14 02:00:25 GMT 35.661434 -119.996880 41,000 134 413 0
2018-12-14 02:00:22 GMT 35.672234 -120.010498 41,000 134 414 -64
2018-12-14 02:00:17 GMT 35.672234 -120.010498 41,000 134 414 -64
2018-12-14 02:00:14 GMT 35.677402 -120.017105 41,000 134 414 0
2018-12-14 02:00:11 GMT 35.688126 -120.030670 41,000 134 414 0
2018-12-14 02:00:06 GMT 35.688126 -120.030670 41,000 134 413 0
2018-12-14 02:00:01 GMT 35.694580 -120.038841 41,000 134 414 0
2018-12-14 01:59:58 GMT 35.698025 -120.043228 41,000 134 414 0
2018-12-14 01:59:53 GMT 35.704960 -120.052048 41,000 134 413 0
2018-12-14 01:59:50 GMT 35.708965 -120.057076 41,000 134 414 0
2018-12-14 01:59:43 GMT 35.722870 -120.074730 41,000 134 413 0
2018-12-14 01:59:39 GMT 35.722870 -120.074730 41,000 134 414 0
2018-12-14 01:59:33 GMT 35.730881 -120.084862 41,000 134 414 0
2018-12-14 01:59:30 GMT 35.735779 -120.091095 41,000 134 414 0
2018-12-14 01:59:27 GMT 35.746254 -120.104347 41,000 134 414 0
2018-12-14 01:59:22 GMT 35.746254 -120.104347 41,000 134 414 64
2018-12-14 01:59:16 GMT 35.753128 -120.113068 41,000 134 414 0
2018-12-14 01:59:11 GMT 35.760864 -120.122849 41,000 134 414 64
2018-12-14 01:59:08 GMT 35.769066 -120.133217 41,000 134 414 0
2018-12-14 01:59:05 GMT 35.769066 -120.133217 41,000 134 414 0
2018-12-14 01:59:01 GMT 35.773361 -120.138763 41,000 134 414 0
2018-12-14 01:58:58 GMT 35.777939 -120.144485 41,000 134 414 0
2018-12-14 01:58:55 GMT 35.781372 -120.148888 41,000 134 414 0
2018-12-14 01:58:50 GMT 35.787506 -120.156670 41,000 134 414 0
2018-12-14 01:58:47 GMT 35.791672 -120.161880 41,000 134 414 0
2018-12-14 01:58:44 GMT 35.795929 -120.167313 41,000 134 414 0
2018-12-14 01:58:37 GMT 35.804909 -120.178741 41,000 133 415 64
2018-12-14 01:58:32 GMT 35.812592 -120.188538 41,000 133 415 -64
2018-12-14 01:58:29 GMT 35.817123 -120.194382 41,000 133 415 -64
2018-12-14 01:58:26 GMT 35.821156 -120.199547 41,000 133 415 0
2018-12-14 01:58:21 GMT 35.827103 -120.207138 41,000 133 415 0
2018-12-14 01:58:15 GMT 35.834381 -120.216522 41,000 133 415 0
2018-12-14 01:58:12 GMT 35.838379 -120.221748 41,000 133 415 64
2018-12-14 01:58:09 GMT 35.841686 -120.226074 41,000 133 415 64
2018-12-14 01:58:05 GMT 35.849461 -120.236244 41,000 133 415 0
2018-12-14 01:58:00 GMT 35.855419 -120.243958 41,000 134 415 0
2018-12-14 01:57:57 GMT 35.858955 -120.248283 41,000 135 415 0
2018-12-14 01:57:54 GMT 35.863239 -120.253426 41,000 136 415 0
2018-12-14 01:57:51 GMT 35.866928 -120.257668 41,000 137 414 -64
2018-12-14 01:57:46 GMT 35.874550 -120.266045 41,000 140 412 0
2018-12-14 01:57:43 GMT 35.879745 -120.271400 41,000 140 412 -64
2018-12-14 01:57:38 GMT 35.884918 -120.276604 41,000 140 412 0
2018-12-14 01:57:35 GMT 35.890472 -120.282120 41,000 140 412 0
2018-12-14 01:57:32 GMT 35.895035 -120.286736 41,000 140 412 -64
2018-12-14 01:57:29 GMT 35.898151 -120.289833 41,000 140 412 64
2018-12-14 01:57:25 GMT 35.905556 -120.297195 41,000 140 412 64
2018-12-14 01:57:22 GMT 35.910370 -120.302010 41,000 140 412 64
2018-12-14 01:57:17 GMT 35.916779 -120.308357 41,000 140 412 64
2018-12-14 01:57:13 GMT 35.923416 -120.315002 41,000 140 413 -64
2018-12-14 01:57:10 GMT 35.926598 -120.318176 41,000 140 413 0
2018-12-14 01:57:06 GMT 35.933212 -120.324783 41,000 140 413 0
2018-12-14 01:57:03 GMT 35.937584 -120.329163 41,000 140 413 -64
2018-12-14 01:57:00 GMT 35.944427 -120.335938 41,000 140 413 -64
2018-12-14 01:56:56 GMT 35.946579 -120.338120 41,000 140 413 0
2018-12-14 01:56:51 GMT 35.955048 -120.346527 41,000 140 412 0
2018-12-14 01:56:47 GMT 35.961788 -120.353241 41,000 140 410 0
2018-12-14 01:56:42 GMT 35.967773 -120.359230 41,000 140 410 64
2018-12-14 01:56:39 GMT 35.978668 -120.370102 41,000 140 408 64
2018-12-14 01:56:36 GMT 35.978668 -120.370102 41,000 140 407 64
2018-12-14 01:56:31 GMT 35.985298 -120.376732 41,000 140 406 256
2018-12-14 01:56:28 GMT 35.990067 -120.381493 40,975 140 405 384
2018-12-14 01:56:24 GMT 35.995354 -120.386780 40,950 140 404 704
2018-12-14 01:56:21 GMT 36.004623 -120.395966 40,900 140 404 960
2018-12-14 01:56:18 GMT 36.004623 -120.395966 40,875 141 405 960
2018-12-14 01:56:15 GMT 36.009109 -120.400490 40,850 140 404 1024
2018-12-14 01:56:12 GMT 36.011368 -120.402733 40,775 141 405 960
2018-12-14 01:56:08 GMT 36.019936 -120.411324 40,750 140 405 960
2018-12-14 01:56:05 GMT 36.023666 -120.415024 40,675 140 405 1024
2018-12-14 01:56:02 GMT 36.026497 -120.417870 40,650 140 405 960
2018-12-14 01:55:59 GMT 36.030315 -120.421669 40,600 140 405 1024
2018-12-14 01:55:56 GMT 36.035889 -120.427261 40,525 140 406 1024
2018-12-14 01:55:52 GMT 36.041611 -120.432930 40,475 140 406 1024
2018-12-14 01:55:49 GMT 36.045444 -120.436806 40,425 140 406 1024
2018-12-14 01:55:46 GMT 36.051544 -120.442886 40,375 140 406 1024
2018-12-14 01:55:43 GMT 36.055405 -120.446739 40,300 140 406 1024
2018-12-14 01:55:39 GMT 36.061691 -120.453049 40,250 140 407 1024
2018-12-14 01:55:36 GMT 36.069885 -120.461227 40,175 140 407 960
2018-12-14 01:55:33 GMT 36.069885 -120.461227 40,150 140 408 1024
2018-12-14 01:55:27 GMT 36.077053 -120.468422 40,075 140 408 1024
2018-12-14 01:55:24 GMT 36.082993 -120.474358 40,025 140 408 960
2018-12-14 01:55:18 GMT 36.091858 -120.483208 39,825 140 408 1024
2018-12-14 01:55:15 GMT 36.096420 -120.487762 39,825 140 408 1024
2018-12-14 01:55:11 GMT 36.102425 -120.493782 39,775 140 408 1024
2018-12-14 01:55:07 GMT 36.108078 -120.499474 39,725 140 408 1024
2018-12-14 01:55:02 GMT 36.115646 -120.507050 39,625 140 409 960
2018-12-14 01:54:58 GMT 36.124100 -120.515495 39,525 140 409 1024
2018-12-14 01:54:52 GMT 36.129147 -120.520607 39,450 140 410 1024
2018-12-14 01:54:48 GMT 36.134590 -120.526039 39,375 140 410 1024
2018-12-14 01:54:45 GMT 36.139572 -120.531067 39,350 140 410 1024
2018-12-14 01:54:42 GMT 36.145020 -120.536560 39,300 140 410 1024
2018-12-14 01:54:38 GMT 36.150326 -120.541817 38,950 140 410 960
2018-12-14 01:54:34 GMT 36.154816 -120.546341 39,175 140 410 1024
2018-12-14 01:54:31 GMT 36.160194 -120.551750 39,150 140 410 960
2018-12-14 01:54:28 GMT 36.165710 -120.557266 39,000 140 410 1024
2018-12-14 01:54:24 GMT 36.170345 -120.561920 39,000 140 410 1024
2018-12-14 01:54:21 GMT 36.176422 -120.568085 38,950 140 410 960
2018-12-14 01:54:18 GMT 36.181137 -120.572777 38,900 140 410 1024
2018-12-14 01:54:14 GMT 36.186218 -120.577873 38,825 140 410 1024
2018-12-14 01:54:09 GMT 36.192688 -120.584419 38,750 140 410 1024
2018-12-14 01:54:06 GMT 36.196507 -120.588219 38,550 140 410 1024
2018-12-14 01:54:03 GMT 36.201534 -120.593239 38,575 140 410 1024
2018-12-14 01:53:59 GMT 36.208237 -120.600014 38,575 140 410 1024
2018-12-14 01:53:55 GMT 36.212708 -120.604523 38,425 140 410 1024
2018-12-14 01:53:50 GMT 36.222111 -120.613991 38,425 140 409 1024
2018-12-14 01:53:45 GMT 36.233185 -120.625191 38,300 140 409 1024
2018-12-14 01:53:42 GMT 36.233185 -120.625191 38,175 140 409 1024
2018-12-14 01:53:38 GMT 36.239426 -120.631462 38,175 140 409 1024
2018-12-14 01:53:33 GMT 36.244492 -120.636520 38,200 140 409 1024
2018-12-14 01:53:30 GMT 36.249531 -120.641632 38,100 140 407 1024
2018-12-14 01:53:27 GMT 36.255432 -120.647621 38,000 140 407 960
2018-12-14 01:53:23 GMT 36.266830 -120.659119 37,950 140 407 1024
2018-12-14 01:53:19 GMT 36.266830 -120.659119 37,925 140 407 1024
2018-12-14 01:53:15 GMT 36.272758 -120.665062 37,825 140 406 1024
2018-12-14 01:53:12 GMT 36.277176 -120.669540 37,800 140 406 1024
2018-12-14 01:53:09 GMT 36.280975 -120.673370 37,750 140 405 1024
2018-12-14 01:53:05 GMT 36.287750 -120.680199 37,675 140 405 960
2018-12-14 01:53:02 GMT 36.291458 -120.683899 37,625 140 405 1024
2018-12-14 01:52:59 GMT 36.294872 -120.687386 37,575 140 405 1024
2018-12-14 01:52:56 GMT 36.301300 -120.693916 37,525 140 404 1088
2018-12-14 01:52:53 GMT 36.304413 -120.697029 37,525 140 404 1024
2018-12-14 01:52:50 GMT 36.309402 -120.702095 37,425 140 404 960
2018-12-14 01:52:47 GMT 36.317093 -120.709824 37,350 140 402 960
2018-12-14 01:52:44 GMT 36.317093 -120.709824 37,325 140 402 960
2018-12-14 01:52:41 GMT 36.320335 -120.713097 37,300 140 402 1024
2018-12-14 01:52:38 GMT 36.325272 -120.718063 37,250 140 402 1024
2018-12-14 01:52:34 GMT 36.332657 -120.725555 37,150 140 401 1088
2018-12-14 01:52:31 GMT 36.335678 -120.728584 37,125 140 401 768
2018-12-14 01:52:28 GMT 36.340714 -120.733681 37,075 140 401 832
2018-12-14 01:52:25 GMT 36.343002 -120.735970 37,000 140 397 256
2018-12-14 01:52:22 GMT 36.349731 -120.742783 37,000 140 397 256
2018-12-14 01:52:19 GMT 36.353577 -120.746674 36,975 140 395 320
2018-12-14 01:52:15 GMT 36.357971 -120.751076 36,975 140 394 448
2018-12-14 01:52:12 GMT 36.362366 -120.755539 36,950 140 392 640
2018-12-14 01:52:09 GMT 36.370983 -120.764229 36,875 140 389 1216
2018-12-14 01:52:06 GMT 36.370983 -120.764229 36,900 140 389 1152
2018-12-14 01:52:03 GMT 36.375961 -120.769218 36,825 140 388 1344
2018-12-14 01:52:00 GMT 36.380814 -120.774139 36,775 140 388 1408
2018-12-14 01:51:56 GMT 36.385044 -120.778435 36,675 140 387 1472
2018-12-14 01:51:52 GMT 36.391251 -120.784660 36,575 140 387 1472
2018-12-14 01:51:49 GMT 36.396103 -120.789642 36,475 140 387 1472
2018-12-14 01:51:45 GMT 36.400219 -120.793739 36,400 140 387 1472
2018-12-14 01:51:40 GMT 36.410522 -120.804237 36,225 140 386 1536
2018-12-14 01:51:33 GMT 36.417538 -120.811272 36,100 140 386 1472
2018-12-14 01:51:30 GMT 36.421959 -120.815773 35,975 140 386 1472
2018-12-14 01:51:26 GMT 36.427498 -120.821381 35,925 140 386 1536
2018-12-14 01:51:22 GMT 36.432854 -120.826874 35,775 140 385 1472
2018-12-14 01:51:18 GMT 36.437210 -120.831245 35,750 140 385 1536
2018-12-14 01:51:14 GMT 36.444721 -120.838860 35,600 140 385 1536
2018-12-14 01:51:11 GMT 36.448029 -120.842247 35,550 140 384 1472
2018-12-14 01:51:08 GMT 36.452171 -120.846397 35,475 140 383 1536
2018-12-14 01:51:03 GMT 36.458317 -120.852707 35,350 140 383 1472
2018-12-14 01:51:00 GMT 36.463211 -120.857620 35,275 140 382 1536
2018-12-14 01:50:55 GMT 36.470421 -120.864922 35,100 140 382 1536
2018-12-14 01:50:52 GMT 36.473026 -120.867554 35,100 140 382 1472
2018-12-14 01:50:49 GMT 36.477585 -120.872208 35,000 140 381 1536
2018-12-14 01:50:45 GMT 36.482666 -120.877357 34,850 140 380 1536
2018-12-14 01:50:42 GMT 36.488113 -120.882851 34,825 140 380 1536
2018-12-14 01:50:37 GMT 36.493286 -120.888123 34,725 140 379 1472
2018-12-14 01:50:34 GMT 36.503006 -120.897995 34,575 140 378 1472
2018-12-14 01:50:30 GMT 36.503006 -120.897995 34,525 140 378 1536
2018-12-14 01:50:27 GMT 36.507477 -120.902496 34,400 140 377 1600
2018-12-14 01:50:24 GMT 36.512035 -120.907173 34,375 140 377 1920
2018-12-14 01:50:21 GMT 36.516228 -120.911438 34,275 140 376 1984
2018-12-14 01:50:16 GMT 36.523769 -120.919090 34,100 140 377 1984
2018-12-14 01:50:13 GMT 36.525192 -120.920509 34,050 140 377 1984
2018-12-14 01:50:10 GMT 36.530239 -120.925697 33,950 140 377 1984
2018-12-14 01:50:03 GMT 36.540806 -120.936333 33,675 140 377 1984
2018-12-14 01:49:59 GMT 36.545059 -120.940643 33,625 140 377 1984
2018-12-14 01:49:54 GMT 36.552956 -120.948662 33,375 140 377 1984
2018-12-14 01:49:48 GMT 36.559849 -120.955673 32,925 140 377 1984
2018-12-14 01:49:41 GMT 36.569344 -120.965256 33,025 140 377 1984
2018-12-14 01:49:38 GMT 36.573441 -120.969429 32,900 140 377 1984
2018-12-14 01:49:35 GMT 36.577515 -120.973549 32,775 140 377 1984
2018-12-14 01:49:32 GMT 36.586670 -120.982880 32,625 140 376 1984
2018-12-14 01:49:29 GMT 36.586670 -120.982880 32,575 140 376 1984
2018-12-14 01:49:25 GMT 36.592293 -120.988579 32,425 140 376 1984
2018-12-14 01:49:22 GMT 36.596512 -120.992950 32,350 140 377 1984
2018-12-14 01:49:19 GMT 36.598343 -120.994835 32,275 140 376 1984
2018-12-14 01:49:16 GMT 36.603653 -121.000381 32,150 139 376 1984
2018-12-14 01:49:10 GMT 36.612450 -121.009613 31,925 139 376 1984
2018-12-14 01:49:07 GMT 36.616688 -121.014114 30,725 139 372 1984
2018-12-14 01:49:03 GMT 36.621063 -121.018730 30,725 139 372 1984
2018-12-14 01:49:00 GMT 36.625717 -121.023582 31,600 139 375 2048
2018-12-14 01:48:57 GMT 36.629059 -121.027161 31,500 139 375 2048
2018-12-14 01:48:53 GMT 36.633911 -121.032227 31,375 139 375 1984
2018-12-14 01:48:48 GMT 36.640594 -121.039291 31,200 139 373 2048
2018-12-14 01:48:43 GMT 36.647644 -121.046722 31,025 139 373 1984
2018-12-14 01:48:38 GMT 36.655106 -121.054573 30,850 139 373 2048
2018-12-14 01:48:35 GMT 36.662167 -121.062035 30,725 139 372 1984
2018-12-14 01:48:31 GMT 36.662167 -121.062035 30,675 139 372 2048
2018-12-14 01:48:28 GMT 36.667942 -121.068108 30,525 139 372 1984
2018-12-14 01:48:22 GMT 36.675339 -121.075912 30,325 139 371 1984
2018-12-14 01:48:17 GMT 36.682095 -121.083008 30,150 139 369 2176
2018-12-14 01:48:13 GMT 36.686188 -121.087303 30,075 139 368 2304
2018-12-14 01:48:10 GMT 36.689354 -121.090668 29,950 139 368 2368
2018-12-14 01:48:06 GMT 36.695389 -121.097092 29,775 139 368 2432
2018-12-14 01:48:01 GMT 36.703079 -121.105156 29,625 139 368 2368
2018-12-14 01:47:55 GMT 36.713421 -121.116089 29,225 139 368 2368
2018-12-14 01:47:52 GMT 36.713421 -121.116089 29,225 139 368 2368
2018-12-14 01:47:49 GMT 36.716541 -121.119362 29,125 139 368 2368
2018-12-14 01:47:45 GMT 36.724220 -121.127426 28,875 139 368 2432
2018-12-14 01:47:42 GMT 36.727573 -121.130989 28,775 139 368 2432
2018-12-14 01:47:36 GMT 36.734604 -121.138412 28,550 139 368 2432
2018-12-14 01:47:33 GMT 36.738556 -121.142632 28,450 139 368 2432
2018-12-14 01:47:30 GMT 36.741867 -121.146126 28,325 139 368 2368
2018-12-14 01:47:26 GMT 36.748241 -121.152847 28,150 139 368 2368
2018-12-14 01:47:23 GMT 36.751457 -121.156296 28,050 139 368 2432
2018-12-14 01:47:20 GMT 36.756531 -121.161606 27,900 139 368 2432
2018-12-14 01:47:16 GMT 36.761261 -121.166672 27,750 139 368 2368
2018-12-14 01:47:12 GMT 36.764675 -121.170258 27,625 139 368 2368
2018-12-14 01:47:09 GMT 36.769958 -121.175819 27,475 139 367 2368
2018-12-14 01:47:05 GMT 36.775635 -121.181892 27,300 139 367 2368
2018-12-14 01:47:01 GMT 36.779060 -121.185509 27,200 139 367 2368
2018-12-14 01:46:58 GMT 36.783646 -121.190353 27,050 139 366 2432
2018-12-14 01:46:51 GMT 36.792343 -121.199509 26,725 139 366 2432
2018-12-14 01:46:48 GMT 36.797745 -121.205292 26,625 139 366 2432
2018-12-14 01:46:44 GMT 36.802780 -121.210609 26,475 139 366 2432
2018-12-14 01:46:40 GMT 36.807644 -121.215721 26,325 139 366 2368
2018-12-14 01:46:36 GMT 36.811569 -121.219887 26,225 139 366 2368
2018-12-14 01:46:32 GMT 36.816467 -121.225090 26,050 139 366 2432
2018-12-14 01:46:29 GMT 36.821796 -121.230743 25,875 139 365 2752
2018-12-14 01:46:26 GMT 36.825054 -121.234192 25,775 139 365 2944
2018-12-14 01:46:22 GMT 36.829880 -121.239281 25,575 139 366 3008
2018-12-14 01:46:19 GMT 36.833725 -121.243401 25,450 139 366 2944
2018-12-14 01:46:15 GMT 36.839111 -121.249092 25,175 139 368 2944
2018-12-14 01:46:12 GMT 36.844116 -121.254387 25,050 139 369 2944
2018-12-14 01:46:09 GMT 36.846516 -121.256981 24,950 139 370 2944
2018-12-14 01:46:05 GMT 36.853081 -121.263924 24,650 139 372 2944
2018-12-14 01:46:02 GMT 36.857128 -121.268227 24,550 139 373 2944
2018-12-14 01:45:59 GMT 36.861282 -121.272644 24,400 139 374 2944
2018-12-14 01:45:54 GMT 36.867558 -121.279327 24,125 139 377 2944
2018-12-14 01:45:51 GMT 36.871765 -121.283745 24,000 139 377 2944
2018-12-14 01:45:46 GMT 36.878677 -121.291107 23,725 139 380 2944
2018-12-14 01:45:43 GMT 36.882156 -121.294846 23,625 139 380 2944
2018-12-14 01:45:38 GMT 36.888786 -121.301903 23,350 139 382 3008
2018-12-14 01:45:35 GMT 36.892181 -121.305481 23,125 139 384 2944
2018-12-14 01:45:31 GMT 36.903728 -121.317780 22,975 139 387 3072
2018-12-14 01:45:27 GMT 36.907883 -121.322258 22,575 139 390 2624
2018-12-14 01:45:24 GMT 36.914436 -121.329247 22,575 139 390 2624
2018-12-14 01:45:19 GMT 36.914436 -121.329247 22,475 139 392 2112
2018-12-14 01:45:13 GMT 36.922668 -121.337975 22,275 139 392 1984
2018-12-14 01:45:08 GMT 36.929581 -121.345337 22,100 139 392 1984
2018-12-14 01:45:05 GMT 36.933060 -121.349022 22,000 139 392 1984
2018-12-14 01:45:02 GMT 36.937431 -121.353668 21,925 139 392 2048
2018-12-14 01:44:59 GMT 36.941483 -121.357964 21,825 139 392 2048
2018-12-14 01:44:55 GMT 36.947983 -121.364853 21,625 139 392 1984
2018-12-14 01:44:51 GMT 36.952606 -121.369789 21,550 139 392 1984
2018-12-14 01:44:47 GMT 36.958847 -121.376419 21,400 139 391 1984
2018-12-14 01:44:44 GMT 36.963825 -121.381729 21,275 139 391 1984
2018-12-14 01:44:39 GMT 36.968307 -121.386482 21,175 139 391 1984
2018-12-14 01:44:36 GMT 36.973881 -121.392418 21,025 139 391 2048
2018-12-14 01:44:33 GMT 36.978165 -121.396957 20,950 139 390 2048
2018-12-14 01:44:30 GMT 36.982868 -121.401970 20,250 139 390 1984
2018-12-14 01:44:25 GMT 36.988724 -121.408157 20,725 139 390 2048
2018-12-14 01:44:21 GMT 36.993668 -121.413422 20,550 139 389 1984
2018-12-14 01:44:18 GMT 36.998611 -121.418617 20,425 139 389 1984
2018-12-14 01:44:15 GMT 37.003490 -121.423820 20,325 139 388 1984
2018-12-14 01:44:11 GMT 37.008797 -121.429436 20,200 139 388 1984
2018-12-14 01:44:08 GMT 37.012939 -121.433792 20,075 139 386 1984
2018-12-14 01:44:04 GMT 37.018665 -121.439827 19,950 139 386 1984
2018-12-14 01:44:01 GMT 37.022964 -121.444389 19,850 139 385 1984
2018-12-14 01:43:55 GMT 37.030910 -121.452782 19,650 139 384 1984
2018-12-14 01:43:52 GMT 37.033676 -121.455727 19,625 139 384 1984
2018-12-14 01:43:49 GMT 37.037800 -121.460129 19,550 139 383 1984
2018-12-14 01:43:46 GMT 37.041710 -121.464310 19,375 139 382 1984
2018-12-14 01:43:42 GMT 37.047249 -121.470215 19,275 138 382 2048
2018-12-14 01:43:39 GMT 37.052490 -121.475945 19,100 138 381 1984
2018-12-14 01:43:35 GMT 37.056511 -121.480370 19,000 138 380 1984
2018-12-14 01:43:31 GMT 37.062939 -121.487595 18,825 137 379 1984
2018-12-14 01:43:28 GMT 37.066055 -121.491112 18,775 137 379 1984
2018-12-14 01:43:21 GMT 37.076019 -121.502304 18,525 137 375 1984
2018-12-14 01:43:16 GMT 37.080627 -121.507477 18,400 137 375 1984
2018-12-14 01:43:10 GMT 37.087982 -121.515778 18,225 137 374 1984
2018-12-14 01:43:05 GMT 37.095016 -121.523689 18,025 137 373 1984
2018-12-14 01:43:01 GMT 37.101929 -121.531525 17,850 137 373 1984
2018-12-14 01:42:58 GMT 37.105270 -121.535263 17,775 137 371 1984
2018-12-14 01:42:55 GMT 37.108372 -121.538765 17,700 137 370 1984
2018-12-14 01:42:50 GMT 37.114929 -121.546127 17,475 137 368 2048
2018-12-14 01:42:46 GMT 37.119545 -121.551361 17,400 137 367 2048
2018-12-14 01:42:42 GMT 37.123810 -121.556122 17,275 137 367 2048
2018-12-14 01:42:39 GMT 37.128155 -121.561035 17,175 137 365 1984
2018-12-14 01:42:36 GMT 37.132095 -121.565475 17,100 137 355 2048
2018-12-14 01:42:33 GMT 37.136856 -121.570847 16,925 137 362 2048
2018-12-14 01:42:29 GMT 37.142349 -121.576988 16,775 137 361 1984
2018-12-14 01:42:26 GMT 37.145706 -121.580856 16,700 137 359 2048
2018-12-14 01:42:23 GMT 37.149292 -121.584854 16,600 137 356 2048
2018-12-14 01:42:16 GMT 37.156925 -121.593452 16,400 137 354 2048
2018-12-14 01:42:12 GMT 37.162445 -121.599663 16,225 137 352 2048
2018-12-14 01:42:07 GMT 37.167526 -121.605385 16,025 138 348 1984
2018-12-14 01:42:04 GMT 37.171402 -121.609818 16,025 138 348 1984
2018-12-14 01:42:01 GMT 37.175171 -121.614037 15,875 137 346 2048
2018-12-14 01:41:57 GMT 37.180618 -121.620171 15,725 137 342 1984
2018-12-14 01:41:54 GMT 37.183823 -121.623795 15,625 137 341 1984
2018-12-14 01:41:49 GMT 37.189636 -121.630402 15,475 137 337 2048
2018-12-14 01:41:46 GMT 37.192978 -121.634193 15,375 137 335 2048
2018-12-14 01:41:42 GMT 37.196686 -121.638344 15,250 137 333 2048
2018-12-14 01:41:39 GMT 37.200439 -121.642609 15,100 137 330 2048
2018-12-14 01:41:36 GMT 37.203827 -121.646469 14,925 137 327 2048
2018-12-14 01:41:33 GMT 37.207947 -121.651077 14,925 137 327 2048
2018-12-14 01:41:29 GMT 37.212929 -121.656746 14,775 137 321 2048
2018-12-14 01:41:26 GMT 37.216187 -121.660439 14,675 137 319 2048
2018-12-14 01:41:22 GMT 37.220375 -121.665222 14,550 137 315 2048
2018-12-14 01:41:18 GMT 37.224285 -121.669586 14,425 137 312 2048
2018-12-14 01:41:14 GMT 37.231613 -121.677963 14,275 137 306 2048
2018-12-14 01:41:06 GMT 37.236065 -121.683022 13,950 137 298 2048
2018-12-14 01:41:03 GMT 37.240253 -121.687737 13,875 137 295 2048
2018-12-14 01:41:00 GMT 37.242737 -121.690590 13,825 137 293 2048
2018-12-14 01:40:56 GMT 37.246628 -121.695030 13,675 137 287 2048
2018-12-14 01:40:53 GMT 37.249420 -121.698128 13,575 137 286 2048
2018-12-14 01:40:50 GMT 37.253036 -121.702217 13,450 137 281 2048
2018-12-14 01:40:44 GMT 37.259247 -121.709351 13,150 137 273 2304
2018-12-14 01:40:40 GMT 37.261761 -121.712212 13,175 137 270 2624
2018-12-14 01:40:35 GMT 37.267673 -121.718842 12,850 137 264 3200
2018-12-14 01:40:31 GMT 37.270752 -121.722382 12,600 137 261 3392
2018-12-14 01:40:28 GMT 37.272701 -121.724571 12,525 137 261 3392
2018-12-14 01:40:22 GMT 37.278351 -121.731026 12,225 137 259 3392
2018-12-14 01:40:18 GMT 37.281963 -121.735085 11,800 137 256 3392
2018-12-14 01:40:12 GMT 37.287457 -121.741409 11,600 137 254 3520
2018-12-14 01:40:07 GMT 37.291321 -121.745773 11,325 137 251 3904
2018-12-14 01:40:01 GMT 37.296677 -121.751862 10,925 137 251 3968
2018-12-14 01:39:57 GMT 37.300724 -121.756462 10,600 137 250 3968
2018-12-14 01:39:51 GMT 37.305634 -121.762001 10,225 138 249 4032
2018-12-14 01:39:48 GMT 37.308334 -121.765038 10,025 138 249 4032
2018-12-14 01:39:45 GMT 37.309708 -121.766556 9,925 138 248 4032
2018-12-14 01:39:39 GMT 37.314968 -121.772400 9,500 138 247 3968
2018-12-14 01:39:35 GMT 37.318787 -121.776581 9,275 138 246 4032
2018-12-14 01:39:29 GMT 37.323807 -121.782280 8,825 136 245 4032
2018-12-14 01:39:25 GMT 37.327911 -121.787445 8,300 132 244 4032
2018-12-14 01:39:19 GMT 37.332047 -121.793205 8,100 131 243 4032
2018-12-14 01:39:15 GMT 37.334564 -121.796829 7,850 131 242 4032
2018-12-14 01:39:12 GMT 37.337036 -121.800346 7,775 131 242 4032
2018-12-14 01:39:06 GMT 37.342072 -121.807579 7,175 131 242 2880
2018-12-14 01:39:03 GMT 37.343460 -121.809479 7,175 131 242 2880
2018-12-14 01:38:57 GMT 37.347977 -121.815987 6,875 131 243 1984
2018-12-14 01:38:53 GMT 37.351791 -121.821419 6,700 131 243 1984
2018-12-14 01:38:47 GMT 37.356125 -121.827629 6,500 131 242 1984
2018-12-14 01:38:44 GMT 37.358356 -121.830795 6,400 131 241 1984
2018-12-14 01:38:41 GMT 37.359421 -121.832359 6,350 131 241 2048
2018-12-14 01:38:36 GMT 37.363850 -121.838737 6,150 131 240 2048
2018-12-14 01:38:33 GMT 37.366222 -121.842079 6,050 131 240 1984
2018-12-14 01:38:26 GMT 37.371277 -121.849426 5,800 131 238 1984
2018-12-14 01:38:20 GMT 37.375351 -121.855270 5,625 131 237 2048
2018-12-14 01:38:15 GMT 37.379517 -121.861290 5,425 130 232 1984
2018-12-14 01:38:12 GMT 37.381588 -121.864288 5,325 130 232 1984
2018-12-14 01:38:09 GMT 37.383179 -121.866547 5,250 130 230 2048
2018-12-14 01:38:03 GMT 37.388382 -121.874146 5,100 130 226 1984
2018-12-14 01:38:00 GMT 37.389816 -121.876190 4,925 130 225 1280
2018-12-14 01:37:53 GMT 37.397182 -121.886978 4,800 130 226 64
2018-12-14 01:37:49 GMT 37.397182 -121.886978 4,800 130 226 0
2018-12-14 01:37:46 GMT 37.398239 -121.888519 4,800 130 226 0
2018-12-14 01:37:42 GMT 37.402908 -121.895294 4,800 130 226 0
2018-12-14 01:37:39 GMT 37.403976 -121.896835 4,775 131 225 0
2018-12-14 01:37:35 GMT 37.405792 -121.899460 4,775 131 224 0
2018-12-14 01:37:30 GMT 37.409912 -121.905289 4,775 131 224 0
2018-12-14 01:37:27 GMT 37.412018 -121.908157 4,775 132 223 0
2018-12-14 01:37:21 GMT 37.416687 -121.914291 4,775 136 224 -128
2018-12-14 01:37:18 GMT 37.422737 -121.921310 4,800 137 224 -128
2018-12-14 01:37:13 GMT 37.422737 -121.921310 4,800 139 224 -64
2018-12-14 01:37:10 GMT 37.425114 -121.923820 4,800 139 224 0
2018-12-14 01:37:06 GMT 37.428177 -121.927261 4,800 136 225 64
2018-12-14 01:37:03 GMT 37.430374 -121.929970 4,800 131 225 0
2018-12-14 01:37:00 GMT 37.431816 -121.932060 4,800 127 226 0
2018-12-14 01:36:57 GMT 37.434284 -121.936775 4,800 112 226 -64
2018-12-14 01:36:54 GMT 37.434906 -121.938248 4,800 112 226 -64
2018-12-14 01:36:51 GMT 37.436829 -121.947891 4,800 53 226 832
2018-12-14 01:36:48 GMT 37.436829 -121.952042 4,800 87 228 128
2018-12-14 01:36:44 GMT 37.436829 -121.952042 4,800 82 228 192
2018-12-14 01:36:39 GMT 37.435822 -121.958412 4,725 59 227 704
2018-12-14 01:36:34 GMT 37.433678 -121.964485 4,750 59 227 704
2018-12-14 01:36:28 GMT 37.430099 -121.970329 4,675 45 225 960
2018-12-14 01:36:25 GMT 37.426895 -121.973663 4,600 32 222 1216
2018-12-14 01:36:22 GMT 37.425068 -121.975052 4,575 24 220 1344
2018-12-14 01:36:19 GMT 37.420990 -121.977165 4,325 16 218 1472
2018-12-14 01:36:15 GMT 37.418129 -121.978035 4,400 5 213 1600
2018-12-14 01:36:11 GMT 37.413986 -121.978333 4,300 357 211 1664
2018-12-14 01:36:07 GMT 37.410683 -121.977737 4,200 346 210 1728
2018-12-14 01:36:02 GMT 37.404861 -121.974754 4,025 327 207 1792
2018-12-14 01:35:58 GMT 37.402489 -121.972664 3,875 320 204 2496
2018-12-14 01:35:54 GMT 37.399063 -121.969048 3,725 318 198 4032
2018-12-14 01:35:51 GMT 37.397415 -121.967171 3,625 318 197 4416
2018-12-14 01:35:46 GMT 37.394394 -121.963608 3,225 318 196 4544
2018-12-14 01:35:43 GMT 37.391556 -121.960396 2,950 318 195 4160
2018-12-14 01:35:33 GMT 37.384937 -121.952896 2,300 319 192 3584
2018-12-14 01:35:29 GMT 37.382401 -121.950050 2,075 319 188 3520
2018-12-14 01:35:24 GMT 37.379166 -121.946571 1,775 320 183 3904
2018-12-14 01:35:19 GMT 37.376221 -121.943512 1,375 321 178 3904
2018-12-14 01:35:16 GMT 37.374390 -121.941582 1,150 322 173 3136
2018-12-14 01:35:13 GMT 37.369949 -121.937195 900 322 166 3008
2018-12-14 01:35:07 GMT 37.369019 -121.936241 825 322 161 3200
2018-12-14 01:35:03 GMT 37.366409 -121.933670 700 322 153 3584
2018-12-14 01:35:00 GMT 37.364876 -121.932060 375 321 147 3520
2018-12-14 01:34:57 GMT 37.363037 -121.930183 200 320 145 3136
2018-12-14 01:34:50 GMT 37.359695 -121.926620 -125 320 128 256
2018-12-14 01:34:47 GMT 37.358459 -121.925278 -150 320 128 256
2018-12-14 01:34:39 GMT 37.354877 -121.921326 0 306 69
2018-12-14 01:34:36 GMT 37.354191 -121.920586 0 306 48
2018-12-14 01:34:31 GMT 37.353493 -121.919823 0 303 26
2018-12-14 01:34:27 GMT 37.353275 -121.919594 0 303 21
2018-12-14 01:34:23 GMT 37.352966 -121.919289 0 317 15
2018-12-14 01:34:18 GMT 37.352654 -121.919228 0 2 12
2018-12-14 01:31:27 GMT 37.352211 -121.920166 0 104 10
2018-12-14 01:31:24 GMT 37.352318 -121.920341 0 123 11
2018-12-14 01:31:16 GMT 37.352566 -121.920631 0 126 12
2018-12-14 01:31:11 GMT 37.352863 -121.920952 0 126 13
2018-12-14 01:31:08 GMT 37.352989 -121.921082 0 126 13
2018-12-14 01:31:03 GMT 37.353153 -121.921272 0 126 14
2018-12-14 01:30:50 GMT 37.353870 -121.922050 0 126 19
2018-12-14 01:30:40 GMT 37.354511 -121.922760 0 126 21
2018-12-14 01:30:36 GMT 37.354832 -121.923119 0 126 18
2018-12-14 01:30:24 GMT 37.355553 -121.923904 0 126 9
2018-12-14 01:30:20 GMT 37.355553 -121.923904 0 126 8
2018-12-14 01:30:13 GMT 37.355713 -121.924095 0 126 6
2018-12-14 01:30:00 GMT 37.355999 -121.924400 0 126 12
2018-12-14 01:29:52 GMT 37.356319 -121.924751 0 126 21
2018-12-14 01:29:49 GMT 37.356575 -121.925034 0 126 22
2018-12-14 01:29:44 GMT 37.356926 -121.925407 0 126 23
2018-12-14 01:29:41 GMT 37.357273 -121.925789 0 126 22
2018-12-14 01:29:36 GMT 37.357647 -121.926208 0 126 22
2018-12-14 01:29:29 GMT 37.358093 -121.926697 0 126 21
2018-12-14 01:29:24 GMT 37.358471 -121.927101 0 126 21
2018-12-14 01:29:21 GMT 37.358685 -121.927330 0 126 21
2018-12-14 01:29:16 GMT 37.359112 -121.927803 0 126 21
2018-12-14 01:29:11 GMT 37.359421 -121.928139 0 126 20
2018-12-14 01:29:05 GMT 37.359730 -121.928490 0 126 19
2018-12-14 01:29:00 GMT 37.360115 -121.928909 0 126 18
2018-12-14 01:28:55 GMT 37.360439 -121.929260 0 126 17
2018-12-14 01:28:50 GMT 37.360744 -121.929581 0 126 16
2018-12-14 01:28:45 GMT 37.361000 -121.929871 0 126 15
2018-12-14 01:28:38 GMT 37.361313 -121.930206 0 126 14
2018-12-14 01:28:34 GMT 37.361526 -121.930450 0 126 13
2018-12-14 01:28:30 GMT 37.361721 -121.930641 0 126 12
2018-12-14 01:28:27 GMT 37.361790 -121.930725 0 115 12
2018-12-14 01:28:21 GMT 37.361904 -121.931107 0 73 13
2018-12-14 01:28:17 GMT 37.361790 -121.931435 0 39 13
2018-12-14 01:28:12 GMT 37.361629 -121.931679 0 36 10
2018-12-14 01:28:07 GMT 37.361477 -121.931915 0 36 9
2018-12-14 01:28:02 GMT 37.361359 -121.932106 0 39 10
2018-12-14 01:27:57 GMT 37.361244 -121.932404 0 75 10
2018-12-14 01:27:45 GMT 37.361557 -121.932945 0 120 10
2018-12-14 01:27:39 GMT 37.361664 -121.933167 0 81 9
2018-12-14 01:27:32 GMT 37.361557 -121.933479 0 33 9
2018-12-14 01:27:22 GMT 37.361343 -121.933922 0 59 9
2018-12-14 01:27:17 GMT 37.361301 -121.934135 0 75 9
2018-12-14 01:27:13 GMT 37.361343 -121.934380 0 101 8
2018-12-14 01:27:08 GMT 37.361431 -121.934540 0 118 7
2018-12-14 01:27:01 GMT 37.361595 -121.934715 0 123 5
2018-12-14 01:26:56 GMT 37.361675 -121.934799 0 137 4
2018-12-14 01:26:50 GMT 37.361721 -121.934837 0 188 1
2018-12-14 01:26:46 GMT 37.361744 -121.934837 0 194 3
2018-12-14 01:26:39 GMT 37.361835 -121.934731 0 213 2
2018-12-14 01:26:24 GMT 37.361881 -121.934669 0 213 0
2018-12-14 01:26:17 GMT 37.361881 -121.934669 0 213 0
2018-12-14 01:25:52 GMT 37.361881 -121.934669 0 213 0
2018-12-14 01:25:43 GMT 37.361881 -121.934669 0 213 0
2018-12-14 01:25:27 GMT 37.361881 -121.934669 0 213 0
2018-12-14 01:25:04 GMT 37.361881 -121.934669 0 213 0
2018-12-14 01:24:32 GMT 37.361881 -121.934669 0 213 0
2018-12-14 01:23:44 GMT 37.361881 -121.934669 0 213 0
2018-12-14 01:23:38 GMT 37.361881 -121.934669 0 213 0
2018-12-14 01:23:12 GMT 37.361881 -121.934669 0 213 0
2018-12-14 01:22:23 GMT 37.361881 -121.934669 0 213 0
2018-12-14 01:22:12 GMT 37.361881 -121.934669 0 213 0
2018-12-14 01:21:43 GMT 37.361881 -121.934669 0 213 0
2018-12-14 01:21:18 GMT 37.361881 -121.934669 0 213 0
2018-12-14 01:20:57 GMT 37.361881 -121.934669 0 213 0
2018-12-14 01:20:27 GMT 37.361881 -121.934669 0 213 0
2018-12-14 01:19:17 GMT 37.361881 -121.934669 0 213 0
2018-12-14 01:19:07 GMT 37.361881 -121.934669 0 213 0
2018-12-14 01:18:23 GMT 37.361881 -121.934669 0 213 0
2018-12-14 01:18:07 GMT 37.361874 -121.934669 0 213 0
2018-12-14 01:17:42 GMT 37.361881 -121.934669 0 213 0
2018-12-14 01:17:26 GMT 37.361874 -121.934669 0 213 0
2018-12-14 01:17:17 GMT 37.361881 -121.934669 0 213 0
2018-12-14 01:16:58 GMT 37.361874 -121.934669 0 213 0
2018-12-14 01:16:38 GMT 37.361870 -121.934669 0 213 0
2018-12-14 01:15:18 GMT 37.361874 -121.934669 0 213 0
2018-12-14 01:15:03 GMT 37.361870 -121.934669 0 213 0
2018-12-14 01:14:52 GMT 37.361874 -121.934669 0 213 0
2018-12-14 01:13:53 GMT 37.361881 -121.934669 0 213 0
2018-12-14 01:13:21 GMT 37.361870 -121.934669 0 213 0
2018-12-14 01:12:35 GMT 37.361874 -121.934669 0 213 0
2018-12-14 01:12:11 GMT 37.361881 -121.934669 0 213 0
2018-12-14 01:11:50 GMT 37.361874 -121.934669 0 213 0
2018-12-14 01:11:41 GMT 37.361881 -121.934669 0 213 0
2018-12-14 01:11:21 GMT 37.361874 -121.934669 0 213 0
2018-12-14 01:11:05 GMT 37.361881 -121.934669 0 213 0
2018-12-14 01:10:57 GMT 37.361881 -121.934685 0 213 0
2018-12-14 01:10:51 GMT 37.361881 -121.934685 0 213 0
2018-12-14 01:10:36 GMT 37.361881 -121.934669 0 213 0
2018-12-14 01:06:37 GMT 37.361881 -121.934669 0 213 0 0
2018-12-14 01:06:37 GMT 37.361881 -121.934669 0 213 0 0
2018-12-14 01:06:36 GMT 37.361881 -121.934669 0 213 0
2018-12-14 01:06:20 GMT 37.361881 -121.934669 0 213 0 0
2018-12-14 01:06:05 GMT 37.361881 -121.934669 0 213 0 0
2018-12-14 01:05:40 GMT 37.361874 -121.934669 0 213 0 0
2018-12-14 01:05:05 GMT 37.361881 -121.934669 0 213 0 0
2018-12-14 01:04:37 GMT 37.361881 -121.934669 0 213 0 0
2018-12-14 01:04:21 GMT 37.361874 -121.934669 0 213 0 0
2018-12-14 01:04:01 GMT 37.361881 -121.934669 0 213 0 0
2018-12-14 01:03:45 GMT 37.361881 -121.934669 0 213 0 0
2018-12-14 01:02:40 GMT 37.361874 -121.934669 0 213 0 0
2018-12-14 01:02:25 GMT 37.361881 -121.934669 0 213 0 0
2018-12-14 01:01:16 GMT 37.361874 -121.934669 0 213 0 0
2018-12-14 01:01:11 GMT 37.361881 -121.934669 0 213 0 0
2018-12-14 01:00:45 GMT 37.361874 -121.934669 0 213 0 0
2018-12-14 01:00:11 GMT 37.361881 -121.934669 0 213 0 0
2018-12-14 00:59:05 GMT 37.361874 -121.934669 0 213 0 0
2018-12-14 00:58:56 GMT 37.361870 -121.934669 0 213 0 0
2018-12-14 00:58:45 GMT 37.361874 -121.934669 0 213 0 0
2018-12-14 00:58:15 GMT 37.361870 -121.934669 0 213 0 0
2018-12-14 00:58:10 GMT 37.361874 -121.934669 0 213 0 0
2018-12-14 00:58:00 GMT 37.361870 -121.934669 0 213 0 0
2018-12-14 00:57:40 GMT 37.361874 -121.934669 0 213 0 0
2018-12-14 00:57:10 GMT 37.361870 -121.934669 0 213 0 0
2018-12-14 00:56:36 GMT 37.361874 -121.934669 0 213 0 0
2018-12-14 00:56:16 GMT 37.361870 -121.934669 0 213 0 0
2018-12-14 00:55:50 GMT 37.361874 -121.934669 0 213 0 0
2018-12-14 00:55:35 GMT 37.361881 -121.934669 0 213 0 0
2018-12-14 00:55:10 GMT 37.361874 -121.934669 0 213 0 0
2018-12-14 00:54:42 GMT 37.361881 -121.934669 0 213 0 0
2018-12-14 00:54:30 GMT 37.361870 -121.934669 0 213 0 0
2018-12-14 00:54:21 GMT 37.361881 -121.934669 0 213 0 0
2018-12-14 00:54:10 GMT 37.361881 -121.934669 0 213 0 0
2018-12-14 00:53:35 GMT 37.361881 -121.934669 0 213 0 0
2018-12-14 00:53:25 GMT 37.361874 -121.934669 0 213 0 0
2018-12-14 00:52:54 GMT 37.361881 -121.934669 0 213 0 0
2018-12-14 00:52:20 GMT 37.361874 -121.934669 0 213 0 0
2018-12-14 00:52:00 GMT 37.361870 -121.934669 0 213 0 0
2018-12-14 00:51:49 GMT 37.361881 -121.934669 0 213 0 0
2018-12-14 00:51:19 GMT 37.361874 -121.934669 0 213 0 0
2018-12-14 00:51:08 GMT 37.361870 -121.934669 0 213 0 0
2018-12-14 00:50:58 GMT 37.361874 -121.934669 0 213 0 0
2018-12-14 00:50:44 GMT 37.361881 -121.934669 0 213 0 0
2018-12-14 00:50:38 GMT 37.361874 -121.934669 0 213 0 0
2018-12-14 00:50:24 GMT 37.361881 -121.934669 0 213 0 0
2018-12-14 00:50:19 GMT 37.361874 -121.934669 0 213 0 0
2018-12-14 00:49:48 GMT 37.361881 -121.934669 0 213 0 0
2018-12-14 00:49:13 GMT 37.361874 -121.934669 0 213 0 0
2018-12-14 00:48:53 GMT 37.361881 -121.934669 0 213 0 0
2018-12-14 00:48:44 GMT 37.361874 -121.934669 0 213 0 0
2018-12-14 00:48:33 GMT 37.361881 -121.934669 0 213 0 0
2018-12-14 00:48:18 GMT 37.361881 -121.934669 0 213 0 0
2018-12-14 00:47:58 GMT 37.361881 -121.934669 0 213 0 0
2018-12-14 00:47:18 GMT 37.361881 -121.934669 0 213 0 0
2018-12-14 00:47:04 GMT 37.361881 -121.934669 0 213 0 0
2018-12-14 00:46:52 GMT 37.361874 -121.934669 0 213 0 0
2018-12-14 00:46:44 GMT 37.361881 -121.934669 0 213 0 0
2018-12-14 00:46:03 GMT 37.361874 -121.934669 0 213 0 0
2018-12-14 00:45:43 GMT 37.361881 -121.934669 0 213 0 0
2018-12-14 00:45:34 GMT 37.361874 -121.934669 0 213 0 0
2018-12-14 00:45:23 GMT 37.361870 -121.934669 0 213 0 0
2018-12-14 00:44:22 GMT 37.361874 -121.934669 0 213 0 0
2018-12-14 00:44:19 GMT 37.361881 -121.934669 0 213 0 0
2018-12-14 00:44:07 GMT 37.361874 -121.934669 0 213 0 0
2018-12-14 00:43:48 GMT 37.361881 -121.934669 0 213 0 0
2018-12-14 00:43:29 GMT 37.361881 -121.934669 0 213 0 0
2018-12-14 00:42:55 GMT 37.361881 -121.934669 0 213 0 0
2018-12-14 00:42:39 GMT 37.361881 -121.934669 0 213 0 0
2018-12-14 00:42:23 GMT 37.361881 -121.934669 0 213 0 0
2018-12-14 00:42:10 GMT 37.361881 -121.934669 0 213 0 0
2018-12-14 00:42:03 GMT 37.361881 -121.934669 0 213 0 0
2018-12-14 00:41:53 GMT 37.361881 -121.934669 0 213 0 0
2018-12-14 00:41:23 GMT 37.361881 -121.934669 0 213 0 0
2018-12-14 00:41:18 GMT 37.361881 -121.934669 0 213 0 0
2018-12-14 00:40:49 GMT 37.361874 -121.934669 0 213 0 0
2018-12-14 00:40:40 GMT 37.361881 -121.934669 0 213 0 0
2018-12-14 00:40:29 GMT 37.361874 -121.934669 0 213 0 0
2018-12-14 00:40:14 GMT 37.361870 -121.934669 0 213 0 0
2018-12-14 00:40:08 GMT 37.361874 -121.934669 0 213 0 0
2018-12-14 00:39:44 GMT 37.361870 -121.934669 0 213 0 0
2018-12-14 00:39:18 GMT 37.361881 -121.934669 0 213 0 0
2018-12-14 00:38:38 GMT 37.361874 -121.934669 0 213 0 0
2018-12-14 00:38:33 GMT 37.361881 -121.934669 0 213 0 0
2018-12-14 00:38:22 GMT 37.361881 -121.934669 0 213 0 0
2018-12-14 00:38:04 GMT 37.361874 -121.934669 0 213 0 0
2018-12-14 00:37:43 GMT 37.361870 -121.934669 0 213 0 0
2018-12-14 00:37:34 GMT 37.361874 -121.934669 0 213 0 0
2018-12-14 00:37:14 GMT 37.361881 -121.934669 0 213 0 0
2018-12-14 00:36:59 GMT 37.361881 -121.934669 0 213 0 0
2018-12-14 00:36:42 GMT 37.361881 -121.934669 0 213 0 0
2018-12-14 00:36:02 GMT 37.361881 -121.934669 0 213 0 0
2018-12-14 00:35:33 GMT 37.361881 -121.934669 0 213 0 0
2018-12-14 00:35:22 GMT 37.361881 -121.934685 0 213 0 0
2018-12-14 00:35:02 GMT 37.361881 -121.934685 0 213 0 0
2018-12-14 00:34:48 GMT 37.361881 -121.934685 0 213 0 0
2018-12-14 00:34:33 GMT 37.361881 -121.934669 0 213 0 0
2018-12-14 00:34:28 GMT 37.361881 -121.934685 0 213 0 0
2018-12-14 00:33:59 GMT 37.361881 -121.934669 0 213 0 0
2018-12-14 00:33:48 GMT 37.361881 -121.934685 0 213 0 0
2018-12-14 00:33:39 GMT 37.361881 -121.934685 0 213 0 0
2018-12-14 00:33:14 GMT 37.361874 -121.934685 0 213 0 0
2018-12-14 00:32:54 GMT 37.361881 -121.934685 0 213 0 0
2018-12-14 00:32:28 GMT 37.361874 -121.934685 0 213 0 0
2018-12-14 00:32:13 GMT 37.361874 -121.934669 0 213 0 0
2018-12-14 00:32:03 GMT 37.361870 -121.934669 0 213 0 0
2018-12-14 00:31:43 GMT 37.361874 -121.934669 0 213 0 0
2018-12-14 00:31:28 GMT 37.361881 -121.934669 0 213 0 0
2018-12-14 00:30:47 GMT 37.361874 -121.934669 0 213 0 0
2018-12-14 00:30:32 GMT 37.361881 -121.934669 0 213 0 0
2018-12-14 00:30:18 GMT 37.361881 -121.934669 0 213 0 0
2018-12-14 00:29:13 GMT 37.361881 -121.934669 0 213 0 0
2018-12-14 00:28:52 GMT 37.361874 -121.934669 0 213 0 0
2018-12-14 00:28:36 GMT 37.361881 -121.934669 0 213 0 0
2018-12-14 00:28:26 GMT 37.361874 -121.934669 0 213 0 0
2018-12-14 00:28:21 GMT 37.361870 -121.934669 0 213 0 0
2018-12-14 00:28:06 GMT 37.361874 -121.934669 0 213 0 0
2018-12-14 00:28:01 GMT 37.361881 -121.934669 0 213 0 0
2018-12-14 00:27:41 GMT 37.361874 -121.934669 0 213 0 0
2018-12-14 00:27:26 GMT 37.361881 -121.934669 0 213 0 0
2018-12-14 00:27:17 GMT 37.361881 -121.934669 0 213 0 0
2018-12-14 00:27:06 GMT 37.361881 -121.934669 0 213 0 0
2018-12-14 00:26:37 GMT 37.361881 -121.934669 0 213 0 0
2018-12-14 00:26:17 GMT 37.361881 -121.934669 0 213 0 0
2018-12-14 00:26:01 GMT 37.361881 -121.934669 0 213 0 0
2018-12-14 00:25:51 GMT 37.361881 -121.934669 0 213 0 0
2018-12-14 00:25:31 GMT 37.361881 -121.934669 0 213 0 0
2018-12-14 00:25:22 GMT 37.361874 -121.934669 0 213 0 0
2018-12-14 00:24:51 GMT 37.361881 -121.934669 0 213 0 0
2018-12-14 00:24:06 GMT 37.361874 -121.934669 0 213 0 0
2018-12-14 00:23:27 GMT 37.361870 -121.934669 0 213 0 0
2018-12-14 00:22:57 GMT 37.361874 -121.934669 0 213 0 0
2018-12-14 00:22:40 GMT 37.361870 -121.934669 0 213 0 0
2018-12-14 00:22:21 GMT 37.361874 -121.934669 0 213 0 0
2018-12-14 00:22:11 GMT 37.361870 -121.934669 0 213 0 0
2018-12-14 00:21:42 GMT 37.361881 -121.934669 0 213 0 0
2018-12-14 00:21:26 GMT 37.361881 -121.934669 0 213 0 0
2018-12-14 00:21:18 GMT 37.361874 -121.934669 0 213 0 0
2018-12-14 00:20:27 GMT 37.361881 -121.934669 0 213 0 0
2018-12-14 00:20:17 GMT 37.361874 -121.934669 0 213 0 0
2018-12-14 00:19:47 GMT 37.361881 -121.934669 0 213 0 0
2018-12-14 00:19:42 GMT 37.361870 -121.934669 0 213 0 0
2018-12-14 00:19:23 GMT 37.361874 -121.934669 0 213 0 0
2018-12-14 00:19:02 GMT 37.361870 -121.934669 0 213 0 0
2018-12-14 00:18:42 GMT 37.361874 -121.934669 0 213 0 0
2018-12-14 00:18:17 GMT 37.361870 -121.934669 0 213 0 0
2018-12-14 00:17:47 GMT 37.361874 -121.934669 0 213 0 0
2018-12-14 00:17:16 GMT 37.361870 -121.934669 0 213 0 0
2018-12-14 00:16:55 GMT 37.361858 -121.934669 0 213 0 0
2018-12-14 00:16:47 GMT 37.361858 -121.934685 0 213 0 0
2018-12-14 00:16:10 GMT 37.361858 -121.934669 0 213 0 0
2018-12-14 00:15:46 GMT 37.361858 -121.934669 0 213 0 0
2018-12-14 00:15:41 GMT 37.361870 -121.934669 0 213 0 0
2018-12-14 00:15:31 GMT 37.361858 -121.934669 0 213 0 0
2018-12-14 00:15:11 GMT 37.361874 -121.934669 0 213 0 0
2018-12-14 00:15:01 GMT 37.361874 -121.934685 0 213 0 0
2018-12-14 00:14:42 GMT 37.361858 -121.934669 0 213 0 0
2018-12-14 00:14:02 GMT 37.361874 -121.934685 0 213 0 0
2018-12-14 00:13:35 GMT 37.361870 -121.934685 0 213 0 0
2018-12-14 00:13:27 GMT 37.361874 -121.934685 0 213 0 0
2018-12-14 00:13:16 GMT 37.361870 -121.934669 0 213 0 0
2018-12-14 00:12:51 GMT 37.361870 -121.934685 0 213 0 0
2018-12-14 00:12:41 GMT 37.361874 -121.934669 0 213 0 0
2018-12-14 00:12:21 GMT 37.361881 -121.934669 0 213 0 0
2018-12-14 00:12:01 GMT 37.361881 -121.934685 0 213 0 0
2018-12-14 00:11:42 GMT 37.361874 -121.934669 0 213 0 0
2018-12-14 00:11:36 GMT 37.361870 -121.934685 0 213 0 0
2018-12-14 00:11:22 GMT 37.361874 -121.934669 0 213 0 0
2018-12-14 00:11:16 GMT 37.361881 -121.934685 0 213 0 0
2018-12-14 00:11:07 GMT 37.361874 -121.934685 0 213 0 0
2018-12-14 00:10:56 GMT 37.361870 -121.934669 0 213 0 0
2018-12-14 00:10:31 GMT 37.361870 -121.934685 0 213 0 0
2018-12-14 00:10:27 GMT 37.361881 -121.934685 0 213 0 0
2018-12-14 00:10:10 GMT 37.361870 -121.934685 0 213 0 0
2018-12-14 00:10:05 GMT 37.361874 -121.934669 0 213 0 0
2018-12-14 00:09:55 GMT 37.361881 -121.934685 0 213 0 0
2018-12-14 00:09:40 GMT 37.361881 -121.934700 0 213 0 0
2018-12-14 00:09:20 GMT 37.361881 -121.934669 0 213 0 0
2018-12-14 00:09:10 GMT 37.361874 -121.934669 0 213 0 0
2018-12-14 00:09:00 GMT 37.361881 -121.934669 0 213 0 0
2018-12-14 00:08:50 GMT 37.361874 -121.934669 0 213 0 0
2018-12-14 00:08:40 GMT 37.361881 -121.934669 0 213 0 0
2018-12-14 00:08:14 GMT 37.361874 -121.934669 0 213 0 0
2018-12-14 00:08:10 GMT 37.361870 -121.934669 0 213 0 0
2018-12-14 00:07:34 GMT 37.361874 -121.934669 0 213 0 0
2018-12-14 00:07:25 GMT 37.361870 -121.934669 0 213 0 0
2018-12-14 00:06:40 GMT 37.361874 -121.934669 0 213 0 0
2018-12-14 00:06:34 GMT 37.361870 -121.934669 0 213 0 0
2018-12-14 00:06:24 GMT 37.361874 -121.934669 0 213 0 0
2018-12-14 00:05:19 GMT 37.361874 -121.934669 0 213 0 0
2018-12-14 00:05:09 GMT 37.361870 -121.934669 0 213 0 0
2018-12-14 00:04:49 GMT 37.361874 -121.934669 0 213 0 0
2018-12-14 00:04:24 GMT 37.361870 -121.934669 0 213 0 0
2018-12-14 00:04:09 GMT 37.361874 -121.934669 0 213 0 0
2018-12-14 00:03:34 GMT 37.361870 -121.934669 0 213 0 0
2018-12-14 00:03:20 GMT 37.361874 -121.934669 0 213 0 0
2018-12-14 00:03:14 GMT 37.361870 -121.934669 0 213 0 0
2018-12-14 00:03:05 GMT 37.361874 -121.934669 0 213 0 0
2018-12-14 00:02:54 GMT 37.361870 -121.934669 0 213 0 0
2018-12-14 00:02:24 GMT 37.361874 -121.934669 0 213 0 0
2018-12-14 00:01:48 GMT 37.361870 -121.934669 0 213 0 0
2018-12-14 00:01:30 GMT 37.361874 -121.934669 0 213 0 0
2018-12-14 00:01:20 GMT 37.361916 -121.934608 0 213 3 0
2018-12-14 00:01:16 GMT 37.361916 -121.934608 0 210 6 0
2018-12-14 00:01:08 GMT 37.362202 -121.934509 0 140 11 0
2018-12-14 00:01:05 GMT 37.362301 -121.934601 0 126 14 0
2018-12-14 00:00:55 GMT 37.362850 -121.935181 0 126 19 0
2018-12-14 00:00:48 GMT 37.363338 -121.935715 0 126 16 0
2018-12-14 00:00:42 GMT 37.363617 -121.936020 0 126 14 0
2018-12-14 00:00:26 GMT 37.364285 -121.936661 0 151 10 0
2018-12-14 00:00:22 GMT 37.364456 -121.936684 0 171 10 0
2018-12-14 00:00:11 GMT 37.364956 -121.936661 0 132 10 0
2018-12-14 00:00:00 GMT 37.365330 -121.936989 0 160 9 0
2018-12-13 23:59:51 GMT 37.365772 -121.936646 0 216 14 0
2018-12-13 23:59:40 GMT 37.366188 -121.936035 0 213 16 0
2018-12-13 23:59:33 GMT 37.366470 -121.935646 0 216 7 0
2018-12-13 23:59:29 GMT 37.366528 -121.935562 0 216 4 0
2018-12-13 23:59:23 GMT 37.366585 -121.935478 0 216 9 0
2018-12-13 23:59:20 GMT 37.366676 -121.935349 0 216 12 0
2018-12-13 23:59:09 GMT 37.366768 -121.934509 0 281 23 0
2018-12-13 23:59:01 GMT 37.366074 -121.933617 0 303 37 0
2018-12-13 23:58:58 GMT 37.365704 -121.933197 0 303 42 0
2018-12-13 23:58:53 GMT 37.364983 -121.932404 0 303 52 0
2018-12-13 23:58:46 GMT 37.363270 -121.930542 0 306 65 0
2018-12-13 23:58:35 GMT 37.360302 -121.927277 0 303 105 0
2018-12-13 23:58:27 GMT 37.357224 -121.923988 -125 320 109 -576
2018-12-13 23:58:22 GMT 37.355255 -121.921829 -75 319 113 -704
2018-12-13 23:58:19 GMT 37.354027 -121.920418 -25 319 114 -704
2018-12-13 23:58:14 GMT 37.351776 -121.917969 25 319 113 -512
2018-12-13 23:58:11 GMT 37.351234 -121.917313 25 319 112 -512
2018-12-13 23:58:07 GMT 37.347649 -121.913429 200 320 111 -512
2018-12-13 23:58:03 GMT 37.347649 -121.913429 125 321 110 -448
2018-12-13 23:57:58 GMT 37.345642 -121.911308 150 320 111 -512
2018-12-13 23:57:52 GMT 37.343399 -121.908913 225 319 111 -512
2018-12-13 23:57:49 GMT 37.342072 -121.907394 225 319 111 -576
2018-12-13 23:57:45 GMT 37.340469 -121.905640 275 319 112 -576
2018-12-13 23:57:41 GMT 37.337814 -121.902718 350 319 114 -576
2018-12-13 23:57:34 GMT 37.336151 -121.900833 425 319 118 -640
2018-12-13 23:57:29 GMT 37.334473 -121.899040 425 319 121 -640
2018-12-13 23:57:26 GMT 37.332916 -121.897285 450 319 122 -704
2018-12-13 23:57:22 GMT 37.331078 -121.895279 500 319 126 -704
2018-12-13 23:57:19 GMT 37.330032 -121.894127 550 319 127 -768
2018-12-13 23:57:16 GMT 37.328568 -121.892548 575 319 130 -768
2018-12-13 23:57:12 GMT 37.326656 -121.890388 625 319 131 -768
2018-12-13 23:57:06 GMT 37.324421 -121.887939 675 319 136 -832
2018-12-13 23:57:02 GMT 37.322159 -121.885483 750 320 140 -832
2018-12-13 23:56:57 GMT 37.319504 -121.882614 825 320 143 -832
2018-12-13 23:56:54 GMT 37.317902 -121.880859 875 320 145 -832
2018-12-13 23:56:50 GMT 37.316414 -121.879280 900 320 146 -832
2018-12-13 23:56:45 GMT 37.313553 -121.876244 975 320 148 -832
2018-12-13 23:56:42 GMT 37.311996 -121.874550 1,025 320 150 -896
2018-12-13 23:56:39 GMT 37.310780 -121.873245 1,050 320 150 -896
2018-12-13 23:56:34 GMT 37.307968 -121.870171 1,125 319 151 -896
2018-12-13 23:56:29 GMT 37.305099 -121.867043 1,225 319 152 -768
2018-12-13 23:56:26 GMT 37.303192 -121.864891 1,275 319 152 -768
2018-12-13 23:56:23 GMT 37.301605 -121.863098 1,275 319 152 -768
2018-12-13 23:56:20 GMT 37.299934 -121.861191 1,350 318 153 -832
2018-12-13 23:56:14 GMT 37.297211 -121.858131 1,400 319 154 -896
2018-12-13 23:56:09 GMT 37.294693 -121.855324 1,475 319 155 -832
2018-12-13 23:56:03 GMT 37.291489 -121.851761 1,575 319 155 -832
2018-12-13 23:55:59 GMT 37.288624 -121.848587 1,625 320 155 -896
2018-12-13 23:55:54 GMT 37.286060 -121.845840 1,700 320 155 -832
2018-12-13 23:55:51 GMT 37.284664 -121.844292 1,700 320 155 -832
2018-12-13 23:55:47 GMT 37.282654 -121.842178 1,800 320 155 -832
2018-12-13 23:55:43 GMT 37.278351 -121.837616 1,850 320 155 -832
2018-12-13 23:55:40 GMT 37.278351 -121.837616 1,900 321 156 -896
2018-12-13 23:55:34 GMT 37.275261 -121.834435 1,975 321 156 -896
2018-12-13 23:55:30 GMT 37.272903 -121.831947 2,000 321 156 -896
2018-12-13 23:55:27 GMT 37.271210 -121.830200 2,075 320 156 -896
2018-12-13 23:55:20 GMT 37.268093 -121.826912 2,175 320 157 -896
2018-12-13 23:55:15 GMT 37.264618 -121.823067 2,250 318 157 -896
2018-12-13 23:55:12 GMT 37.262924 -121.821182 2,325 317 157 -832
2018-12-13 23:55:09 GMT 37.261276 -121.819267 2,350 317 157 -768
2018-12-13 23:55:06 GMT 37.259808 -121.817543 2,500 315 161 -832
2018-12-13 23:55:01 GMT 37.256920 -121.813957 2,450 315 159 -896
2018-12-13 23:54:58 GMT 37.253521 -121.809715 2,500 315 161 -832
2018-12-13 23:54:54 GMT 37.253521 -121.809715 2,550 315 161 -832
2018-12-13 23:54:48 GMT 37.250061 -121.805359 2,650 315 166 -768
2018-12-13 23:54:45 GMT 37.248680 -121.803627 2,675 315 164 -704
2018-12-13 23:54:42 GMT 37.247131 -121.801620 2,700 315 162 -576
2018-12-13 23:54:38 GMT 37.245281 -121.799332 2,725 315 161 -384
2018-12-13 23:54:32 GMT 37.241882 -121.795273 2,775 319 157 -320
2018-12-13 23:54:27 GMT 37.239029 -121.792274 2,800 325 160 -960
2018-12-13 23:54:24 GMT 37.237198 -121.790695 2,875 331 162 -1728
2018-12-13 23:54:21 GMT 37.235184 -121.789291 2,925 336 164 -2048
2018-12-13 23:54:16 GMT 37.232025 -121.787476 3,075 337 163 -2048
2018-12-13 23:54:12 GMT 37.225708 -121.784386 3,300 343 161 -2048
2018-12-13 23:54:08 GMT 37.225708 -121.784386 3,375 344 161 -2048
2018-12-13 23:54:05 GMT 37.224007 -121.783806 3,450 348 161 -2112
2018-12-13 23:54:02 GMT 37.222099 -121.783325 3,575 354 160 -2176
2018-12-13 23:53:59 GMT 37.220535 -121.783096 3,725 0 158 -2112
2018-12-13 23:53:55 GMT 37.217331 -121.783096 3,775 3 155 -1920
2018-12-13 23:53:51 GMT 37.214279 -121.783325 4,175 31 150 -1408
2018-12-13 23:53:48 GMT 37.211533 -121.783508 4,025 2 153 -1408
2018-12-13 23:53:44 GMT 37.209484 -121.783623 4,075 2 153 -1344
2018-12-13 23:53:41 GMT 37.206802 -121.783859 4,175 4 154 -1344
2018-12-13 23:53:37 GMT 37.204689 -121.784042 4,225 7 154 -1408
2018-12-13 23:53:34 GMT 37.201721 -121.784737 4,275 10 154 -1472
2018-12-13 23:53:29 GMT 37.199242 -121.785774 4,450 28 150 -1408
2018-12-13 23:53:26 GMT 37.196548 -121.787659 4,525 31 149 -1408
2018-12-13 23:53:23 GMT 37.194633 -121.789124 4,600 32 150 -1344
2018-12-13 23:53:19 GMT 37.192863 -121.790550 4,650 34 148 -1344
2018-12-13 23:53:16 GMT 37.190598 -121.792564 4,700 35 149 -1344
2018-12-13 23:53:13 GMT 37.189224 -121.793968 4,825 43 147 -1472
2018-12-13 23:53:09 GMT 37.187531 -121.796303 5,000 54 144 -1472
2018-12-13 23:53:05 GMT 37.186020 -121.799271 5,050 61 141 -1280
2018-12-13 23:53:01 GMT 37.184952 -121.801781 5,100 62 140 -1152
2018-12-13 23:52:57 GMT 37.183960 -121.804131 5,150 62 140 -1024
2018-12-13 23:52:54 GMT 37.181740 -121.809662 5,250 63 142 -1024
2018-12-13 23:52:50 GMT 37.181740 -121.809662 5,300 63 143 -1024
2018-12-13 23:52:47 GMT 37.180855 -121.811867 5,325 63 142 -1024
2018-12-13 23:52:44 GMT 37.179970 -121.814079 5,375 63 144 -1024
2018-12-13 23:52:40 GMT 37.178478 -121.817841 5,450 63 144 -1024
2018-12-13 23:52:37 GMT 37.177597 -121.820145 5,775 63 173 -64
2018-12-13 23:52:32 GMT 37.176384 -121.823097 5,600 63 145 -1024
2018-12-13 23:52:29 GMT 37.175674 -121.824997 5,650 63 147 -960
2018-12-13 23:52:26 GMT 37.174664 -121.827629 5,675 63 147 -960
2018-12-13 23:52:21 GMT 37.173248 -121.831131 5,750 63 149 -448
2018-12-13 23:52:18 GMT 37.172150 -121.833900 5,775 63 151 -128
2018-12-13 23:52:15 GMT 37.171219 -121.836288 5,775 63 156 128
2018-12-13 23:52:09 GMT 37.169029 -121.841843 5,775 63 169 -64
2018-12-13 23:52:06 GMT 37.167938 -121.844574 5,775 63 169 -64
2018-12-13 23:52:01 GMT 37.165863 -121.849960 5,775 63 177 -64
2018-12-13 23:51:57 GMT 37.164642 -121.853050 5,800 63 181 64
2018-12-13 23:51:53 GMT 37.163269 -121.856552 5,775 63 186 64
2018-12-13 23:51:47 GMT 37.160934 -121.862396 5,775 63 192 -64
2018-12-13 23:51:44 GMT 37.159698 -121.865608 5,775 63 197 -64
2018-12-13 23:51:38 GMT 37.157913 -121.870171 5,775 63 201 -64
2018-12-13 23:51:33 GMT 37.155155 -121.877190 5,800 63 211 0
2018-12-13 23:51:29 GMT 37.153702 -121.880920 5,800 112 212 -64
2018-12-13 23:51:25 GMT 37.151825 -121.885658 5,800 63 211 0
2018-12-13 23:51:22 GMT 37.150269 -121.889687 5,800 64 212 64
2018-12-13 23:51:17 GMT 37.148483 -121.894478 5,800 66 212 128
2018-12-13 23:51:14 GMT 37.147381 -121.897667 5,800 69 211 128
2018-12-13 23:51:10 GMT 37.145691 -121.905289 5,775 82 212 0
2018-12-13 23:51:03 GMT 37.145554 -121.909790 5,775 91 212 0
2018-12-13 23:51:00 GMT 37.146286 -121.915047 5,775 106 212 -64
2018-12-13 23:50:57 GMT 37.146927 -121.917442 5,775 115 212 -64
2018-12-13 23:50:52 GMT 37.149353 -121.922935 5,800 123 212 0
2018-12-13 23:50:47 GMT 37.152512 -121.928841 5,800 124 212 0
2018-12-13 23:50:41 GMT 37.155167 -121.933746 5,800 124 212 0
2018-12-13 23:50:38 GMT 37.158783 -121.940468 5,775 124 212 0
2018-12-13 23:50:32 GMT 37.160694 -121.944000 5,775 123 213 0
2018-12-13 23:50:29 GMT 37.162140 -121.946632 5,775 123 213 0
2018-12-13 23:50:26 GMT 37.164322 -121.950699 5,775 123 213 0
2018-12-13 23:50:21 GMT 37.166794 -121.955315 5,800 124 213 0
2018-12-13 23:50:18 GMT 37.168701 -121.958809 5,800 124 213 0
2018-12-13 23:50:15 GMT 37.172653 -121.966064 5,800 124 213 0
2018-12-13 23:50:08 GMT 37.174072 -121.968697 5,800 124 213 0
2018-12-13 23:50:05 GMT 37.176010 -121.972244 5,800 124 213 0
2018-12-13 23:49:59 GMT 37.178513 -121.976936 5,800 124 213 0
2018-12-13 23:49:56 GMT 37.180527 -121.980614 5,800 124 213 0
2018-12-13 23:49:53 GMT 37.182175 -121.983658 5,800 124 212 0
2018-12-13 23:49:50 GMT 37.183273 -121.985619 5,800 124 211 0
2018-12-13 23:49:46 GMT 37.186253 -121.991112 5,800 124 210 0
2018-12-13 23:49:43 GMT 37.187393 -121.993301 5,800 124 210 0
2018-12-13 23:49:38 GMT 37.190735 -121.999374 5,800 124 208 64
2018-12-13 23:49:35 GMT 37.192120 -122.001923 5,800 124 207 64
2018-12-13 23:49:32 GMT 37.193253 -122.003937 5,775 124 206 0
2018-12-13 23:49:26 GMT 37.196869 -122.010651 5,775 124 205 -64
2018-12-13 23:49:23 GMT 37.200394 -122.017082 5,800 124 208 -320
2018-12-13 23:49:16 GMT 37.202267 -122.020546 5,800 124 209 -448
2018-12-13 23:49:10 GMT 37.205612 -122.026726 5,900 124 211 -832
2018-12-13 23:49:06 GMT 37.207901 -122.030991 5,950 123 211 -1024
2018-12-13 23:49:00 GMT 37.210648 -122.036018 6,000 123 211 -1024
2018-12-13 23:48:55 GMT 37.213440 -122.041267 6,075 123 209 -1024
2018-12-13 23:48:52 GMT 37.215179 -122.044434 6,125 123 209 -1024
2018-12-13 23:48:49 GMT 37.216930 -122.047714 6,175 123 209 -1024
2018-12-13 23:48:42 GMT 37.221085 -122.055473 6,300 123 207 -1024
2018-12-13 23:48:39 GMT 37.222145 -122.057510 6,350 123 207 -1024
2018-12-13 23:48:34 GMT 37.225079 -122.063004 6,475 123 206 -1024
2018-12-13 23:48:31 GMT 37.228802 -122.069984 6,550 123 207 -1024
2018-12-13 23:48:24 GMT 37.230377 -122.072952 6,625 123 209 -960
2018-12-13 23:48:21 GMT 37.231476 -122.075050 6,650 123 208 -1024
2018-12-13 23:48:18 GMT 37.236576 -122.084618 6,750 123 209 -576
2018-12-13 23:48:13 GMT 37.238159 -122.087601 6,775 123 213 -64
2018-12-13 23:48:10 GMT 37.238159 -122.087601 6,775 123 216 -64
2018-12-13 23:48:07 GMT 37.239807 -122.090652 6,775 123 218 -64
2018-12-13 23:48:02 GMT 37.242443 -122.095665 6,800 123 233 0
2018-12-13 23:47:59 GMT 37.244209 -122.098885 6,800 123 229 0
2018-12-13 23:47:56 GMT 37.246033 -122.102287 6,800 123 230 0
2018-12-13 23:47:51 GMT 37.249054 -122.108009 6,800 123 233 0
2018-12-13 23:47:47 GMT 37.250633 -122.110886 6,800 123 233 0
2018-12-13 23:47:43 GMT 37.254173 -122.117516 6,800 123 233 0
2018-12-13 23:47:40 GMT 37.255600 -122.120171 6,800 123 233 0
2018-12-13 23:47:34 GMT 37.259293 -122.127068 6,800 123 233 0
2018-12-13 23:47:27 GMT 37.263702 -122.135246 6,775 152 232 -64
2018-12-13 23:47:23 GMT 37.266037 -122.139626 6,800 123 233 0
2018-12-13 23:47:19 GMT 37.268417 -122.144012 6,800 123 233 0
2018-12-13 23:47:16 GMT 37.270340 -122.147629 6,800 123 233 0
2018-12-13 23:47:11 GMT 37.272423 -122.151489 6,800 123 233 0
2018-12-13 23:47:08 GMT 37.275009 -122.156395 6,800 123 233 0
2018-12-13 23:47:05 GMT 37.276566 -122.159317 6,800 123 233 0
2018-12-13 23:47:01 GMT 37.279266 -122.164406 6,800 123 234 0
2018-12-13 23:46:57 GMT 37.283314 -122.172028 6,800 123 233 0
2018-12-13 23:46:54 GMT 37.283314 -122.172028 6,800 123 233 0
2018-12-13 23:46:50 GMT 37.285412 -122.175972 6,800 123 232 0
2018-12-13 23:46:46 GMT 37.288250 -122.181282 6,800 123 233 0
2018-12-13 23:46:43 GMT 37.289886 -122.184387 6,800 123 232 0
2018-12-13 23:46:39 GMT 37.292625 -122.189583 6,800 123 232 0
2018-12-13 23:46:35 GMT 37.294464 -122.193039 6,800 123 232 64
2018-12-13 23:46:32 GMT 37.296490 -122.196808 6,800 124 232 128
2018-12-13 23:46:28 GMT 37.298218 -122.199989 6,775 126 233 128
2018-12-13 23:46:24 GMT 37.301239 -122.204613 6,775 132 233 0
2018-12-13 23:46:21 GMT 37.304123 -122.207970 6,775 148 233 -128
2018-12-13 23:46:18 GMT 37.306274 -122.209869 6,775 148 233 -64
2018-12-13 23:46:14 GMT 37.310577 -122.212616 6,800 157 235 0
2018-12-13 23:46:11 GMT 37.313187 -122.213959 6,800 156 232 0
2018-12-13 23:46:08 GMT 37.317032 -122.216003 6,800 157 232 0
2018-12-13 23:46:03 GMT 37.321953 -122.218597 6,800 157 232 0
2018-12-13 23:45:59 GMT 37.325817 -122.220634 6,800 157 232 0
2018-12-13 23:45:56 GMT 37.328423 -122.221947 6,775 157 232 0
2018-12-13 23:45:52 GMT 37.332661 -122.224213 6,775 157 232 0
2018-12-13 23:45:49 GMT 37.334793 -122.225357 6,775 157 232 0
2018-12-13 23:45:46 GMT 37.341431 -122.228806 6,775 157 232 0
2018-12-13 23:45:43 GMT 37.341431 -122.228806 6,800 157 235 0
2018-12-13 23:45:40 GMT 37.343903 -122.230148 6,800 157 232 0
2018-12-13 23:45:35 GMT 37.349396 -122.233009 6,775 157 233 0
2018-12-13 23:45:31 GMT 37.355286 -122.236099 6,775 157 237 0
2018-12-13 23:45:23 GMT 37.360062 -122.238617 6,775 157 235 64
2018-12-13 23:45:19 GMT 37.365620 -122.241531 6,775 157 235 64
2018-12-13 23:45:13 GMT 37.371017 -122.244392 6,775 157 236 0
2018-12-13 23:45:08 GMT 37.376724 -122.247383 6,775 157 235 0
2018-12-13 23:45:00 GMT 37.384705 -122.251617 6,775 157 247 -128
2018-12-13 23:44:57 GMT 37.388012 -122.253349 6,775 157 252 -256
2018-12-13 23:44:51 GMT 37.394394 -122.256737 6,825 157 262 -576
2018-12-13 23:44:48 GMT 37.398102 -122.258667 6,850 157 265 -768
2018-12-13 23:44:39 GMT 37.407532 -122.263634 6,950 157 275 -1152
2018-12-13 23:44:36 GMT 37.411926 -122.265968 7,025 157 279 -1664
2018-12-13 23:44:29 GMT 37.419937 -122.270180 7,250 157 278 -1984
2018-12-13 23:44:26 GMT 37.423763 -122.272163 7,450 157 276 -1984
2018-12-13 23:44:23 GMT 37.428085 -122.274445 7,450 157 276 -1984
2018-12-13 23:44:16 GMT 37.433990 -122.277542 7,600 157 274 -1984
2018-12-13 23:44:13 GMT 37.438065 -122.279701 7,725 157 273 -1984
2018-12-13 23:44:07 GMT 37.446075 -122.283913 8,000 157 270 -2048
2018-12-13 23:44:03 GMT 37.450836 -122.286423 8,050 157 270 -2048
2018-12-13 23:43:57 GMT 37.457653 -122.290016 8,350 157 268 -1984
2018-12-13 23:43:54 GMT 37.461044 -122.291801 8,400 157 268 -2048
2018-12-13 23:43:47 GMT 37.468594 -122.295746 8,750 157 269 -2048
2018-12-13 23:43:44 GMT 37.470875 -122.296997 8,750 157 269 -2048
2018-12-13 23:43:41 GMT 37.474869 -122.299103 8,750 157 272 -2048
2018-12-13 23:43:34 GMT 37.483910 -122.303864 9,050 157 275 -2048
2018-12-13 23:43:30 GMT 37.488693 -122.306351 9,150 157 276 -2048
2018-12-13 23:43:26 GMT 37.493870 -122.309120 9,350 157 280 -2048
2018-12-13 23:43:23 GMT 37.497391 -122.310966 9,450 157 281 -1984
2018-12-13 23:43:20 GMT 37.499222 -122.311897 9,450 157 282 -1984
2018-12-13 23:43:14 GMT 37.507874 -122.316521 9,725 157 288 -2048
2018-12-13 23:43:10 GMT 37.511887 -122.318611 9,800 157 288 -1984
2018-12-13 23:43:07 GMT 37.516159 -122.320900 9,950 157 292 -1984
2018-12-13 23:43:04 GMT 37.520370 -122.323120 10,100 156 292 -1984
2018-12-13 23:43:01 GMT 37.524082 -122.325058 10,150 156 292 -1984
2018-12-13 23:42:58 GMT 37.526733 -122.326508 10,225 156 293 -1984
2018-12-13 23:42:53 GMT 37.539074 -122.333122 10,525 156 294 -1984
2018-12-13 23:42:49 GMT 37.539074 -122.333122 10,550 156 293 -1984
2018-12-13 23:42:45 GMT 37.543587 -122.335571 10,675 156 294 -1984
2018-12-13 23:42:42 GMT 37.548336 -122.338135 10,900 156 294 -1984
2018-12-13 23:42:37 GMT 37.552551 -122.340416 10,900 156 295 -1984
2018-12-13 23:42:33 GMT 37.560253 -122.344589 11,125 156 295 -1984
2018-12-13 23:42:29 GMT 37.564865 -122.347084 11,250 156 295 -1984
2018-12-13 23:42:26 GMT 37.567612 -122.348541 11,325 156 293 -2048
2018-12-13 23:42:22 GMT 37.572777 -122.351334 11,450 156 292 -1984
2018-12-13 23:42:16 GMT 37.580597 -122.355515 11,650 157 290 -1152
2018-12-13 23:42:12 GMT 37.585648 -122.358124 11,750 157 291 -576
2018-12-13 23:42:09 GMT 37.589348 -122.360046 11,775 158 292 -128
2018-12-13 23:42:05 GMT 37.593018 -122.361923 11,800 158 291 0
2018-12-13 23:42:00 GMT 37.599838 -122.365196 11,800 159 292 -64
2018-12-13 23:41:57 GMT 37.604481 -122.367332 11,800 151 293 -512
2018-12-13 23:41:54 GMT 37.608250 -122.369247 11,800 154 293 -448
2018-12-13 23:41:50 GMT 37.613251 -122.372093 11,800 151 293 -512
2018-12-13 23:41:44 GMT 37.620529 -122.377701 11,875 143 292 -960
2018-12-13 23:41:40 GMT 37.623844 -122.380890 11,975 140 297 -1344
2018-12-13 23:41:37 GMT 37.627579 -122.384773 12,000 140 296 -1344
2018-12-13 23:41:33 GMT 37.630737 -122.388107 12,050 139 296 -1344
2018-12-13 23:41:30 GMT 37.638275 -122.396057 12,425 140 303 -1344
2018-12-13 23:41:27 GMT 37.638275 -122.396057 12,225 140 298 -1344
2018-12-13 23:41:24 GMT 37.644886 -122.402985 12,300 140 301 -1344
2018-12-13 23:41:21 GMT 37.644886 -122.402985 12,350 140 301 -1344
2018-12-13 23:41:18 GMT 37.646301 -122.404526 12,425 140 303 -1344
2018-12-13 23:41:15 GMT 37.650970 -122.409378 12,500 140 304 -1408
2018-12-13 23:41:12 GMT 37.654385 -122.412949 12,550 140 305 -1408
2018-12-13 23:41:07 GMT 37.660389 -122.419220 12,750 140 309 -1408
2018-12-13 23:41:04 GMT 37.663368 -122.422325 12,750 140 309 -1408
2018-12-13 23:41:01 GMT 37.666168 -122.425270 12,800 140 311 -1408
2018-12-13 23:40:58 GMT 37.669930 -122.429131 12,875 140 313 -1472
2018-12-13 23:40:55 GMT 37.673264 -122.432579 12,950 140 318 -1472
2018-12-13 23:40:51 GMT 37.677986 -122.437492 13,000 140 321 -1536
2018-12-13 23:40:48 GMT 37.680359 -122.439941 13,075 140 322 -1536
2018-12-13 23:40:45 GMT 37.683662 -122.443405 13,150 140 328 -1536
2018-12-13 23:40:42 GMT 37.688187 -122.448120 13,275 140 333 -1600
2018-12-13 23:40:39 GMT 37.691486 -122.451584 13,350 139 336 -1664
2018-12-13 23:40:35 GMT 37.701168 -122.462029 13,525 139 344 -1600
2018-12-13 23:40:31 GMT 37.701168 -122.462029 13,900 144 351 -1600
2018-12-13 23:40:28 GMT 37.704254 -122.465477 13,650 137 349 -1600
2018-12-13 23:40:24 GMT 37.712311 -122.474709 13,800 138 350 -1536
2018-12-13 23:40:17 GMT 37.718216 -122.481079 13,900 141 351 -1536
2018-12-13 23:40:14 GMT 37.726494 -122.488182 14,100 151 352 -1600
2018-12-13 23:40:11 GMT 37.726494 -122.488182 14,100 151 352 -1600
2018-12-13 23:40:05 GMT 37.734219 -122.493080 14,225 157 352 -1600
2018-12-13 23:40:01 GMT 37.741058 -122.496040 14,375 166 352 -1664
2018-12-13 23:39:58 GMT 37.744972 -122.497261 14,425 169 353 -1728
2018-12-13 23:39:55 GMT 37.750607 -122.498451 14,525 172 353 -1664
2018-12-13 23:39:52 GMT 37.756210 -122.499191 14,625 175 353 -1664
2018-12-13 23:39:48 GMT 37.760468 -122.499603 14,675 176 354 -1600
2018-12-13 23:39:45 GMT 37.767014 -122.500069 14,800 176 355 -1664
2018-12-13 23:39:41 GMT 37.774429 -122.500656 14,950 176 356 -1600
2018-12-13 23:39:35 GMT 37.784077 -122.501320 15,100 176 357 -1664
2018-12-13 23:39:32 GMT 37.789200 -122.501740 15,100 176 357 -1664
2018-12-13 23:39:29 GMT 37.793480 -122.502037 15,225 176 358 -1664
2018-12-13 23:39:21 GMT 37.806747 -122.502991 15,450 176 358 -1664
2018-12-13 23:39:18 GMT 37.810959 -122.503342 15,575 176 359 -1664
2018-12-13 23:39:15 GMT 37.815948 -122.503693 15,575 176 359 -1664
2018-12-13 23:39:12 GMT 37.828903 -122.504631 15,750 176 359 -1664
2018-12-13 23:39:08 GMT 37.828903 -122.504631 15,825 176 359 -1600
2018-12-13 23:39:04 GMT 37.835007 -122.505081 15,950 176 359 -1600
2018-12-13 23:39:01 GMT 37.840027 -122.505447 16,000 176 357 -1600
2018-12-13 23:38:55 GMT 37.847668 -122.505974 16,450 176 346 -1600
2018-12-13 23:38:52 GMT 37.854446 -122.506500 16,175 176 350 -1600
2018-12-13 23:38:49 GMT 37.857395 -122.506691 16,275 176 347 -1600
2018-12-13 23:38:45 GMT 37.864471 -122.507233 16,400 176 346 -1600
2018-12-13 23:38:41 GMT 37.872807 -122.507828 16,525 176 346 -1600
2018-12-13 23:38:35 GMT 37.882908 -122.508606 16,700 176 346 -1600
2018-12-13 23:38:30 GMT 37.888733 -122.509010 16,850 176 347 -1600
2018-12-13 23:38:27 GMT 37.894917 -122.509438 16,900 176 347 -1600
2018-12-13 23:38:24 GMT 37.899479 -122.509796 16,975 176 347 -1600
2018-12-13 23:38:19 GMT 37.907486 -122.510399 17,100 176 348 -1600
2018-12-13 23:38:16 GMT 37.911621 -122.510704 17,225 176 348 -1600
2018-12-13 23:38:13 GMT 37.917496 -122.511108 17,250 176 348 -1536
2018-12-13 23:38:08 GMT 37.925224 -122.511711 17,350 176 349 -1600
2018-12-13 23:38:05 GMT 37.927830 -122.511887 17,800 176 350 -1600
2018-12-13 23:38:02 GMT 37.934372 -122.512405 17,525 176 350 -1600
2018-12-13 23:37:57 GMT 37.942978 -122.513046 17,625 176 351 -1600
2018-12-13 23:37:54 GMT 37.946228 -122.513336 17,725 176 353 -1600
2018-12-13 23:37:51 GMT 37.951714 -122.513741 17,825 176 354 -1600
2018-12-13 23:37:47 GMT 37.959251 -122.514336 17,900 176 371 -2240
2018-12-13 23:37:44 GMT 37.964127 -122.514740 18,075 176 358 -1600
2018-12-13 23:37:41 GMT 37.970009 -122.515228 18,125 176 359 -1600
2018-12-13 23:37:35 GMT 37.979095 -122.515968 18,250 176 362 -1664
2018-12-13 23:37:32 GMT 37.984203 -122.516426 18,350 176 363 -1536
2018-12-13 23:37:25 GMT 38.002827 -122.517982 18,900 176 371 -2240
2018-12-13 23:37:21 GMT 38.002827 -122.517982 18,625 176 370 -2048
2018-12-13 23:37:18 GMT 38.008255 -122.518417 18,725 176 371 -2240
2018-12-13 23:37:14 GMT 38.014137 -122.518936 18,850 176 371 -2240
2018-12-13 23:37:11 GMT 38.020111 -122.519417 19,025 176 372 -2304
2018-12-13 23:37:08 GMT 38.024597 -122.519821 19,075 176 373 -2304
2018-12-13 23:37:03 GMT 38.034943 -122.520645 19,600 176 374 -2496
2018-12-13 23:36:59 GMT 38.041416 -122.521088 19,525 177 374 -2112
2018-12-13 23:36:56 GMT 38.046890 -122.521400 19,625 177 373 -1792
2018-12-13 23:36:53 GMT 38.052124 -122.521622 19,725 178 373 -1728
2018-12-13 23:36:50 GMT 38.056641 -122.521797 19,725 178 373 -1728
2018-12-13 23:36:47 GMT 38.060165 -122.521927 19,800 178 373 -1728
2018-12-13 23:36:44 GMT 38.064651 -122.522041 19,900 178 373 -1664
2018-12-13 23:36:41 GMT 38.076332 -122.522453 20,025 178 374 -1664
2018-12-13 23:36:35 GMT 38.079964 -122.522575 20,150 178 374 -1728
2018-12-13 23:36:31 GMT 38.089691 -122.522934 20,275 178 374 -1728
2018-12-13 23:36:26 GMT 38.097198 -122.523155 20,400 178 374 -1728
2018-12-13 23:36:23 GMT 38.104404 -122.523415 20,550 178 374 -1728
2018-12-13 23:36:20 GMT 38.108643 -122.523560 20,725 178 377 -2176
2018-12-13 23:36:16 GMT 38.115234 -122.523743 20,775 178 374 -1728
2018-12-13 23:36:13 GMT 38.121094 -122.523972 20,850 178 374 -1728
2018-12-13 23:36:09 GMT 38.128052 -122.524147 20,925 178 374 -1728
2018-12-13 23:36:05 GMT 38.134460 -122.524384 21,025 178 374 -1728
2018-12-13 23:36:01 GMT 38.140945 -122.524605 21,150 178 374 -1728
2018-12-13 23:35:58 GMT 38.146408 -122.524734 21,225 178 374 -1664
2018-12-13 23:35:54 GMT 38.153423 -122.524963 21,350 178 374 -1664
2018-12-13 23:35:50 GMT 38.160870 -122.525208 21,425 178 374 -1664
2018-12-13 23:35:46 GMT 38.167740 -122.525436 21,575 178 376 -1472
2018-12-13 23:35:42 GMT 38.174603 -122.525681 21,650 178 382 -2240
2018-12-13 23:35:39 GMT 38.178360 -122.525787 21,775 178 377 -1984
2018-12-13 23:35:36 GMT 38.183395 -122.525955 21,800 178 377 -2176
2018-12-13 23:35:32 GMT 38.197460 -122.526398 22,075 178 377 -2240
2018-12-13 23:35:25 GMT 38.203560 -122.526634 22,150 178 376 -2240
2018-12-13 23:35:19 GMT 38.214733 -122.526993 22,450 178 377 -2304
2018-12-13 23:35:15 GMT 38.221714 -122.527237 22,600 178 378 -2304
2018-12-13 23:35:11 GMT 38.229069 -122.527473 22,775 178 379 -2304
2018-12-13 23:35:08 GMT 38.233887 -122.527596 22,875 178 380 -2240
2018-12-13 23:35:04 GMT 38.240288 -122.527832 23,050 178 381 -2304
2018-12-13 23:35:01 GMT 38.245651 -122.528008 23,125 178 381 -2304
2018-12-13 23:34:58 GMT 38.250092 -122.528183 23,225 178 382 -2304
2018-12-13 23:34:55 GMT 38.257324 -122.528412 23,475 178 384 -2304
2018-12-13 23:34:52 GMT 38.261581 -122.528534 23,475 178 383 -2304
2018-12-13 23:34:48 GMT 38.267807 -122.528763 23,775 178 386 -2304
2018-12-13 23:34:44 GMT 38.274902 -122.528999 23,750 178 386 -2304
2018-12-13 23:34:41 GMT 38.280441 -122.529228 23,875 178 387 -2368
2018-12-13 23:34:37 GMT 38.287865 -122.529503 24,025 178 388 -2368
2018-12-13 23:34:32 GMT 38.298481 -122.529922 24,250 178 389 -2368
2018-12-13 23:34:27 GMT 38.305618 -122.530228 24,450 178 391 -2176
2018-12-13 23:34:24 GMT 38.312214 -122.530457 24,550 177 392 -1984
2018-12-13 23:34:21 GMT 38.321732 -122.530869 24,725 177 393 -2048
2018-12-13 23:34:13 GMT 38.332043 -122.531410 24,850 177 394 -1984
2018-12-13 23:34:10 GMT 38.337353 -122.531715 25,025 177 395 -2048
2018-12-13 23:34:02 GMT 38.361099 -122.533379 25,350 176 398 -1984
2018-12-13 23:33:57 GMT 38.361099 -122.533379 25,450 175 401 -2048
2018-12-13 23:33:54 GMT 38.373055 -122.534515 25,625 175 402 -2048
2018-12-13 23:33:47 GMT 38.379456 -122.535248 25,775 174 403 -2048
2018-12-13 23:33:44 GMT 38.385452 -122.536011 25,900 174 404 -1984
2018-12-13 23:33:40 GMT 38.390442 -122.536713 25,975 173 406 -1984
2018-12-13 23:33:37 GMT 38.398911 -122.538116 26,125 171 409 -2048
2018-12-13 23:33:34 GMT 38.402386 -122.538696 26,200 171 409 -2048
2018-12-13 23:33:29 GMT 38.411087 -122.540451 26,325 170 411 -2048
2018-12-13 23:33:26 GMT 38.420334 -122.542519 26,525 169 413 -2048
2018-12-13 23:33:18 GMT 38.431946 -122.545349 26,725 169 416 -1984
2018-12-13 23:33:15 GMT 38.440155 -122.547356 26,875 169 415 -1984
2018-12-13 23:33:10 GMT 38.450409 -122.549622 27,075 172 414 -1984
2018-12-13 23:33:07 GMT 38.456314 -122.550583 27,150 174 413 -1984
2018-12-13 23:33:04 GMT 38.462112 -122.551270 27,250 176 412 -1984
2018-12-13 23:33:01 GMT 38.466202 -122.551537 27,325 177 412 -2048
2018-12-13 23:32:57 GMT 38.473560 -122.551758 27,450 181 411 -1984
2018-12-13 23:32:52 GMT 38.483322 -122.551292 27,625 184 409 -1984
2018-12-13 23:32:49 GMT 38.490974 -122.550415 27,750 188 408 -1984
2018-12-13 23:32:45 GMT 38.496422 -122.549500 27,775 189 407 -1984
2018-12-13 23:32:42 GMT 38.502518 -122.548096 27,950 193 405 -1984
2018-12-13 23:32:35 GMT 38.512947 -122.545044 28,175 197 403 -1984
2018-12-13 23:32:32 GMT 38.520115 -122.542297 28,250 198 403 -1984
2018-12-13 23:32:28 GMT 38.532532 -122.536369 28,450 203 400 -1984
2018-12-13 23:32:25 GMT 38.532532 -122.536369 28,550 205 399 -2048
2018-12-13 23:32:22 GMT 38.538177 -122.533081 28,675 208 398 -2048
2018-12-13 23:32:19 GMT 38.544342 -122.529083 28,750 210 397 -1984
2018-12-13 23:32:15 GMT 38.547729 -122.526695 28,825 211 397 -1984
2018-12-13 23:32:12 GMT 38.552124 -122.523293 28,925 213 396 -1984
2018-12-13 23:32:08 GMT 38.561096 -122.515594 29,100 217 394 -1984
2018-12-13 23:32:05 GMT 38.562756 -122.513977 29,150 218 393 -1984
2018-12-13 23:32:02 GMT 38.568295 -122.508362 29,275 221 392 -1984
2018-12-13 23:31:59 GMT 38.572723 -122.503410 29,375 223 392 -1984
2018-12-13 23:31:55 GMT 38.578026 -122.496948 29,575 226 389 -1984
2018-12-13 23:31:51 GMT 38.582977 -122.490158 29,625 229 388 -1984
2018-12-13 23:31:48 GMT 38.586079 -122.485535 29,750 231 388 -1984
2018-12-13 23:31:44 GMT 38.590221 -122.478882 29,875 235 386 -2048
2018-12-13 23:31:41 GMT 38.593899 -122.472168 29,975 237 385 -2048
2018-12-13 23:31:38 GMT 38.596367 -122.467407 30,075 238 384 -2048
2018-12-13 23:31:35 GMT 38.600418 -122.458923 30,225 240 383 -1984
2018-12-13 23:31:30 GMT 38.603954 -122.451111 30,350 240 382 -2048
2018-12-13 23:31:26 GMT 38.607376 -122.443581 30,475 240 381 -2048
2018-12-13 23:31:22 GMT 38.610611 -122.436462 30,700 240 379 -1984
2018-12-13 23:31:19 GMT 38.613590 -122.429871 30,700 240 379 -1984
2018-12-13 23:31:16 GMT 38.615360 -122.426025 31,000 240 378 -1984
2018-12-13 23:31:13 GMT 38.618992 -122.418091 30,925 240 378 -1984
2018-12-13 23:31:06 GMT 38.624954 -122.404953 31,150 240 375 -1984
2018-12-13 23:31:02 GMT 38.628860 -122.396423 31,300 240 374 -2048
2018-12-13 23:30:56 GMT 38.634262 -122.384583 31,500 240 373 -2048
2018-12-13 23:30:53 GMT 38.636494 -122.379639 31,600 240 372 -2048
2018-12-13 23:30:49 GMT 38.639832 -122.372353 31,725 240 371 -1984
2018-12-13 23:30:45 GMT 38.642944 -122.365486 31,850 240 370 -1984
2018-12-13 23:30:40 GMT 38.647751 -122.354912 32,025 240 368 -2048
2018-12-13 23:30:37 GMT 38.649033 -122.352112 32,075 240 368 -1984
2018-12-13 23:30:34 GMT 38.652229 -122.345032 32,200 240 367 -1984
2018-12-13 23:30:31 GMT 38.655300 -122.338318 32,325 240 366 -1984
2018-12-13 23:30:28 GMT 38.658325 -122.331688 32,450 240 365 -1984
2018-12-13 23:30:23 GMT 38.661774 -122.324158 32,575 240 362 -1984
2018-12-13 23:30:20 GMT 38.664474 -122.318237 32,675 240 362 -1984
2018-12-13 23:30:16 GMT 38.667313 -122.311951 32,750 240 361 -1984
2018-12-13 23:30:13 GMT 38.670570 -122.304749 32,950 240 359 -1984
2018-12-13 23:30:09 GMT 38.674065 -122.297058 33,075 240 357 -1984
2018-12-13 23:30:05 GMT 38.676529 -122.291626 33,150 240 356 -1984
2018-12-13 23:30:00 GMT 38.681259 -122.281174 33,350 240 353 -1984
2018-12-13 23:29:57 GMT 38.683514 -122.276184 33,450 240 352 -1984
2018-12-13 23:29:54 GMT 38.685047 -122.272827 33,500 240 350 -1984
2018-12-13 23:29:50 GMT 38.688911 -122.264404 33,650 240 349 -1984
2018-12-13 23:29:47 GMT 38.693382 -122.254456 33,900 240 345 -2048
2018-12-13 23:29:41 GMT 38.696266 -122.248108 34,025 240 345 -1984
2018-12-13 23:29:38 GMT 38.698746 -122.242661 34,100 241 346 -1984
2018-12-13 23:29:35 GMT 38.700485 -122.238785 34,150 241 346 -1984
2018-12-13 23:29:31 GMT 38.704239 -122.230484 34,350 241 346 -2048
2018-12-13 23:29:28 GMT 38.707535 -122.223259 34,425 241 346 -2048
2018-12-13 23:29:23 GMT 38.710510 -122.216690 34,525 241 346 -1984
2018-12-13 23:29:19 GMT 38.714470 -122.207947 34,725 241 346 -1984
2018-12-13 23:29:16 GMT 38.716049 -122.204453 34,775 241 346 -1984
2018-12-13 23:29:12 GMT 38.720058 -122.195496 34,950 241 346 -2048
2018-12-13 23:29:08 GMT 38.723270 -122.188416 35,075 241 346 -2048
2018-12-13 23:29:05 GMT 38.728901 -122.176025 35,250 240 347 -1984
2018-12-13 23:29:01 GMT 38.728901 -122.176025 35,325 240 347 -2048
2018-12-13 23:28:58 GMT 38.730484 -122.172485 35,375 240 349 -2048
2018-12-13 23:28:55 GMT 38.733261 -122.166298 35,575 241 352 -2048
2018-12-13 23:28:52 GMT 38.736008 -122.160210 35,625 241 350 -1984
2018-12-13 23:28:49 GMT 38.738583 -122.154541 35,725 241 352 -2048
2018-12-13 23:28:44 GMT 38.742279 -122.146355 35,875 240 353 -2048
2018-12-13 23:28:41 GMT 38.744450 -122.141602 35,975 241 354 -2048
2018-12-13 23:28:38 GMT 38.749802 -122.129761 36,200 241 357 -1984
2018-12-13 23:28:32 GMT 38.751434 -122.126099 36,200 241 357 -1984
2018-12-13 23:28:29 GMT 38.753574 -122.121338 36,325 241 358 -1984
2018-12-13 23:28:24 GMT 38.759209 -122.108826 36,550 241 361 -2048
2018-12-13 23:28:20 GMT 38.761368 -122.104080 36,650 241 361 -1984
2018-12-13 23:28:17 GMT 38.767353 -122.090759 36,800 241 364 -2048
2018-12-13 23:28:14 GMT 38.767353 -122.090759 36,925 241 365 -1984
2018-12-13 23:28:11 GMT 38.769882 -122.085091 37,100 241 372 -2048
2018-12-13 23:28:08 GMT 38.771942 -122.080559 37,075 241 367 -1984
2018-12-13 23:28:05 GMT 38.774048 -122.075836 37,150 241 369 -1984
2018-12-13 23:28:02 GMT 38.777435 -122.068253 37,400 241 370 -2048
2018-12-13 23:27:59 GMT 38.779770 -122.063179 37,375 241 371 -1984
2018-12-13 23:27:55 GMT 38.783321 -122.055237 37,450 241 372 -2048
2018-12-13 23:27:52 GMT 38.785492 -122.050400 37,650 241 374 -2048
2018-12-13 23:27:49 GMT 38.789062 -122.042519 37,725 241 374 -2048
2018-12-13 23:27:46 GMT 38.791214 -122.037743 37,825 241 377 -2048
2018-12-13 23:27:41 GMT 38.795658 -122.027771 38,050 241 378 -1984
2018-12-13 23:27:37 GMT 38.798767 -122.020905 38,100 241 379 -2048
2018-12-13 23:27:34 GMT 38.801514 -122.014816 38,200 241 381 -1984
2018-12-13 23:27:30 GMT 38.804626 -122.007774 38,325 241 382 -1984
2018-12-13 23:27:27 GMT 38.808014 -122.000305 38,400 241 383 -1984
2018-12-13 23:27:24 GMT 38.810787 -121.994080 38,550 241 386 -1984
2018-12-13 23:27:20 GMT 38.813919 -121.987053 38,775 241 386 -1984
2018-12-13 23:27:16 GMT 38.817257 -121.979614 38,800 241 388 -1984
2018-12-13 23:27:13 GMT 38.820423 -121.972656 38,925 241 389 -1984
2018-12-13 23:27:10 GMT 38.821701 -121.969734 38,950 241 391 -1984
2018-12-13 23:27:07 GMT 38.825272 -121.961678 39,050 241 391 -1984
2018-12-13 23:27:04 GMT 38.830105 -121.950928 39,200 241 392 -2048
2018-12-13 23:27:01 GMT 38.830105 -121.950928 39,325 241 394 -1984
2018-12-13 23:26:58 GMT 38.833420 -121.943527 39,400 241 395 -1984
2018-12-13 23:26:55 GMT 38.836205 -121.937378 39,500 241 395 -1984
2018-12-13 23:26:52 GMT 38.838345 -121.932495 40,075 241 396 -2048
2018-12-13 23:26:49 GMT 38.841522 -121.925491 40,075 241 396 -2048
2018-12-13 23:26:46 GMT 38.843838 -121.920288 39,900 241 398 -2176
2018-12-13 23:26:42 GMT 38.847885 -121.911163 39,925 241 399 -2048
2018-12-13 23:26:38 GMT 38.851639 -121.902740 40,075 241 399 -1792
2018-12-13 23:26:35 GMT 38.853615 -121.898315 40,150 241 400 -1472
2018-12-13 23:26:32 GMT 38.857635 -121.889374 40,250 241 403 -1344
2018-12-13 23:26:29 GMT 38.862972 -121.877441 40,375 241 405 -1728
2018-12-13 23:26:26 GMT 38.862972 -121.877441 40,400 241 405 -1792
2018-12-13 23:26:23 GMT 38.866287 -121.870026 40,475 241 405 -1984
2018-12-13 23:26:18 GMT 38.870605 -121.860413 40,675 241 403 -1984
2018-12-13 23:26:15 GMT 38.873520 -121.853905 40,750 241 402 -1984
2018-12-13 23:26:12 GMT 38.876404 -121.847511 40,850 241 399 -1984
2018-12-13 23:26:07 GMT 38.880939 -121.837341 41,000 241 398 -1984
2018-12-13 23:26:04 GMT 38.883408 -121.831787 41,100 241 397 -1984
2018-12-13 23:26:00 GMT 38.886948 -121.823853 41,225 241 395 -1984
2018-12-13 23:25:56 GMT 38.890903 -121.814941 41,375 241 393 -1984
2018-12-13 23:25:50 GMT 38.896023 -121.803406 41,550 241 390 -1984
2018-12-13 23:25:45 GMT 38.900772 -121.792786 41,725 241 386 -1984
2018-12-13 23:25:42 GMT 38.902542 -121.788818 41,800 241 386 -1984
2018-12-13 23:25:39 GMT 38.906174 -121.780701 41,925 241 384 -1984
2018-12-13 23:25:35 GMT 38.909546 -121.773117 42,000 241 382 -1984
2018-12-13 23:25:32 GMT 38.911560 -121.768578 42,125 241 381 -1984
2018-12-13 23:25:28 GMT 38.915203 -121.760437 42,250 241 378 -1920
2018-12-13 23:25:23 GMT 38.919662 -121.750427 42,450 241 375 -2048
2018-12-13 23:25:20 GMT 38.922867 -121.743324 42,550 241 373 -2112
2018-12-13 23:25:17 GMT 38.925117 -121.738220 42,650 241 372 -2112
2018-12-13 23:25:13 GMT 38.928516 -121.730591 42,825 241 368 -1536
2018-12-13 23:25:06 GMT 38.936756 -121.712158 42,975 241 365 -256
2018-12-13 23:25:03 GMT 38.936756 -121.712158 43,000 241 365 -128
2018-12-13 23:25:00 GMT 38.939209 -121.706604 43,000 241 365 -64
2018-12-13 23:24:55 GMT 38.943462 -121.697144 43,000 241 365 0
2018-12-13 23:24:52 GMT 38.946350 -121.690659 43,000 241 365 0
2018-12-13 23:24:49 GMT 38.948025 -121.686768 43,000 241 365 0
2018-12-13 23:24:44 GMT 38.953564 -121.674377 43,000 241 365 0
2018-12-13 23:24:41 GMT 38.957199 -121.666183 43,000 241 365 0
2018-12-13 23:24:34 GMT 38.960964 -121.657776 43,000 241 365 0
2018-12-13 23:24:31 GMT 38.963562 -121.651848 43,000 241 365 0
2018-12-13 23:24:28 GMT 38.965851 -121.646774 43,000 241 365 0
2018-12-13 23:24:22 GMT 38.974960 -121.626297 43,000 241 365 -64
2018-12-13 23:24:18 GMT 38.974960 -121.626297 43,000 241 365 64
2018-12-13 23:24:14 GMT 38.977585 -121.620361 43,000 241 365 -64
2018-12-13 23:24:08 GMT 38.982742 -121.608742 43,000 241 365 0
2018-12-13 23:24:05 GMT 38.985855 -121.601753 43,000 241 366 0
2018-12-13 23:24:00 GMT 38.989223 -121.594116 43,000 241 366 0
2018-12-13 23:23:56 GMT 38.993134 -121.585335 43,000 241 366 0
2018-12-13 23:23:53 GMT 38.995274 -121.580505 43,000 241 366 64
2018-12-13 23:23:48 GMT 38.998489 -121.573273 43,000 241 366 0
2018-12-13 23:23:45 GMT 39.001831 -121.565689 43,000 241 366 0
2018-12-13 23:23:36 GMT 39.009705 -121.547897 43,000 241 366 0
2018-12-13 23:23:33 GMT 39.012817 -121.540909 43,000 241 366 0
2018-12-13 23:23:28 GMT 39.016457 -121.532715 43,000 241 366 0
2018-12-13 23:23:25 GMT 39.018738 -121.527588 43,000 241 366 0
2018-12-13 23:23:22 GMT 39.020416 -121.523720 43,000 241 366 0
2018-12-13 23:23:15 GMT 39.027767 -121.507141 43,000 241 366 0
2018-12-13 23:23:12 GMT 39.029984 -121.502106 43,000 241 366 0
2018-12-13 23:23:06 GMT 39.034378 -121.492188 43,000 241 366 0
2018-12-13 23:23:03 GMT 39.037403 -121.485352 43,000 241 366 0
2018-12-13 23:23:00 GMT 39.039730 -121.480042 43,000 241 366 0
2018-12-13 23:22:55 GMT 39.043350 -121.471832 43,000 241 366 -64
2018-12-13 23:22:52 GMT 39.046665 -121.464355 43,000 241 366 64
2018-12-13 23:22:49 GMT 39.049274 -121.458496 43,000 241 366 0
2018-12-13 23:22:43 GMT 39.052952 -121.450134 43,000 241 366 64
2018-12-13 23:22:39 GMT 39.056770 -121.441406 43,000 241 367 64
2018-12-13 23:22:35 GMT 39.060539 -121.432922 43,000 241 367 64
2018-12-13 23:22:31 GMT 39.063377 -121.426453 43,000 241 367 -64
2018-12-13 23:22:28 GMT 39.065891 -121.420776 43,000 241 367 -64
2018-12-13 23:22:23 GMT 39.070969 -121.409180 43,000 241 366 -64
2018-12-13 23:22:18 GMT 39.075027 -121.400002 43,000 241 366 192
2018-12-13 23:22:12 GMT 39.079788 -121.389191 42,975 241 367 576
2018-12-13 23:22:08 GMT 39.082718 -121.382568 42,950 241 367 512
2018-12-13 23:22:05 GMT 39.084457 -121.378563 42,950 241 368 320
2018-12-13 23:22:01 GMT 39.089260 -121.367615 42,925 241 369 -256
2018-12-13 23:21:58 GMT 39.090591 -121.364655 42,925 241 368 -448
2018-12-13 23:21:55 GMT 39.094116 -121.356651 42,950 241 368 -448
2018-12-13 23:21:50 GMT 39.098248 -121.347229 43,000 241 367 -128
2018-12-13 23:21:47 GMT 39.100899 -121.341187 43,000 241 367 64
2018-12-13 23:21:44 GMT 39.103363 -121.335571 43,000 241 367 64
2018-12-13 23:21:41 GMT 39.105415 -121.330933 43,000 241 367 64
2018-12-13 23:21:38 GMT 39.112583 -121.314636 43,000 241 367 -64
2018-12-13 23:21:33 GMT 39.112583 -121.314636 43,000 241 367 0
2018-12-13 23:21:30 GMT 39.114532 -121.310143 43,000 241 367 -64
2018-12-13 23:21:27 GMT 39.116589 -121.305481 43,000 241 367 -64
2018-12-13 23:21:24 GMT 39.120079 -121.297546 43,000 241 367 0
2018-12-13 23:21:20 GMT 39.123245 -121.290344 43,000 241 367 0
2018-12-13 23:21:17 GMT 39.125572 -121.285034 43,000 241 367 0
2018-12-13 23:21:13 GMT 39.128952 -121.277359 43,000 241 367 0
2018-12-13 23:21:09 GMT 39.131470 -121.271629 43,000 241 367 0
2018-12-13 23:21:06 GMT 39.134537 -121.264641 43,000 241 367 0
2018-12-13 23:21:01 GMT 39.138004 -121.256714 43,000 241 367 0
2018-12-13 23:20:58 GMT 39.143681 -121.243835 43,000 241 367 -64
2018-12-13 23:20:55 GMT 39.143681 -121.243835 43,000 241 367 -64
2018-12-13 23:20:51 GMT 39.146851 -121.236519 43,000 241 367 0
2018-12-13 23:20:48 GMT 39.150101 -121.229118 43,000 241 367 0
2018-12-13 23:20:45 GMT 39.152481 -121.223755 43,000 241 367 0
2018-12-13 23:20:41 GMT 39.155914 -121.215858 43,000 241 367 0
2018-12-13 23:20:37 GMT 39.158752 -121.209412 43,000 241 367 0
2018-12-13 23:20:34 GMT 39.161697 -121.202637 43,000 241 367 0
2018-12-13 23:20:28 GMT 39.165516 -121.193909 43,000 241 367 0
2018-12-13 23:20:25 GMT 39.169518 -121.184814 43,000 241 367 0
2018-12-13 23:20:22 GMT 39.171249 -121.180931 43,000 241 367 0
2018-12-13 23:20:19 GMT 39.174454 -121.173531 43,000 241 367 0
2018-12-13 23:20:15 GMT 39.177105 -121.167542 43,000 241 367 0
2018-12-13 23:20:12 GMT 39.179718 -121.161530 43,000 241 367 0
2018-12-13 23:20:08 GMT 39.183064 -121.153870 43,000 241 367 0
2018-12-13 23:20:04 GMT 39.188919 -121.140450 43,000 241 367 0
2018-12-13 23:20:00 GMT 39.188919 -121.140450 43,000 241 367 0
2018-12-13 23:19:55 GMT 39.193405 -121.130119 43,000 241 366 64
2018-12-13 23:19:52 GMT 39.195419 -121.125580 43,000 241 366 0
2018-12-13 23:19:49 GMT 39.198380 -121.118835 43,000 241 366 0
2018-12-13 23:19:45 GMT 39.202106 -121.110291 43,000 241 366 0
2018-12-13 23:19:42 GMT 39.204151 -121.105530 43,000 241 366 0
2018-12-13 23:19:39 GMT 39.206806 -121.099426 43,000 241 366 0
2018-12-13 23:19:34 GMT 39.211697 -121.088196 43,000 241 366 0
2018-12-13 23:19:31 GMT 39.213730 -121.083549 43,000 241 366 0
2018-12-13 23:19:28 GMT 39.215881 -121.078590 43,000 241 366 -64
2018-12-13 23:19:23 GMT 39.220818 -121.067322 43,000 241 366 0
2018-12-13 23:19:17 GMT 39.224899 -121.057869 43,000 241 366 0
2018-12-13 23:19:13 GMT 39.228333 -121.050110 43,000 241 366 0
2018-12-13 23:19:09 GMT 39.232224 -121.041153 43,000 241 366 0
2018-12-13 23:19:05 GMT 39.234283 -121.036438 43,000 241 366 0
2018-12-13 23:19:02 GMT 39.237167 -121.029747 43,000 241 366 0
2018-12-13 23:18:59 GMT 39.243256 -121.015808 43,000 241 366 0
2018-12-13 23:18:55 GMT 39.243256 -121.015808 43,000 241 366 0
2018-12-13 23:18:52 GMT 39.246368 -121.008675 43,000 241 366 64
2018-12-13 23:18:48 GMT 39.248798 -121.003052 43,000 241 366 0
2018-12-13 23:18:45 GMT 39.251030 -120.997925 43,000 241 366 0
2018-12-13 23:18:42 GMT 39.256943 -120.984314 43,000 241 366 0
2018-12-13 23:18:39 GMT 39.256943 -120.984314 43,000 241 366 0
2018-12-13 23:18:33 GMT 39.261551 -120.973755 43,000 241 366 0
2018-12-13 23:18:30 GMT 39.264404 -120.967178 43,000 241 366 0
2018-12-13 23:18:27 GMT 39.266441 -120.962524 43,000 241 366 0
2018-12-13 23:18:23 GMT 39.270264 -120.953682 43,000 241 366 0
2018-12-13 23:18:19 GMT 39.273468 -120.946274 43,000 241 366 0
2018-12-13 23:18:16 GMT 39.278366 -120.934990 43,000 241 366 0
2018-12-13 23:18:13 GMT 39.278366 -120.934990 43,000 241 366 0
2018-12-13 23:18:10 GMT 39.281197 -120.928467 43,000 241 366 0
2018-12-13 23:18:06 GMT 39.284271 -120.921387 43,000 241 366 0
2018-12-13 23:18:01 GMT 39.288300 -120.912186 43,000 241 366 64
2018-12-13 23:17:57 GMT 39.291763 -120.904053 43,000 241 366 0
2018-12-13 23:17:54 GMT 39.294708 -120.897316 43,000 241 366 0
2018-12-13 23:17:47 GMT 39.298885 -120.887695 43,000 241 366 0
2018-12-13 23:17:44 GMT 39.302380 -120.879700 43,000 241 366 0
2018-12-13 23:17:36 GMT 39.307846 -120.866982 43,000 241 366 0
2018-12-13 23:17:33 GMT 39.311687 -120.858154 43,000 241 366 0
2018-12-13 23:17:28 GMT 39.315536 -120.849251 43,000 241 366 0
2018-12-13 23:17:24 GMT 39.319061 -120.841072 43,000 241 366 0
2018-12-13 23:17:21 GMT 39.320675 -120.837341 43,000 241 366 0
2018-12-13 23:17:15 GMT 39.326202 -120.824654 43,000 241 367 0
2018-12-13 23:17:12 GMT 39.327702 -120.821167 43,000 241 367 0
2018-12-13 23:17:06 GMT 39.333618 -120.807518 43,000 241 367 0
2018-12-13 23:17:02 GMT 39.336411 -120.801010 43,000 241 367 0
2018-12-13 23:16:59 GMT 39.339108 -120.794800 43,000 241 367 0
2018-12-13 23:16:55 GMT 39.342926 -120.786011 43,000 241 367 -64
2018-12-13 23:16:51 GMT 39.345428 -120.780167 43,000 241 367 0
2018-12-13 23:16:47 GMT 39.348404 -120.773300 43,000 241 367 0
2018-12-13 23:16:44 GMT 39.352001 -120.765015 43,000 241 367 0
2018-12-13 23:16:41 GMT 39.354492 -120.759148 43,000 241 367 0
2018-12-13 23:16:37 GMT 39.357971 -120.751152 43,000 241 367 0
2018-12-13 23:16:30 GMT 39.363457 -120.738403 43,000 241 367 0
2018-12-13 23:16:25 GMT 39.367085 -120.729980 43,000 241 367 0
2018-12-13 23:16:22 GMT 39.369598 -120.724159 43,000 241 367 0
2018-12-13 23:16:19 GMT 39.376209 -120.708801 43,000 241 367 0
2018-12-13 23:16:14 GMT 39.376209 -120.708801 43,000 241 367 0
2018-12-13 23:16:11 GMT 39.379486 -120.701233 43,000 241 367 0
2018-12-13 23:16:08 GMT 39.381454 -120.696640 43,000 241 367 64
2018-12-13 23:16:00 GMT 39.388458 -120.680397 43,000 241 367 -64
2018-12-13 23:15:57 GMT 39.390610 -120.675438 43,000 241 367 0
2018-12-13 23:15:49 GMT 39.399353 -120.655136 43,000 241 367 0
2018-12-13 23:15:41 GMT 39.404003 -120.644348 43,000 241 367 0
2018-12-13 23:15:37 GMT 39.406357 -120.638901 43,000 241 367 0
2018-12-13 23:15:34 GMT 39.408646 -120.633522 43,000 241 367 0
2018-12-13 23:15:29 GMT 39.415825 -120.616821 43,000 241 367 0
2018-12-13 23:15:23 GMT 39.417526 -120.612923 43,000 241 367 0
2018-12-13 23:15:17 GMT 39.423706 -120.598595 43,000 241 367 0
2018-12-13 23:15:14 GMT 39.426113 -120.592957 43,000 241 367 0
2018-12-13 23:15:06 GMT 39.432678 -120.577698 43,000 241 367 0
2018-12-13 23:15:03 GMT 39.435146 -120.571960 43,000 241 367 0
2018-12-13 23:14:56 GMT 39.440918 -120.558472 43,000 241 367 64
2018-12-13 23:14:52 GMT 39.444038 -120.551270 43,000 241 367 0
2018-12-13 23:14:46 GMT 39.449341 -120.538948 43,000 241 367 0
2018-12-13 23:14:43 GMT 39.451538 -120.533813 43,000 241 367 0
2018-12-13 23:14:40 GMT 39.452789 -120.530823 43,000 242 366 0
2018-12-13 23:14:33 GMT 39.459259 -120.515747 43,000 242 366 0
2018-12-13 23:14:30 GMT 39.461792 -120.509872 43,000 242 366 0
2018-12-13 23:14:24 GMT 39.466919 -120.497810 43,000 242 366 0
2018-12-13 23:14:21 GMT 39.469299 -120.492256 43,000 242 366 0
2018-12-13 23:14:18 GMT 39.470898 -120.488525 43,000 242 366 -64
2018-12-13 23:14:12 GMT 39.476669 -120.474998 43,000 242 366 0
2018-12-13 23:14:09 GMT 39.479603 -120.468201 43,000 242 366 0
2018-12-13 23:14:01 GMT 39.485321 -120.454697 43,000 242 366 0
2018-12-13 23:13:58 GMT 39.488434 -120.447411 43,000 242 366 -64
2018-12-13 23:13:51 GMT 39.493835 -120.434814 43,000 242 366 0
2018-12-13 23:13:46 GMT 39.498734 -120.423294 43,000 242 366 0
2018-12-13 23:13:40 GMT 39.502991 -120.413322 43,000 242 366 0
2018-12-13 23:13:36 GMT 39.505875 -120.406631 43,000 242 366 0
2018-12-13 23:13:33 GMT 39.508373 -120.400757 43,000 242 366 0
2018-12-13 23:13:29 GMT 39.512329 -120.391464 43,000 242 366 0
2018-12-13 23:13:24 GMT 39.515213 -120.384781 43,000 242 366 0
2018-12-13 23:13:21 GMT 39.521347 -120.370392 43,000 242 366 0
2018-12-13 23:13:17 GMT 39.521347 -120.370392 43,000 242 366 0
2018-12-13 23:13:14 GMT 39.524803 -120.362244 43,000 242 366 64
2018-12-13 23:13:09 GMT 39.530346 -120.349243 43,000 242 366 -64
2018-12-13 23:13:06 GMT 39.530346 -120.349243 43,000 242 366 0
2018-12-13 23:13:01 GMT 39.533882 -120.341003 43,000 242 366 0
2018-12-13 23:12:57 GMT 39.537735 -120.331879 43,000 242 366 0
2018-12-13 23:12:53 GMT 39.543568 -120.318176 43,000 242 366 0
2018-12-13 23:12:47 GMT 39.546707 -120.310799 43,000 242 366 0
2018-12-13 23:12:41 GMT 39.550594 -120.301697 43,000 242 366 0
2018-12-13 23:12:38 GMT 39.553070 -120.295815 43,000 242 366 -64
2018-12-13 23:12:31 GMT 39.559845 -120.279930 43,000 242 366 0
2018-12-13 23:12:28 GMT 39.567078 -120.262856 43,000 242 366 0
2018-12-13 23:12:22 GMT 39.567078 -120.262856 43,000 242 366 0
2018-12-13 23:12:19 GMT 39.568405 -120.259811 43,000 242 366 0
2018-12-13 23:12:16 GMT 39.570984 -120.253784 43,000 242 366 0
2018-12-13 23:12:13 GMT 39.573349 -120.248108 43,000 242 366 0
2018-12-13 23:12:09 GMT 39.577408 -120.238586 43,000 242 366 0
2018-12-13 23:12:04 GMT 39.581459 -120.229004 43,000 242 366 0
2018-12-13 23:11:58 GMT 39.588070 -120.213501 43,000 242 366 0
2018-12-13 23:11:52 GMT 39.590488 -120.207703 43,000 242 366 0
2018-12-13 23:11:47 GMT 39.598545 -120.188721 43,000 242 366 0
2018-12-13 23:11:43 GMT 39.598545 -120.188721 43,000 242 366 0
2018-12-13 23:11:36 GMT 39.604202 -120.175385 43,000 242 366 0
2018-12-13 23:11:33 GMT 39.605576 -120.172096 43,000 242 366 0
2018-12-13 23:11:30 GMT 39.608002 -120.166367 43,000 242 365 0
2018-12-13 23:11:26 GMT 39.612091 -120.156677 43,000 242 365 64
2018-12-13 23:11:23 GMT 39.614273 -120.151558 43,000 242 365 0
2018-12-13 23:11:19 GMT 39.616928 -120.145233 43,000 242 365 0
2018-12-13 23:11:16 GMT 39.620178 -120.137527 43,000 242 365 0
2018-12-13 23:11:12 GMT 39.622658 -120.131714 43,000 242 365 0
2018-12-13 23:11:09 GMT 39.625854 -120.124153 43,000 242 365 0
2018-12-13 23:11:05 GMT 39.628895 -120.116882 43,000 242 365 0
2018-12-13 23:11:02 GMT 39.631363 -120.111145 43,000 242 365 0
2018-12-13 23:10:58 GMT 39.635227 -120.101929 43,000 242 365 0
2018-12-13 23:10:54 GMT 39.638260 -120.094780 43,000 242 365 0
2018-12-13 23:10:47 GMT 39.647507 -120.072922 43,000 242 365 0
2018-12-13 23:10:43 GMT 39.647507 -120.072922 43,000 242 365 0
2018-12-13 23:10:40 GMT 39.648682 -120.070129 43,000 242 365 0
2018-12-13 23:10:34 GMT 39.654079 -120.057312 43,000 242 365 0
2018-12-13 23:10:29 GMT 39.657337 -120.049622 43,000 242 365 0
2018-12-13 23:10:20 GMT 39.665813 -120.029480 43,000 242 365 0
2018-12-13 23:10:13 GMT 39.671257 -120.016663 43,000 242 365 0
2018-12-13 23:10:09 GMT 39.674286 -120.009453 43,000 242 365 0
2018-12-13 23:10:05 GMT 39.678223 -120.000023 43,000 242 365 0
2018-12-13 23:10:01 GMT 39.680649 -119.994286 43,000 242 365 64
2018-12-13 23:09:58 GMT 39.683128 -119.988403 43,000 242 365 0
2018-12-13 23:09:54 GMT 39.687084 -119.979004 43,000 242 365 0
2018-12-13 23:09:51 GMT 39.689182 -119.974060 43,000 242 365 0
2018-12-13 23:09:48 GMT 39.692047 -119.967239 43,000 242 365 0
2018-12-13 23:09:43 GMT 39.695930 -119.957886 43,000 242 365 0
2018-12-13 23:09:39 GMT 39.698353 -119.952148 43,000 242 365 0
2018-12-13 23:09:35 GMT 39.701099 -119.945618 43,000 242 365 0
2018-12-13 23:09:32 GMT 39.704914 -119.936584 43,000 242 365 0
2018-12-13 23:09:27 GMT 39.707661 -119.930054 43,000 242 365 0
2018-12-13 23:09:24 GMT 39.710175 -119.924072 43,000 242 365 0
2018-12-13 23:09:20 GMT 39.715118 -119.912308 43,000 242 365 -64
2018-12-13 23:09:14 GMT 39.718414 -119.904480 43,000 242 365 0
2018-12-13 23:09:10 GMT 39.725647 -119.887291 43,000 242 365 0
2018-12-13 23:09:05 GMT 39.725647 -119.887291 43,000 242 365 0
2018-12-13 23:09:02 GMT 39.728100 -119.881409 43,000 242 365 0
2018-12-13 23:08:58 GMT 39.732197 -119.871582 43,000 242 366 0
2018-12-13 23:08:53 GMT 39.736130 -119.862274 43,000 242 366 0
2018-12-13 23:08:47 GMT 39.741028 -119.850510 43,000 242 366 0
2018-12-13 23:08:42 GMT 39.744671 -119.841736 43,000 242 366 0
2018-12-13 23:08:37 GMT 39.749313 -119.830627 43,000 242 366 0
2018-12-13 23:08:34 GMT 39.754307 -119.818787 43,000 242 366 -64
2018-12-13 23:08:30 GMT 39.754307 -119.818787 43,000 242 366 -64
2018-12-13 23:08:26 GMT 39.757690 -119.810562 43,000 242 366 0
2018-12-13 23:08:23 GMT 39.759754 -119.805664 43,000 242 366 0
2018-12-13 23:08:20 GMT 39.762543 -119.798981 43,000 242 366 0
2018-12-13 23:08:13 GMT 39.768127 -119.785728 43,000 242 366 0
2018-12-13 23:08:09 GMT 39.771484 -119.777649 43,000 242 366 0
2018-12-13 23:08:05 GMT 39.774811 -119.769669 43,000 242 367 -64
2018-12-13 23:08:01 GMT 39.777073 -119.764343 43,000 242 367 0
2018-12-13 23:07:58 GMT 39.780704 -119.755615 43,000 242 367 0
2018-12-13 23:07:54 GMT 39.783005 -119.750137 43,000 242 367 0
2018-12-13 23:07:51 GMT 39.785545 -119.744019 43,000 242 367 0
2018-12-13 23:07:47 GMT 39.789455 -119.734741 43,000 242 367 0
2018-12-13 23:07:44 GMT 39.792389 -119.727692 43,000 242 367 0
2018-12-13 23:07:41 GMT 39.794064 -119.723755 43,000 242 367 0
2018-12-13 23:07:36 GMT 39.798065 -119.714050 43,000 242 367 0
2018-12-13 23:07:33 GMT 39.800442 -119.708435 43,000 242 367 64
2018-12-13 23:07:29 GMT 39.802860 -119.702637 43,000 242 367 64
2018-12-13 23:07:25 GMT 39.806946 -119.692818 43,000 242 368 0
2018-12-13 23:07:21 GMT 39.810310 -119.684753 43,000 242 368 -64
2018-12-13 23:07:18 GMT 39.811752 -119.681419 43,000 242 368 -64
2018-12-13 23:07:12 GMT 39.817989 -119.666321 43,000 242 368 64
2018-12-13 23:07:07 GMT 39.821342 -119.658386 43,000 242 368 0
2018-12-13 23:07:04 GMT 39.824432 -119.650902 43,000 242 368 0
2018-12-13 23:07:00 GMT 39.827682 -119.643143 43,000 242 368 0
2018-12-13 23:06:57 GMT 39.829350 -119.639160 43,000 242 368 0
2018-12-13 23:06:54 GMT 39.832561 -119.631409 43,000 242 368 0
2018-12-13 23:06:50 GMT 39.835098 -119.625290 43,000 242 368 64
2018-12-13 23:06:47 GMT 39.837170 -119.620361 43,000 242 368 64
2018-12-13 23:06:40 GMT 39.843502 -119.605164 43,000 242 368 0
2018-12-13 23:06:36 GMT 39.846039 -119.599022 43,000 242 368 0
2018-12-13 23:06:28 GMT 39.852718 -119.583008 43,000 242 368 0
2018-12-13 23:06:25 GMT 39.854488 -119.578735 43,000 242 368 -64
2018-12-13 23:06:18 GMT 39.861519 -119.561829 43,000 242 368 64
2018-12-13 23:06:15 GMT 39.863148 -119.557922 43,000 242 368 0
2018-12-13 23:06:08 GMT 39.869759 -119.541992 43,000 242 368 64
2018-12-13 23:06:04 GMT 39.872360 -119.535667 43,000 242 367 64
2018-12-13 23:05:57 GMT 39.878601 -119.520569 43,000 242 367 -64
2018-12-13 23:05:54 GMT 39.880829 -119.515251 43,000 242 367 0
2018-12-13 23:05:46 GMT 39.887169 -119.499939 43,000 242 367 0
2018-12-13 23:05:42 GMT 39.889297 -119.494827 43,000 242 367 0
2018-12-13 23:05:35 GMT 39.897720 -119.474411 43,000 242 367 0
2018-12-13 23:05:24 GMT 39.904907 -119.457092 43,000 242 367 0
2018-12-13 23:05:14 GMT 39.913101 -119.437271 43,000 242 367 0
2018-12-13 23:05:11 GMT 39.914585 -119.433655 43,000 242 367 0
2018-12-13 23:05:00 GMT 39.923992 -119.410896 43,000 242 367 0
2018-12-13 23:04:50 GMT 39.931915 -119.391785 43,000 242 367 0
2018-12-13 23:04:41 GMT 39.939304 -119.373756 43,000 242 367 0
2018-12-13 23:04:38 GMT 39.940979 -119.369751 43,000 242 367 0
2018-12-13 23:04:30 GMT 39.948578 -119.351257 43,000 242 367 0
2018-12-13 23:04:27 GMT 39.949768 -119.348389 43,000 242 367 0
2018-12-13 23:04:17 GMT 39.958530 -119.327065 43,000 242 367 64
2018-12-13 23:04:06 GMT 39.967144 -119.306221 43,000 242 367 -64
2018-12-13 23:03:55 GMT 39.976318 -119.283936 43,000 242 367 0
2018-12-13 23:03:46 GMT 39.983902 -119.265518 43,000 242 367 0
2018-12-13 23:03:43 GMT 39.985485 -119.261650 43,000 242 367 64
2018-12-13 23:03:33 GMT 39.994263 -119.240295 43,000 242 367 0
2018-12-13 23:03:24 GMT 40.001038 -119.223694 43,000 242 367 0
2018-12-13 23:03:10 GMT 40.011292 -119.198792 43,000 242 367 0
2018-12-13 23:03:02 GMT 40.018112 -119.182068 43,000 242 367 -64
2018-12-13 23:02:59 GMT 40.020218 -119.177002 43,000 242 367 0
2018-12-13 23:02:51 GMT 40.026764 -119.161072 43,000 243 366 0
2018-12-13 23:02:48 GMT 40.029106 -119.155342 43,000 242 365 0
2018-12-13 23:02:37 GMT 40.037888 -119.133850 43,000 242 365 0
2018-12-13 23:02:27 GMT 40.046631 -119.112427 43,000 242 365 0
2018-12-13 23:02:18 GMT 40.053917 -119.094666 43,000 242 365 0
2018-12-13 23:02:15 GMT 40.055740 -119.090088 43,000 242 365 -64
2018-12-13 23:02:07 GMT 40.062531 -119.073448 43,000 242 365 0
2018-12-13 23:02:04 GMT 40.064068 -119.069763 43,000 242 365 64
2018-12-13 23:01:52 GMT 40.073608 -119.046417 43,000 242 365 0
2018-12-13 23:01:45 GMT 40.080265 -119.030121 43,000 243 365 0
2018-12-13 23:01:42 GMT 40.081100 -119.028076 43,000 243 365 0
2018-12-13 23:01:32 GMT 40.089249 -119.008057 43,000 243 365 0
2018-12-13 23:01:22 GMT 40.097855 -118.986877 43,000 243 364 0
2018-12-13 23:01:11 GMT 40.106663 -118.965263 43,000 243 364 0
2018-12-13 23:01:02 GMT 40.113598 -118.948227 43,000 243 364 0
2018-12-13 23:00:58 GMT 40.116856 -118.940231 43,000 243 364 64
2018-12-13 23:00:49 GMT 40.130032 -118.907898 43,000 243 364 0
2018-12-13 23:00:38 GMT 40.132313 -118.902283 43,000 243 364 0
2018-12-13 23:00:33 GMT 40.137085 -118.890564 43,000 243 364 0
2018-12-13 23:00:25 GMT 40.142693 -118.876694 43,000 243 364 0
2018-12-13 23:00:16 GMT 40.149628 -118.859650 43,000 243 363 -64
2018-12-13 23:00:06 GMT 40.157452 -118.840294 43,000 243 363 64
2018-12-13 22:59:55 GMT 40.166061 -118.819008 43,000 243 363 -64
2018-12-13 22:59:44 GMT 40.174759 -118.797668 43,000 243 362 0
2018-12-13 22:59:34 GMT 40.182915 -118.777496 43,000 243 362 0
2018-12-13 22:59:22 GMT 40.191696 -118.755737 43,000 243 361 0
2018-12-13 22:59:11 GMT 40.200233 -118.734619 43,000 243 361 0
2018-12-13 22:59:00 GMT 40.208771 -118.713501 43,000 243 361 -64
2018-12-13 22:58:51 GMT 40.216709 -118.693916 43,000 243 361 0
2018-12-13 22:58:39 GMT 40.224930 -118.673584 43,000 243 361 0
2018-12-13 22:58:29 GMT 40.233330 -118.652657 43,000 243 360 -64
2018-12-13 22:58:18 GMT 40.241226 -118.633118 43,000 243 360 0
2018-12-13 22:58:07 GMT 40.249741 -118.612000 43,000 243 360 64
2018-12-13 22:58:00 GMT 40.256058 -118.596191 43,000 243 360 0
2018-12-13 22:57:56 GMT 40.258301 -118.590637 43,000 243 359 0
2018-12-13 22:57:45 GMT 40.266678 -118.569702 43,000 243 359 -64
2018-12-13 22:57:35 GMT 40.275146 -118.548645 43,000 243 357 64
2018-12-13 22:57:23 GMT 40.284027 -118.526497 43,000 243 357 -64
2018-12-13 22:57:13 GMT 40.291054 -118.508896 43,000 243 357 64
2018-12-13 22:57:08 GMT 40.294964 -118.499161 43,000 243 356 0
2018-12-13 22:57:04 GMT 40.299454 -118.488037 43,000 243 356 0
2018-12-13 22:56:52 GMT 40.307766 -118.467140 43,000 243 356 0
2018-12-13 22:56:41 GMT 40.315521 -118.447815 43,000 243 355 0
2018-12-13 22:56:23 GMT 40.329666 -118.412415 43,000 243 355 0
We lost coverage of the aircraft here for a total of 14 minutes
2018-12-13 22:42:01 GMT 40.986687 -116.720932 43,000 244 372 -128
2018-12-13 22:41:57 GMT 40.990131 -116.711761 43,000 244 370 0
2018-12-13 22:41:46 GMT 40.998463 -116.689728 43,000 244 370 -64
2018-12-13 22:41:34 GMT 41.007797 -116.664856 43,000 244 370 64
2018-12-13 22:41:25 GMT 41.014709 -116.646530 43,000 244 370 -64
2018-12-13 22:41:14 GMT 41.023041 -116.624329 43,000 244 370 0
2018-12-13 22:41:02 GMT 41.032242 -116.599792 43,000 244 370 0
2018-12-13 22:40:52 GMT 41.039520 -116.580421 43,000 244 370 -64
2018-12-13 22:40:41 GMT 41.047852 -116.558228 43,000 244 370 64
2018-12-13 22:40:30 GMT 41.056049 -116.536415 43,000 244 370 -64
2018-12-13 22:40:20 GMT 41.064056 -116.515076 43,000 244 370 0
2018-12-13 22:40:09 GMT 41.072250 -116.493225 43,000 244 369 0
2018-12-13 22:39:58 GMT 41.080536 -116.471062 43,000 244 369 -64
2018-12-13 22:39:48 GMT 41.088589 -116.449585 43,000 244 369 0
2018-12-13 22:39:36 GMT 41.097244 -116.426392 43,000 244 368 -64
2018-12-13 22:39:25 GMT 41.105625 -116.403893 43,000 244 368 0
2018-12-13 22:39:14 GMT 41.113907 -116.381714 43,000 244 368 0
2018-12-13 22:39:03 GMT 41.122192 -116.359436 43,000 244 368 0
2018-12-13 22:38:52 GMT 41.130253 -116.337914 43,000 244 368 -64
2018-12-13 22:38:41 GMT 41.138912 -116.314629 43,000 244 368 64
2018-12-13 22:38:30 GMT 41.146687 -116.293777 43,000 244 368 0
2018-12-13 22:38:19 GMT 41.155437 -116.270309 43,000 244 368 0
2018-12-13 22:38:09 GMT 41.163258 -116.249207 43,000 244 368 0
2018-12-13 22:37:58 GMT 41.171356 -116.227364 43,000 244 368 0
2018-12-13 22:37:47 GMT 41.179230 -116.206238 43,000 244 368 64
2018-12-13 22:37:36 GMT 41.187469 -116.183960 43,000 244 368 -64
2018-12-13 22:37:25 GMT 41.196171 -116.160385 43,000 244 368 64
2018-12-13 22:37:15 GMT 41.203667 -116.140099 43,000 244 368 0
2018-12-13 22:37:04 GMT 41.211777 -116.118164 43,000 244 368 -64
2018-12-13 22:36:52 GMT 41.220238 -116.095154 43,000 244 368 0
2018-12-13 22:36:42 GMT 41.228012 -116.074051 43,000 245 368 0
2018-12-13 22:36:32 GMT 41.235832 -116.052826 43,000 245 368 64
2018-12-13 22:36:21 GMT 41.243885 -116.030914 43,000 245 368 0
2018-12-13 22:36:10 GMT 41.251892 -116.009193 43,000 245 368 0
2018-12-13 22:35:59 GMT 41.260025 -115.987000 43,000 245 368 64
2018-12-13 22:35:48 GMT 41.267956 -115.965378 43,000 245 368 0
2018-12-13 22:35:37 GMT 41.276241 -115.942841 43,000 245 368 -64
2018-12-13 22:35:27 GMT 41.284012 -115.921631 43,000 245 368 0
2018-12-13 22:35:15 GMT 41.292767 -115.897774 43,000 245 368 0
2018-12-13 22:35:05 GMT 41.300587 -115.876549 43,000 245 368 -64
2018-12-13 22:34:54 GMT 41.308685 -115.854553 43,000 244 367 64
2018-12-13 22:34:42 GMT 41.317108 -115.831665 43,000 245 368 64
2018-12-13 22:34:32 GMT 41.324844 -115.810547 43,000 245 368 -64
2018-12-13 22:34:21 GMT 41.332947 -115.788391 43,000 245 368 0
2018-12-13 22:34:10 GMT 41.340946 -115.766563 43,000 245 368 64
2018-12-13 22:34:00 GMT 41.348923 -115.744690 43,000 245 368 -64
2018-12-13 22:33:49 GMT 41.357208 -115.722107 43,000 245 368 64
2018-12-13 22:33:38 GMT 41.365036 -115.700623 43,000 245 366 64
2018-12-13 22:33:27 GMT 41.373138 -115.678406 43,000 245 364 -64
2018-12-13 22:33:16 GMT 41.381027 -115.656631 43,000 245 360 64
2018-12-13 22:33:09 GMT 41.385864 -115.643433 43,000 245 359 128
2018-12-13 22:33:05 GMT 41.389023 -115.634659 43,000 245 357 0
2018-12-13 22:32:58 GMT 41.394157 -115.620567 43,000 245 356 -64
2018-12-13 22:32:54 GMT 41.396717 -115.613472 43,000 245 355 -128
2018-12-13 22:32:48 GMT 41.400951 -115.601913 43,000 245 352 0
2018-12-13 22:32:43 GMT 41.404495 -115.592026 43,000 245 350 0
2018-12-13 22:32:38 GMT 41.408310 -115.581474 43,000 245 349 -64
2018-12-13 22:32:32 GMT 41.412357 -115.570297 43,000 245 347 0
2018-12-13 22:32:27 GMT 41.416031 -115.560257 43,000 245 344 0
2018-12-13 22:32:21 GMT 41.420288 -115.548393 43,000 245 343 64
2018-12-13 22:32:16 GMT 41.423630 -115.539093 43,000 245 341 64
2018-12-13 22:32:11 GMT 41.427109 -115.529480 43,000 245 340 0
2018-12-13 22:32:05 GMT 41.431026 -115.518684 43,000 245 338 -64
2018-12-13 22:31:59 GMT 41.434982 -115.507698 43,000 245 335 -64
2018-12-13 22:31:54 GMT 41.438416 -115.498146 43,000 245 333 0
2018-12-13 22:31:48 GMT 41.442291 -115.487320 43,000 245 331 64
2018-12-13 22:31:43 GMT 41.445282 -115.479042 43,000 245 329 0
2018-12-13 22:31:38 GMT 41.449135 -115.468353 43,000 245 326 0
2018-12-13 22:31:32 GMT 41.452721 -115.458450 43,000 245 325 0
2018-12-13 22:31:27 GMT 41.456211 -115.448746 43,000 245 322 0
2018-12-13 22:31:22 GMT 41.459377 -115.439804 43,000 245 321 64
2018-12-13 22:31:16 GMT 41.463287 -115.428940 43,000 245 319 320
2018-12-13 22:31:11 GMT 41.466431 -115.420242 42,950 245 317 704
2018-12-13 22:31:05 GMT 41.470177 -115.409904 42,900 245 317 960
2018-12-13 22:30:58 GMT 41.474461 -115.397964 42,775 245 317 1024
2018-12-13 22:30:54 GMT 41.477253 -115.390236 42,700 245 317 960
2018-12-13 22:30:49 GMT 41.480209 -115.382103 42,625 245 318 1024
2018-12-13 22:30:42 GMT 41.484329 -115.370613 42,525 245 318 1024
2018-12-13 22:30:38 GMT 41.487446 -115.362068 42,450 245 318 1024
2018-12-13 22:30:31 GMT 41.491745 -115.350143 42,325 245 319 1024
2018-12-13 22:30:26 GMT 41.494995 -115.341087 42,250 245 319 960
2018-12-13 22:30:21 GMT 41.498108 -115.332497 42,175 245 320 1024
2018-12-13 22:30:15 GMT 41.501633 -115.322678 42,075 245 320 1024
2018-12-13 22:30:10 GMT 41.505138 -115.312950 42,000 245 320 960
2018-12-13 22:30:06 GMT 41.507904 -115.305260 41,925 245 320 960
2018-12-13 22:29:59 GMT 41.511841 -115.294296 41,825 245 320 1024
2018-12-13 22:29:55 GMT 41.514496 -115.286972 41,750 245 320 1024
2018-12-13 22:29:48 GMT 41.519382 -115.273346 41,625 245 320 960
2018-12-13 22:29:44 GMT 41.521408 -115.267746 41,575 245 320 960
2018-12-13 22:29:36 GMT 41.527061 -115.252075 41,425 245 320 960
2018-12-13 22:29:31 GMT 41.529812 -115.244408 41,375 245 319 960
2018-12-13 22:29:26 GMT 41.533070 -115.235405 41,275 245 319 1024
2018-12-13 22:29:23 GMT 41.535233 -115.229477 41,225 245 319 1024
2018-12-13 22:29:15 GMT 41.539959 -115.216240 41,100 245 319 1024
2018-12-13 22:29:12 GMT 41.542007 -115.210686 41,050 245 319 1024
2018-12-13 22:29:05 GMT 41.546803 -115.197334 40,925 245 319 1024
2018-12-13 22:29:01 GMT 41.548897 -115.191460 40,875 245 318 1024
2018-12-13 22:28:54 GMT 41.553738 -115.177979 40,725 245 318 960
2018-12-13 22:28:51 GMT 41.555740 -115.172295 40,675 245 319 896
2018-12-13 22:28:43 GMT 41.560673 -115.158310 40,550 246 317 1408
2018-12-13 22:28:39 GMT 41.563202 -115.151077 40,475 246 318 1728
2018-12-13 22:28:32 GMT 41.567425 -115.138702 40,250 246 320 1984
2018-12-13 22:28:29 GMT 41.568924 -115.134285 40,175 247 322 1984
2018-12-13 22:28:21 GMT 41.573708 -115.119598 39,900 247 324 1920
2018-12-13 22:28:18 GMT 41.575607 -115.113625 39,800 247 326 1920
2018-12-13 22:28:10 GMT 41.580643 -115.099266 39,550 243 334 1920
2018-12-13 22:28:07 GMT 41.582973 -115.093536 39,450 240 337 1984
2018-12-13 22:28:00 GMT 41.589024 -115.080383 39,200 236 344 1984
2018-12-13 22:27:56 GMT 41.592236 -115.074310 39,100 233 348 1984
2018-12-13 22:27:48 GMT 41.600338 -115.061028 38,825 229 355 1984
2018-12-13 22:27:45 GMT 41.603577 -115.056442 38,725 226 361 1984
2018-12-13 22:27:38 GMT 41.612457 -115.045456 38,500 220 369 1984
2018-12-13 22:27:35 GMT 41.617188 -115.040337 38,375 217 374 1984
2018-12-13 22:27:27 GMT 41.627747 -115.030602 38,150 212 383 1984
2018-12-13 22:27:23 GMT 41.633484 -115.026093 38,025 209 387 1984
2018-12-13 22:27:16 GMT 41.645737 -115.017990 37,775 203 398 1984
2018-12-13 22:27:12 GMT 41.652660 -115.014206 37,650 201 401 1984
2018-12-13 22:27:05 GMT 41.664810 -115.008461 37,425 199 406 1984
2018-12-13 22:27:01 GMT 41.671280 -115.005569 37,300 199 407 1984
2018-12-13 22:26:54 GMT 41.684555 -114.999580 37,050 199 409 1984
2018-12-13 22:26:50 GMT 41.690742 -114.996773 36,925 199 411 1984
2018-12-13 22:26:43 GMT 41.703461 -114.991089 36,700 199 413 1984
2018-12-13 22:26:40 GMT 41.709686 -114.988274 36,600 199 414 1984
2018-12-13 22:26:33 GMT 41.722733 -114.982414 36,350 199 416 1984
2018-12-13 22:26:29 GMT 41.730309 -114.978951 36,225 199 418 1984
2018-12-13 22:26:22 GMT 41.742554 -114.973457 36,000 199 420 1920
2018-12-13 22:26:17 GMT 41.752258 -114.969055 35,825 199 421 1920
2018-12-13 22:26:11 GMT 41.763519 -114.963936 35,650 199 422 1920
2018-12-13 22:26:08 GMT 41.769287 -114.961311 35,550 199 423 2048
2018-12-13 22:26:00 GMT 41.782837 -114.955193 35,275 199 426 2048
2018-12-13 22:25:57 GMT 41.789749 -114.952072 35,150 199 427 1472
2018-12-13 22:25:49 GMT 41.803398 -114.945862 35,025 199 429 320
2018-12-13 22:25:46 GMT 41.809402 -114.943184 35,000 199 428 64
2018-12-13 22:25:39 GMT 41.822800 -114.937157 35,000 199 429 0
2018-12-13 22:25:35 GMT 41.830444 -114.933723 35,000 199 432 0
2018-12-13 22:25:28 GMT 41.844131 -114.927528 35,000 199 434 0
2018-12-13 22:25:24 GMT 41.850227 -114.924782 35,000 199 436 0
2018-12-13 22:25:17 GMT 41.864090 -114.918556 35,000 199 438 0
2018-12-13 22:25:13 GMT 41.871502 -114.915207 35,000 199 449 64
2018-12-13 22:25:07 GMT 41.884552 -114.909317 35,000 199 443 0
2018-12-13 22:25:03 GMT 41.892639 -114.905685 35,000 199 444 0
2018-12-13 22:24:55 GMT 41.907166 -114.899078 35,000 199 447 -64
2018-12-13 22:24:52 GMT 41.913120 -114.896423 35,000 199 448 -64
2018-12-13 22:24:45 GMT 41.926716 -114.890228 35,000 199 450 64
2018-12-13 22:24:41 GMT 41.935318 -114.886345 35,000 199 451 64
2018-12-13 22:24:34 GMT 41.948872 -114.880135 35,000 199 451 0
2018-12-13 22:24:28 GMT 41.970798 -114.870171 35,000 199 449 64
2018-12-13 22:24:23 GMT 41.970798 -114.870171 35,000 199 450 0
2018-12-13 22:24:19 GMT 41.977798 -114.866989 35,000 199 449 64
2018-12-13 22:24:13 GMT 41.991028 -114.860939 35,000 199 450 0
2018-12-13 22:24:08 GMT 41.999313 -114.857193 35,000 199 450 64
2018-12-13 22:24:02 GMT 42.012314 -114.851257 35,000 199 450 0
2018-12-13 22:23:57 GMT 42.021194 -114.847267 35,000 199 450 0
2018-12-13 22:23:51 GMT 42.033783 -114.841522 35,000 199 450 0
2018-12-13 22:23:46 GMT 42.043934 -114.836891 35,000 199 450 0
2018-12-13 22:23:40 GMT 42.055252 -114.831726 35,000 199 450 0
2018-12-13 22:23:36 GMT 42.063309 -114.828041 35,000 199 449 0
2018-12-13 22:23:30 GMT 42.075588 -114.822395 35,000 199 448 -64
2018-12-13 22:23:25 GMT 42.084621 -114.818306 35,000 199 448 0
2018-12-13 22:23:18 GMT 42.097687 -114.812370 35,000 199 447 -64
2018-12-13 22:23:14 GMT 42.106220 -114.808472 35,000 199 447 0
2018-12-13 22:23:08 GMT 42.118240 -114.802948 35,000 199 446 -64
2018-12-13 22:23:02 GMT 42.129311 -114.797867 35,000 199 446 0
2018-12-13 22:22:57 GMT 42.139984 -114.793022 35,000 199 446 0
2018-12-13 22:22:46 GMT 42.160591 -114.783623 35,000 199 445 0
2018-12-13 22:22:35 GMT 42.181961 -114.773857 35,000 199 445 64
2018-12-13 22:22:29 GMT 42.193634 -114.768486 35,000 199 444 0
2018-12-13 22:22:25 GMT 42.202011 -114.764679 35,000 199 444 0
2018-12-13 22:22:17 GMT 42.217247 -114.757751 35,000 199 443 0
2018-12-13 22:22:14 GMT 42.224045 -114.754623 35,000 199 442 64
2018-12-13 22:22:09 GMT 42.232864 -114.750572 35,000 199 442 64
2018-12-13 22:22:03 GMT 42.244492 -114.745270 35,000 199 441 0
2018-12-13 22:21:57 GMT 42.256165 -114.739929 35,000 199 440 0
2018-12-13 22:21:52 GMT 42.265198 -114.735779 35,000 199 439 64
2018-12-13 22:21:45 GMT 42.279114 -114.729462 35,000 199 439 0
2018-12-13 22:21:41 GMT 42.286285 -114.726166 35,000 199 438 -64
2018-12-13 22:21:36 GMT 42.296574 -114.721474 35,000 199 437 0
2018-12-13 22:21:31 GMT 42.307045 -114.716682 35,000 199 435 -64
2018-12-13 22:21:26 GMT 42.315720 -114.712746 35,000 199 435 0
2018-12-13 22:21:20 GMT 42.327530 -114.707375 35,000 199 432 -64
2018-12-13 22:21:15 GMT 42.337070 -114.703011 35,000 199 431 0
2018-12-13 22:21:09 GMT 42.348061 -114.697968 35,000 199 431 64
2018-12-13 22:21:04 GMT 42.358021 -114.693367 35,000 199 430 0
2018-12-13 22:20:58 GMT 42.368729 -114.688454 35,000 199 428 -64
2018-12-13 22:20:52 GMT 42.379074 -114.683655 35,000 199 427 -64
2018-12-13 22:20:47 GMT 42.388367 -114.679352 35,000 199 424 0
2018-12-13 22:20:42 GMT 42.397545 -114.675102 35,000 199 420 -64
2018-12-13 22:20:37 GMT 42.407784 -114.670311 35,000 200 416 0
2018-12-13 22:20:31 GMT 42.418678 -114.665268 35,000 200 413 0
2018-12-13 22:20:26 GMT 42.427414 -114.661186 35,000 200 409 64
2018-12-13 22:20:19 GMT 42.439209 -114.655617 35,000 200 405 0
2018-12-13 22:20:15 GMT 42.446182 -114.652321 35,000 200 401 -64
2018-12-13 22:20:10 GMT 42.456059 -114.647697 35,000 200 395 128
2018-12-13 22:20:04 GMT 42.465637 -114.643143 35,000 200 393 192
2018-12-13 22:19:54 GMT 42.483246 -114.634865 34,950 200 386 640
2018-12-13 22:19:47 GMT 42.494373 -114.629684 34,875 200 383 896
2018-12-13 22:19:43 GMT 42.501404 -114.626427 34,800 199 381 1472
2018-12-13 22:19:36 GMT 42.512760 -114.621124 34,625 199 381 1984
2018-12-13 22:19:31 GMT 42.520580 -114.617485 34,475 199 382 1984
2018-12-13 22:19:25 GMT 42.531151 -114.612633 34,250 199 382 1984
2018-12-13 22:19:21 GMT 42.538177 -114.609375 34,125 199 383 1984
2018-12-13 22:19:15 GMT 42.547768 -114.604965 33,925 199 384 1984
2018-12-13 22:19:11 GMT 42.555168 -114.601517 33,775 199 385 1984
2018-12-13 22:19:05 GMT 42.565598 -114.596664 33,575 199 385 1984
2018-12-13 22:19:00 GMT 42.573559 -114.593025 33,425 199 386 1984
2018-12-13 22:18:53 GMT 42.584869 -114.587784 33,200 199 386 1984
2018-12-13 22:18:49 GMT 42.592255 -114.584343 33,050 199 387 1984
2018-12-13 22:18:43 GMT 42.602325 -114.579674 32,850 199 387 1984
2018-12-13 22:18:38 GMT 42.610062 -114.576103 32,700 199 388 1984
2018-12-13 22:18:32 GMT 42.621780 -114.570740 32,475 199 388 1984
2018-12-13 22:18:28 GMT 42.627975 -114.567856 32,350 199 388 1984
2018-12-13 22:18:20 GMT 42.640545 -114.561981 32,100 199 388 1984
2018-12-13 22:18:17 GMT 42.647202 -114.558914 31,975 199 388 2048
2018-12-13 22:18:10 GMT 42.657623 -114.554070 31,775 199 388 1984
2018-12-13 22:18:06 GMT 42.665031 -114.550613 31,625 199 388 1984
2018-12-13 22:18:00 GMT 42.675659 -114.545708 31,425 199 388 1984
2018-12-13 22:17:55 GMT 42.683372 -114.542114 31,275 199 388 1984
2018-12-13 22:17:49 GMT 42.693970 -114.537216 31,075 199 388 1984
2018-12-13 22:17:44 GMT 42.702042 -114.533432 30,900 199 387 2048
2018-12-13 22:17:38 GMT 42.712189 -114.528702 30,700 199 387 1984
2018-12-13 22:17:33 GMT 42.720989 -114.524612 30,525 199 387 1984
2018-12-13 22:17:27 GMT 42.731602 -114.519630 30,325 200 386 1984
2018-12-13 22:17:23 GMT 42.738785 -114.516304 30,175 199 384 2048
2018-12-13 22:17:17 GMT 42.748352 -114.511810 30,000 200 383 2048
2018-12-13 22:17:12 GMT 42.757019 -114.507812 29,825 200 383 1984
2018-12-13 22:17:06 GMT 42.766750 -114.503220 29,625 200 382 1984
2018-12-13 22:17:01 GMT 42.775040 -114.499321 29,275 199 375 1984
2018-12-13 22:16:54 GMT 42.786953 -114.493767 29,225 200 382 1984
2018-12-13 22:16:50 GMT 42.793285 -114.490761 28,700 199 375 1984
2018-12-13 22:16:42 GMT 42.806213 -114.484718 28,850 200 380 1984
2018-12-13 22:16:39 GMT 42.811485 -114.482246 28,675 199 375 1984
2018-12-13 22:16:34 GMT 42.820610 -114.477997 28,550 199 379 2048
2018-12-13 22:16:29 GMT 42.828896 -114.474136 28,375 199 378 2048
2018-12-13 22:16:22 GMT 42.839603 -114.469101 28,175 200 377 1984
2018-12-13 22:16:17 GMT 42.847889 -114.465248 28,000 199 377 2048
2018-12-13 22:16:07 GMT 42.864899 -114.457291 27,650 199 375 2048
2018-12-13 22:15:56 GMT 42.881828 -114.449417 27,225 200 371 2048
2018-12-13 22:15:45 GMT 42.899937 -114.440918 26,900 200 370 2048
2018-12-13 22:15:35 GMT 42.916672 -114.433083 26,525 200 368 2048
2018-12-13 22:15:24 GMT 42.934570 -114.424698 26,150 199 365 2048
2018-12-13 22:15:13 GMT 42.951416 -114.416794 25,825 200 362 1984
2018-12-13 22:15:02 GMT 42.968552 -114.408676 25,425 200 358 2048
2018-12-13 22:14:52 GMT 42.985565 -114.400696 24,975 200 352 1984
2018-12-13 22:14:41 GMT 43.018551 -114.385071 24,675 200 352 1984
2018-12-13 22:14:30 GMT 43.018551 -114.385071 24,325 200 346 2048
2018-12-13 22:14:19 GMT 43.051647 -114.369438 23,800 200 345 2048
2018-12-13 22:14:08 GMT 43.051647 -114.369438 23,550 200 338 2048
2018-12-13 22:13:57 GMT 43.067917 -114.361732 23,300 200 337 1984
2018-12-13 22:13:47 GMT 43.083435 -114.354324 22,950 200 333 2048
2018-12-13 22:13:36 GMT 43.098953 -114.346977 22,550 200 329 2112
2018-12-13 22:13:24 GMT 43.116776 -114.338577 22,150 200 324 2112
2018-12-13 22:13:14 GMT 43.130264 -114.332230 21,750 199 321 2816
2018-12-13 22:13:03 GMT 43.145691 -114.325005 21,225 199 321 3328
2018-12-13 22:12:52 GMT 43.161209 -114.317726 20,625 199 322 3008
2018-12-13 22:12:41 GMT 43.177200 -114.310127 20,050 200 321 2944
2018-12-13 22:12:30 GMT 43.191864 -114.303131 19,550 200 315 2176
2018-12-13 22:12:19 GMT 43.206711 -114.295944 19,200 200 307 2368
2018-12-13 22:12:09 GMT 43.220535 -114.289299 18,775 200 300 3392
2018-12-13 22:11:58 GMT 43.235138 -114.282341 18,125 200 300 2880
2018-12-13 22:11:47 GMT 43.249451 -114.275665 17,650 199 295 2752
2018-12-13 22:11:36 GMT 43.262997 -114.269455 17,075 201 288 4096
2018-12-13 22:11:25 GMT 43.276173 -114.261017 16,325 210 285 3840
2018-12-13 22:11:15 GMT 43.288273 -114.251472 15,700 211 284 3264
2018-12-13 22:11:04 GMT 43.300423 -114.241135 15,050 212 278 3968
2018-12-13 22:10:53 GMT 43.312435 -114.232567 14,425 202 283 3008
2018-12-13 22:10:42 GMT 43.326260 -114.226944 13,825 191 284 3648
2018-12-13 22:10:31 GMT 43.340790 -114.225365 13,200 175 287 3456
2018-12-13 22:10:21 GMT 43.354519 -114.228058 12,575 166 286 3904
2018-12-13 22:10:10 GMT 43.368389 -114.232834 11,900 165 284 3264
2018-12-13 22:09:59 GMT 43.382126 -114.237602 11,350 165 275 3392
2018-12-13 22:09:48 GMT 43.395622 -114.242249 10,725 165 270 3264
2018-12-13 22:09:38 GMT 43.408264 -114.246574 10,125 166 261 4160
2018-12-13 22:09:27 GMT 43.420670 -114.250725 9,300 166 261 4288
2018-12-13 22:09:17 GMT 43.432961 -114.254807 8,650 166 258 2752
2018-12-13 22:09:05 GMT 43.445480 -114.258896 8,150 166 242 3008
2018-12-13 22:08:54 GMT 43.457260 -114.262917 7,575 165 230 3072
We lost coverage of the aircraft here for a total of 93 minutes
2018-12-13 20:35:54 GMT 43.475506 -114.268082 5,450 326 127 -832
2018-12-13 20:35:44 GMT 43.470612 -114.263367 5,600 326 130 -1152
2018-12-13 20:35:33 GMT 43.465218 -114.258530 5,775 329 131 -448
2018-12-13 20:35:22 GMT 43.459396 -114.254173 5,825 335 130 -128
2018-12-13 20:35:12 GMT 43.453491 -114.250725 5,850 339 131 -64
2018-12-13 20:35:00 GMT 43.447205 -114.247353 5,850 339 134 64
2018-12-13 20:34:50 GMT 43.440857 -114.243759 5,875 338 136 -448
2018-12-13 20:34:39 GMT 43.434814 -114.240440 5,950 338 133 -448
2018-12-13 20:34:28 GMT 43.428581 -114.236954 6,025 339 129 -512
2018-12-13 20:34:18 GMT 43.422684 -114.234116 6,125 348 129 -384
2018-12-13 20:34:07 GMT 43.416245 -114.232437 6,175 352 132 -448
2018-12-13 20:33:56 GMT 43.409588 -114.231331 6,250 356 133 -640
2018-12-13 20:33:45 GMT 43.402840 -114.230804 6,350 358 131 -384
2018-12-13 20:33:34 GMT 43.396042 -114.230667 6,425 1 138 -512
2018-12-13 20:33:23 GMT 43.389221 -114.231178 6,500 4 143 -384
2018-12-13 20:33:12 GMT 43.381531 -114.232643 6,575 13 155 -448
2018-12-13 20:33:02 GMT 43.374443 -114.235641 6,675 21 157 -640
2018-12-13 20:32:51 GMT 43.367413 -114.239830 6,775 24 156 -576
2018-12-13 20:32:41 GMT 43.360565 -114.244209 6,825 25 153 64
2018-12-13 20:32:30 GMT 43.353539 -114.248589 6,825 22 154 -128
2018-12-13 20:32:19 GMT 43.346603 -114.252449 6,850 21 153 -128
2018-12-13 20:32:08 GMT 43.339371 -114.256218 6,925 21 149 -448
2018-12-13 20:31:57 GMT 43.333008 -114.261261 6,950 40 145 128
2018-12-13 20:31:47 GMT 43.328587 -114.267883 6,950 56 138 -128
2018-12-13 20:31:36 GMT 43.325146 -114.276840 6,975 71 158 -64
2018-12-13 20:31:25 GMT 43.323143 -114.287697 6,975 78 176 64
2018-12-13 20:31:14 GMT 43.321243 -114.300224 6,975 78 187 -64
2018-12-13 20:31:04 GMT 43.319420 -114.312546 6,975 78 198 0
2018-12-13 20:30:53 GMT 43.317276 -114.326736 6,975 78 207 64
2018-12-13 20:30:42 GMT 43.315201 -114.340340 6,950 78 212 0
2018-12-13 20:30:31 GMT 43.312901 -114.355644 6,950 78 218 -128
2018-12-13 20:30:21 GMT 43.310852 -114.369461 7,000 78 229 -576
2018-12-13 20:30:10 GMT 43.308525 -114.384743 7,125 78 236 -1344
2018-12-13 20:29:59 GMT 43.306091 -114.400887 7,375 78 239 -1408
2018-12-13 20:29:49 GMT 43.303665 -114.416985 7,625 78 241 -1408
2018-12-13 20:29:38 GMT 43.301147 -114.433464 7,900 78 243 -1408
2018-12-13 20:29:27 GMT 43.298767 -114.449371 8,150 78 245 -1408
2018-12-13 20:29:15 GMT 43.296047 -114.467140 8,425 78 247 -1408
2018-12-13 20:29:05 GMT 43.293579 -114.483421 8,575 78 254 -320
2018-12-13 20:28:54 GMT 43.290894 -114.500984 8,650 78 267 -960
2018-12-13 20:28:43 GMT 43.288147 -114.519119 8,875 78 273 -1472
2018-12-13 20:28:33 GMT 43.285400 -114.536812 9,150 78 278 -1536
2018-12-13 20:28:22 GMT 43.282547 -114.555748 9,425 78 284 -1536
2018-12-13 20:28:11 GMT 43.279568 -114.575302 9,700 78 294 -1536
2018-12-13 20:28:00 GMT 43.276382 -114.596092 9,975 78 304 -1536
2018-12-13 20:27:49 GMT 43.273315 -114.616211 10,250 78 316 -1536
2018-12-13 20:27:39 GMT 43.270111 -114.637161 10,525 78 330 -704
2018-12-13 20:27:28 GMT 43.266720 -114.659203 10,575 78 334 0
2018-12-13 20:27:17 GMT 43.263062 -114.682892 10,575 78 334 0
2018-12-13 20:27:07 GMT 43.259811 -114.704231 10,575 78 334 0
2018-12-13 20:26:56 GMT 43.256332 -114.726776 10,575 78 333 0
2018-12-13 20:26:45 GMT 43.252800 -114.749451 10,575 77 336 0
2018-12-13 20:26:34 GMT 43.249329 -114.771996 10,575 78 340 -128
2018-12-13 20:26:24 GMT 43.245895 -114.793968 10,625 78 343 -640
2018-12-13 20:26:13 GMT 43.242279 -114.817223 10,775 78 346 -1088
2018-12-13 20:26:02 GMT 43.238651 -114.840614 11,000 78 356 -1088
2018-12-13 20:25:51 GMT 43.234879 -114.864677 11,175 77 364 -1216
2018-12-13 20:25:41 GMT 43.231201 -114.888542 11,475 78 368 -1984
2018-12-13 20:25:29 GMT 43.227219 -114.914116 11,850 77 373 -2048
2018-12-13 20:25:18 GMT 43.223194 -114.939751 12,225 77 378 -1984
2018-12-13 20:25:08 GMT 43.219563 -114.963097 12,550 77 383 -2048
2018-12-13 20:24:58 GMT 43.215561 -114.988731 12,900 77 393 -1984
2018-12-13 20:24:47 GMT 43.211426 -115.015488 13,275 77 396 -2048
2018-12-13 20:24:36 GMT 43.207352 -115.041351 13,625 77 398 -1984
2018-12-13 20:24:25 GMT 43.202991 -115.069168 14,000 77 401 -2048
2018-12-13 20:24:15 GMT 43.198895 -115.095261 14,350 77 403 -2048
2018-12-13 20:24:04 GMT 43.194611 -115.122139 14,725 77 403 -1984
2018-12-13 20:23:53 GMT 43.190327 -115.149010 15,075 77 403 -2048
2018-12-13 20:23:42 GMT 43.186020 -115.176132 15,450 77 404 -2048
2018-12-13 20:23:31 GMT 43.181671 -115.203598 15,800 77 405 -1984
2018-12-13 20:23:21 GMT 43.177479 -115.230034 16,150 77 406 -2048
2018-12-13 20:23:09 GMT 43.173065 -115.257828 16,525 77 407 -1984
2018-12-13 20:22:59 GMT 43.168671 -115.285225 16,900 77 408 -2048
2018-12-13 20:22:48 GMT 43.164261 -115.312889 17,250 77 409 -2048
2018-12-13 20:22:36 GMT 43.159698 -115.341469 17,650 77 410 -2048
2018-12-13 20:22:26 GMT 43.155693 -115.366585 17,975 77 411 -1984
2018-12-13 20:22:16 GMT 43.151367 -115.393936 18,325 77 413 -1984
2018-12-13 20:22:05 GMT 43.146835 -115.422043 18,700 77 414 -2048
2018-12-13 20:21:54 GMT 43.142521 -115.448784 19,050 77 415 -1984
2018-12-13 20:21:44 GMT 43.138096 -115.476311 19,400 77 418 -1984
2018-12-13 20:21:33 GMT 43.133533 -115.504501 19,775 77 420 -1984
2018-12-13 20:21:21 GMT 43.128647 -115.534515 20,150 77 424 -2048
2018-12-13 20:21:11 GMT 43.124405 -115.560844 20,475 77 426 -2048
2018-12-13 20:21:00 GMT 43.119709 -115.589706 20,850 77 428 -1984
2018-12-13 20:20:53 GMT 43.116577 -115.609131 21,075 77 430 -2048
2018-12-13 20:20:49 GMT 43.115051 -115.618286 21,225 77 431 -1984
2018-12-13 20:20:42 GMT 43.111084 -115.642662 21,525 77 433 -1984
2018-12-13 20:20:39 GMT 43.110493 -115.646278 21,575 77 433 -1984
2018-12-13 20:20:31 GMT 43.106907 -115.668510 21,800 77 436 -1984
2018-12-13 20:20:27 GMT 43.105499 -115.676964 21,950 77 438 -1984
2018-12-13 20:20:15 GMT 43.100098 -115.710243 22,350 77 440 -1984
2018-12-13 20:20:07 GMT 43.096390 -115.732857 22,625 77 443 -1984
2018-12-13 20:20:00 GMT 43.093128 -115.752998 22,875 77 445 -1984
2018-12-13 20:19:55 GMT 43.091267 -115.764244 23,000 77 446 -2048
2018-12-13 20:19:49 GMT 43.088013 -115.784210 23,225 77 448 -1984
2018-12-13 20:19:43 GMT 43.085911 -115.797073 23,400 77 449 -1984
2018-12-13 20:19:40 GMT 43.083710 -115.810272 23,550 77 451 -2048
2018-12-13 20:19:34 GMT 43.081421 -115.824196 23,725 77 453 -1920
2018-12-13 20:19:28 GMT 43.078812 -115.840164 23,925 77 456 -896
2018-12-13 20:19:23 GMT 43.076599 -115.853508 23,975 77 457 -192
2018-12-13 20:19:17 GMT 43.073715 -115.870903 24,000 77 457 -64
2018-12-13 20:19:08 GMT 43.068779 -115.900726 24,025 77 457 -448
2018-12-13 20:18:56 GMT 43.063847 -115.930481 24,150 77 457 -1088
2018-12-13 20:18:46 GMT 43.053696 -115.991432 24,400 77 459 -2048
2018-12-13 20:18:35 GMT 43.053696 -115.991432 24,775 77 458 -1984
2018-12-13 20:18:25 GMT 43.048737 -116.021118 25,100 77 458 -1984
2018-12-13 20:18:14 GMT 43.043884 -116.050056 25,475 77 455 -1920
2018-12-13 20:18:03 GMT 43.038567 -116.081802 25,850 77 453 -1984
2018-12-13 20:17:52 GMT 43.033958 -116.109398 26,200 77 456 -1984
2018-12-13 20:17:42 GMT 43.028824 -116.140182 26,525 77 458 -1984
2018-12-13 20:17:32 GMT 43.023857 -116.169632 26,900 77 460 -2048
2018-12-13 20:17:20 GMT 43.018845 -116.199516 27,250 77 462 -2048
2018-12-13 20:17:11 GMT 43.013626 -116.230560 27,575 77 464 -1984
2018-12-13 20:17:00 GMT 43.008682 -116.260010 27,925 77 466 -1984
2018-12-13 20:16:48 GMT 43.003376 -116.291527 28,325 77 468 -2048
2018-12-13 20:16:39 GMT 42.998299 -116.321739 28,675 76 470 -1984
2018-12-13 20:16:28 GMT 42.992889 -116.353645 29,000 76 470 -1984
2018-12-13 20:16:16 GMT 42.987671 -116.384239 29,650 76 471 -1984
2018-12-13 20:16:07 GMT 42.982567 -116.414207 29,700 76 472 -2048
2018-12-13 20:15:56 GMT 42.977280 -116.445305 30,075 76 471 -1984
2018-12-13 20:15:45 GMT 42.971832 -116.477051 30,425 76 471 -1984
2018-12-13 20:15:31 GMT 42.964924 -116.517593 30,850 76 470 -1984
2018-12-13 20:15:24 GMT 42.961533 -116.537285 31,100 76 469 -1984
2018-12-13 20:14:52 GMT 42.945557 -116.629875 32,175 76 466 -1984
2018-12-13 20:14:41 GMT 42.940384 -116.659798 32,525 76 468 -2048
2018-12-13 20:14:31 GMT 42.935165 -116.689941 32,875 76 470 -1984
2018-12-13 20:14:17 GMT 42.928345 -116.729485 33,325 76 472 -2048
2018-12-13 20:14:09 GMT 42.924561 -116.751053 33,575 76 472 -1984
2018-12-13 20:13:59 GMT 42.918869 -116.783966 33,950 76 474 -1984
2018-12-13 20:13:47 GMT 42.913651 -116.813606 34,300 76 475 -1984
2018-12-13 20:13:37 GMT 42.908295 -116.844131 34,625 76 476 -2048
2018-12-13 20:13:27 GMT 42.902573 -116.876457 35,000 76 476 -1984
2018-12-13 20:13:15 GMT 42.896912 -116.908005 35,375 76 475 -1984
We lost coverage of the aircraft here for a total of 12 minutes
2018-12-13 20:01:35 GMT 42.025635 -118.410522 45,000 35 418 0
We lost coverage of the aircraft here for a total of 7 minutes
2018-12-13 19:54:46 GMT 41.384426 -119.011772 45,000 34 425 64
2018-12-13 19:54:35 GMT 41.365711 -119.029060 45,000 34 425 0
2018-12-13 19:52:44 GMT 41.188889 -119.192139 45,000 34 428 64
2018-12-13 19:52:40 GMT 41.180420 -119.199890 45,000 34 429 -128
2018-12-13 19:52:30 GMT 41.164307 -119.214722 45,000 34 428 0
2018-12-13 19:52:19 GMT 41.145988 -119.231499 45,000 34 429 64
2018-12-13 19:52:15 GMT 41.140503 -119.236511 45,000 34 429 0
2018-12-13 19:52:05 GMT 41.124901 -119.250847 45,000 34 429 -64
2018-12-13 19:52:02 GMT 41.121094 -119.254333 45,000 34 429 0
2018-12-13 19:51:53 GMT 41.104752 -119.269348 45,000 34 429 0
2018-12-13 19:51:43 GMT 41.087891 -119.284805 45,000 34 429 -64
2018-12-13 19:51:34 GMT 41.073074 -119.298401 45,000 34 429 0
2018-12-13 19:51:31 GMT 41.069000 -119.302124 45,000 34 429 0
2018-12-13 19:51:21 GMT 41.052929 -119.316826 45,000 34 429 0
2018-12-13 19:51:10 GMT 41.035938 -119.332436 45,000 34 430 0
2018-12-13 19:51:00 GMT 41.018620 -119.348289 45,000 34 430 0
2018-12-13 19:50:48 GMT 40.997406 -119.367554 45,000 34 429 0
2018-12-13 19:50:39 GMT 40.982574 -119.381104 45,000 34 429 0
2018-12-13 19:50:28 GMT 40.967133 -119.395172 45,000 34 429 0
2018-12-13 19:50:17 GMT 40.946743 -119.413773 45,000 34 429 0
2018-12-13 19:50:06 GMT 40.928741 -119.430237 45,000 34 429 0
2018-12-13 19:49:55 GMT 40.911549 -119.445854 45,000 34 429 0
2018-12-13 19:49:44 GMT 40.892929 -119.462776 45,000 34 429 0
2018-12-13 19:49:35 GMT 40.880035 -119.474510 45,000 34 429 0
2018-12-13 19:49:31 GMT 40.872307 -119.481499 45,000 34 429 0
2018-12-13 19:49:25 GMT 40.863506 -119.489487 45,000 34 428 0
2018-12-13 19:49:21 GMT 40.856094 -119.496277 45,000 34 428 64
2018-12-13 19:49:15 GMT 40.845795 -119.505554 45,000 34 429 64
2018-12-13 19:49:11 GMT 40.839348 -119.511398 45,000 34 429 0
2018-12-13 19:49:03 GMT 40.828629 -119.521118 45,000 34 429 0
2018-12-13 19:49:00 GMT 40.821331 -119.527756 45,000 34 429 64
2018-12-13 19:48:52 GMT 40.810776 -119.537292 45,000 34 429 0
2018-12-13 19:48:46 GMT 40.800243 -119.546860 45,000 34 429 0
2018-12-13 19:48:42 GMT 40.792889 -119.553535 45,000 34 429 0
2018-12-13 19:48:34 GMT 40.780701 -119.564575 45,000 34 429 0
2018-12-13 19:48:29 GMT 40.772964 -119.571571 45,000 34 429 0
2018-12-13 19:48:26 GMT 40.765610 -119.578255 45,000 34 429 64
2018-12-13 19:48:19 GMT 40.756577 -119.586372 45,000 34 429 64
2018-12-13 19:48:12 GMT 40.743355 -119.598351 45,000 34 429 0
2018-12-13 19:48:08 GMT 40.737633 -119.603539 45,000 34 429 0
2018-12-13 19:48:03 GMT 40.728378 -119.611877 45,000 34 429 0
2018-12-13 19:47:58 GMT 40.719616 -119.619766 45,000 34 429 0
2018-12-13 19:47:49 GMT 40.706314 -119.631775 45,000 34 429 -64
2018-12-13 19:47:46 GMT 40.702621 -119.635124 45,000 34 429 0
2018-12-13 19:47:43 GMT 40.695190 -119.641785 45,000 34 429 0
2018-12-13 19:47:39 GMT 40.688377 -119.647919 45,000 34 429 64
2018-12-13 19:47:35 GMT 40.682281 -119.653442 45,000 34 429 0
2018-12-13 19:47:31 GMT 40.676697 -119.658447 45,000 34 429 0
2018-12-13 19:47:28 GMT 40.671799 -119.662842 45,000 34 429 0
2018-12-13 19:47:22 GMT 40.660774 -119.672821 45,000 34 429 0
2018-12-13 19:47:17 GMT 40.654495 -119.678467 45,000 34 429 -64
2018-12-13 19:47:12 GMT 40.644432 -119.687553 45,000 34 429 -64
2018-12-13 19:47:07 GMT 40.636642 -119.694519 45,000 34 429 0
2018-12-13 19:47:00 GMT 40.624557 -119.705444 45,000 34 428 64
2018-12-13 19:46:56 GMT 40.612404 -119.716393 45,000 34 427 0
2018-12-13 19:46:51 GMT 40.612404 -119.716393 45,000 34 427 0
2018-12-13 19:46:45 GMT 40.601715 -119.726013 45,000 34 427 0
2018-12-13 19:46:41 GMT 40.595352 -119.731750 45,000 34 427 0
2018-12-13 19:46:35 GMT 40.584869 -119.741150 45,000 34 427 64
2018-12-13 19:46:28 GMT 40.574371 -119.750603 45,000 34 427 -64
2018-12-13 19:46:23 GMT 40.549942 -119.772522 45,000 34 427 0
2018-12-13 19:46:14 GMT 40.549942 -119.772522 45,000 34 427 0
2018-12-13 19:46:11 GMT 40.546829 -119.775330 45,000 34 427 0
2018-12-13 19:46:07 GMT 40.539505 -119.781921 45,000 34 427 0
2018-12-13 19:46:01 GMT 40.531357 -119.789185 45,000 34 427 0
2018-12-13 19:45:51 GMT 40.512405 -119.806213 45,000 34 427 0
2018-12-13 19:45:41 GMT 40.495926 -119.820984 45,000 34 427 0
2018-12-13 19:45:33 GMT 40.484619 -119.831123 45,000 34 427 0
2018-12-13 19:45:29 GMT 40.478851 -119.836304 45,000 34 427 0
2018-12-13 19:45:26 GMT 40.471344 -119.843018 45,000 34 426 -64
2018-12-13 19:45:20 GMT 40.457108 -119.855721 45,000 34 426 64
2018-12-13 19:45:14 GMT 40.452942 -119.859436 45,000 34 426 0
2018-12-13 19:45:07 GMT 40.441727 -119.869507 45,000 34 426 0
2018-12-13 19:45:03 GMT 40.434998 -119.875488 45,000 34 426 0
2018-12-13 19:44:57 GMT 40.424103 -119.885193 45,000 34 426 0
2018-12-13 19:44:49 GMT 40.411926 -119.896057 45,000 34 425 0
2018-12-13 19:44:45 GMT 40.404736 -119.902534 45,000 34 425 0
2018-12-13 19:44:41 GMT 40.398148 -119.908386 45,000 34 424 0
2018-12-13 19:44:38 GMT 40.394897 -119.911255 45,000 34 424 0
2018-12-13 19:44:35 GMT 40.388443 -119.917053 45,000 34 424 0
2018-12-13 19:44:27 GMT 40.377502 -119.926819 45,000 34 424 0
2018-12-13 19:44:23 GMT 40.368988 -119.934387 45,000 34 424 -64
2018-12-13 19:44:15 GMT 40.358459 -119.943787 45,000 34 423 0
2018-12-13 19:44:12 GMT 40.351063 -119.950356 45,000 34 423 0
2018-12-13 19:44:05 GMT 40.340401 -119.959839 45,000 34 423 0
2018-12-13 19:44:02 GMT 40.335049 -119.964584 45,000 34 423 0
2018-12-13 19:43:53 GMT 40.321777 -119.976387 45,000 34 423 0
2018-12-13 19:43:50 GMT 40.317032 -119.980652 45,000 34 423 0
2018-12-13 19:43:42 GMT 40.304764 -119.991516 45,000 34 423 0
2018-12-13 19:43:39 GMT 40.299271 -119.996460 45,000 34 423 0
2018-12-13 19:43:31 GMT 40.287704 -120.006721 45,000 34 422 0
2018-12-13 19:43:28 GMT 40.280685 -120.012939 45,000 34 422 -64
2018-12-13 19:43:23 GMT 40.274048 -120.018860 45,000 34 422 -64
2018-12-13 19:43:20 GMT 40.269241 -120.023132 45,000 34 422 -64
2018-12-13 19:43:16 GMT 40.261726 -120.029816 45,000 34 422 0
2018-12-13 19:43:13 GMT 40.255909 -120.034996 45,000 34 422 64
2018-12-13 19:43:09 GMT 40.249237 -120.040955 45,000 34 422 0
2018-12-13 19:43:05 GMT 40.244316 -120.045296 45,000 34 422 64
2018-12-13 19:43:00 GMT 40.237289 -120.051575 45,000 34 422 0
2018-12-13 19:42:57 GMT 40.230835 -120.057251 45,000 34 421 0
2018-12-13 19:42:54 GMT 40.225555 -120.061905 45,000 34 421 0
2018-12-13 19:42:51 GMT 40.222202 -120.064896 45,000 34 421 0
2018-12-13 19:42:47 GMT 40.214218 -120.072021 45,000 34 421 0
2018-12-13 19:42:41 GMT 40.204422 -120.080627 45,000 34 421 0
2018-12-13 19:42:36 GMT 40.197281 -120.086975 45,000 34 421 64
2018-12-13 19:42:30 GMT 40.186615 -120.096436 45,000 34 421 0
2018-12-13 19:42:25 GMT 40.178879 -120.103271 45,000 34 421 0
2018-12-13 19:42:18 GMT 40.169319 -120.111778 45,000 34 421 0
2018-12-13 19:42:14 GMT 40.161026 -120.119080 45,000 34 421 0
2018-12-13 19:42:08 GMT 40.152603 -120.126526 45,000 34 421 -64
2018-12-13 19:42:01 GMT 40.140598 -120.137123 45,000 34 421 0
2018-12-13 19:41:57 GMT 40.135529 -120.141602 45,000 34 421 0
2018-12-13 19:41:50 GMT 40.122910 -120.152786 45,000 34 421 0
2018-12-13 19:41:47 GMT 40.117996 -120.157104 45,000 34 421 -64
2018-12-13 19:41:41 GMT 40.108154 -120.165771 45,000 34 421 0
2018-12-13 19:41:35 GMT 40.100739 -120.172363 45,000 34 420 -64
2018-12-13 19:41:30 GMT 40.089798 -120.182007 45,000 34 420 -64
2018-12-13 19:41:24 GMT 40.083023 -120.187988 45,000 34 420 64
2018-12-13 19:41:20 GMT 40.074589 -120.195419 45,000 34 421 0
2018-12-13 19:41:17 GMT 40.068626 -120.200729 45,000 34 421 0
2018-12-13 19:41:14 GMT 40.066269 -120.202759 45,000 34 420 0
2018-12-13 19:41:09 GMT 40.056473 -120.211426 45,000 34 420 0
2018-12-13 19:41:06 GMT 40.052334 -120.215088 45,000 34 420 -64
2018-12-13 19:41:03 GMT 40.049057 -120.217957 45,000 34 420 0
2018-12-13 19:40:53 GMT 40.030457 -120.234375 45,000 34 420 0
2018-12-13 19:40:47 GMT 40.020493 -120.243179 45,000 34 419 0
2018-12-13 19:40:42 GMT 40.012905 -120.249794 45,000 34 419 0
2018-12-13 19:40:36 GMT 40.003593 -120.257973 45,000 34 419 0
2018-12-13 19:40:31 GMT 39.995216 -120.265335 45,000 34 419 0
2018-12-13 19:40:25 GMT 39.985672 -120.273705 45,000 34 419 0
2018-12-13 19:40:22 GMT 39.980804 -120.278015 45,000 34 419 0
2018-12-13 19:40:19 GMT 39.976776 -120.281555 45,000 34 419 0
2018-12-13 19:40:14 GMT 39.968079 -120.289185 45,000 34 419 0
2018-12-13 19:40:09 GMT 39.959244 -120.296936 45,000 34 419 0
2018-12-13 19:40:03 GMT 39.942101 -120.311966 45,000 34 419 0
2018-12-13 19:39:58 GMT 39.942101 -120.311966 45,000 34 419 0
2018-12-13 19:39:50 GMT 39.927429 -120.324890 45,000 34 419 -64
2018-12-13 19:39:47 GMT 39.924362 -120.327576 45,000 34 419 -64
2018-12-13 19:39:39 GMT 39.911423 -120.338928 45,000 34 419 0
2018-12-13 19:39:35 GMT 39.907276 -120.342590 45,000 34 419 0
2018-12-13 19:39:28 GMT 39.893555 -120.354630 45,000 34 419 0
2018-12-13 19:39:25 GMT 39.888885 -120.358688 45,000 33 418 0
2018-12-13 19:39:17 GMT 39.878128 -120.368118 45,000 33 418 0
2018-12-13 19:39:14 GMT 39.871399 -120.374031 45,000 33 418 0
2018-12-13 19:39:07 GMT 39.861465 -120.382751 45,000 33 418 0
2018-12-13 19:39:00 GMT 39.850811 -120.392090 45,000 33 418 0
2018-12-13 19:38:55 GMT 39.843521 -120.398453 45,000 33 418 0
2018-12-13 19:38:50 GMT 39.835403 -120.405518 45,000 33 418 0
2018-12-13 19:38:45 GMT 39.826927 -120.412903 45,000 33 417 64
2018-12-13 19:38:40 GMT 39.816967 -120.421631 45,000 34 417 0
2018-12-13 19:38:33 GMT 39.807632 -120.429802 45,000 33 417 0
2018-12-13 19:38:30 GMT 39.801361 -120.435234 45,000 33 417 -64
2018-12-13 19:38:23 GMT 39.791039 -120.444275 45,000 33 417 64
2018-12-13 19:38:17 GMT 39.780472 -120.453491 45,000 33 417 0
2018-12-13 19:38:11 GMT 39.772568 -120.460373 45,000 33 417 0
2018-12-13 19:38:08 GMT 39.766273 -120.465881 45,000 33 417 0
2018-12-13 19:38:05 GMT 39.757736 -120.473389 45,000 34 416 0
2018-12-13 19:38:02 GMT 39.748535 -120.481384 45,000 34 416 0
2018-12-13 19:37:57 GMT 39.744461 -120.484909 45,000 33 415 0
2018-12-13 19:37:54 GMT 39.736496 -120.491898 45,000 33 415 0
2018-12-13 19:37:50 GMT 39.736496 -120.491898 45,000 33 415 -64
2018-12-13 19:37:45 GMT 39.728989 -120.498405 45,000 33 415 0
2018-12-13 19:37:41 GMT 39.723404 -120.503304 45,000 33 415 0
2018-12-13 19:37:38 GMT 39.719742 -120.506470 45,000 33 415 64
2018-12-13 19:37:34 GMT 39.712643 -120.512634 45,000 33 414 64
2018-12-13 19:37:30 GMT 39.706833 -120.517754 45,000 33 414 0
2018-12-13 19:37:27 GMT 39.702774 -120.521301 45,000 33 415 0
2018-12-13 19:37:24 GMT 39.695465 -120.527649 45,000 33 414 -64
2018-12-13 19:37:20 GMT 39.689739 -120.532654 45,000 33 414 0
2018-12-13 19:37:17 GMT 39.684402 -120.537277 45,000 33 414 0
2018-12-13 19:37:10 GMT 39.673920 -120.546471 45,000 33 414 0
2018-12-13 19:37:06 GMT 39.667023 -120.552490 45,000 33 414 0
2018-12-13 19:36:59 GMT 39.655792 -120.562233 45,000 33 413 0
2018-12-13 19:36:55 GMT 39.649521 -120.567688 45,000 33 412 0
2018-12-13 19:36:51 GMT 39.638031 -120.577637 45,000 33 412 0
2018-12-13 19:36:48 GMT 39.638031 -120.577637 45,000 33 412 0
2018-12-13 19:36:43 GMT 39.630711 -120.584045 45,000 33 411 0
2018-12-13 19:36:39 GMT 39.623978 -120.589821 45,000 33 410 -64
2018-12-13 19:36:36 GMT 39.621506 -120.592026 45,000 33 409 -64
2018-12-13 19:36:33 GMT 39.614979 -120.597656 45,000 33 407 0
2018-12-13 19:36:28 GMT 39.606689 -120.604858 45,000 33 407 64
2018-12-13 19:36:25 GMT 39.601990 -120.608948 45,000 33 405 0
2018-12-13 19:36:21 GMT 39.597382 -120.612923 45,000 33 405 0
2018-12-13 19:36:16 GMT 39.590305 -120.619080 45,000 33 404 0
2018-12-13 19:36:13 GMT 39.584930 -120.623672 45,000 33 403 -64
2018-12-13 19:36:09 GMT 39.579597 -120.628357 45,000 33 403 0
2018-12-13 19:36:05 GMT 39.572475 -120.634521 45,000 33 401 0
2018-12-13 19:36:02 GMT 39.566208 -120.639915 45,000 33 400 0
2018-12-13 19:35:58 GMT 39.562546 -120.643135 45,000 33 399 -64
2018-12-13 19:35:55 GMT 39.555855 -120.648926 45,000 33 398 -64
2018-12-13 19:35:51 GMT 39.549500 -120.654427 45,000 33 397 0
2018-12-13 19:35:45 GMT 39.540527 -120.662186 45,000 33 396 0
2018-12-13 19:35:41 GMT 39.534897 -120.667084 45,000 33 394 64
2018-12-13 19:35:38 GMT 39.531876 -120.669708 45,000 33 394 0
2018-12-13 19:35:34 GMT 39.524139 -120.676399 45,000 33 392 0
2018-12-13 19:35:28 GMT 39.515396 -120.683922 45,000 33 391 0
2018-12-13 19:35:25 GMT 39.510700 -120.688049 45,000 33 389 0
2018-12-13 19:35:21 GMT 39.503948 -120.693848 45,000 33 389 0
2018-12-13 19:35:16 GMT 39.496994 -120.699860 45,000 33 387 0
2018-12-13 19:35:12 GMT 39.491638 -120.704521 45,000 33 384 0
2018-12-13 19:35:08 GMT 39.484543 -120.710670 45,000 33 384 0
2018-12-13 19:35:02 GMT 39.476120 -120.717896 45,000 33 383 0
2018-12-13 19:34:59 GMT 39.471863 -120.721596 45,000 33 382 0
2018-12-13 19:34:54 GMT 39.464081 -120.728279 45,000 33 381 0
2018-12-13 19:34:50 GMT 39.459412 -120.732346 45,000 33 379 0
2018-12-13 19:34:47 GMT 39.455070 -120.736023 45,000 33 378 0
2018-12-13 19:34:39 GMT 39.442314 -120.747070 45,000 33 376 -64
2018-12-13 19:34:35 GMT 39.438683 -120.750183 45,000 33 374 0
2018-12-13 19:34:30 GMT 39.429466 -120.758057 45,000 33 372 0
2018-12-13 19:34:27 GMT 39.424995 -120.761902 45,000 33 372 64
2018-12-13 19:34:24 GMT 39.422791 -120.763809 45,000 33 371 64
2018-12-13 19:34:17 GMT 39.411667 -120.773361 45,000 33 369 0
2018-12-13 19:34:13 GMT 39.406654 -120.777649 45,000 33 367 0
2018-12-13 19:34:08 GMT 39.398209 -120.784889 45,000 33 366 64
2018-12-13 19:34:05 GMT 39.396103 -120.786674 45,000 33 364 64
2018-12-13 19:34:01 GMT 39.387680 -120.793900 45,000 33 364 64
2018-12-13 19:33:57 GMT 39.382782 -120.798080 45,000 33 362 128
2018-12-13 19:33:54 GMT 39.380772 -120.799805 45,000 33 361 128
2018-12-13 19:33:50 GMT 39.375275 -120.804466 44,975 33 360 320
2018-12-13 19:33:46 GMT 39.368454 -120.810318 44,950 33 359 640
2018-12-13 19:33:39 GMT 39.359962 -120.817566 44,875 33 358 1152
2018-12-13 19:33:36 GMT 39.353352 -120.823242 44,775 33 360 1408
2018-12-13 19:33:33 GMT 39.350979 -120.825256 44,750 33 360 1408
2018-12-13 19:33:26 GMT 39.340969 -120.833801 44,600 33 362 1408
2018-12-13 19:33:22 GMT 39.335384 -120.838562 44,525 33 363 1408
2018-12-13 19:33:15 GMT 39.325745 -120.846741 44,325 33 365 1472
2018-12-13 19:33:11 GMT 39.319881 -120.851746 44,250 33 366 1472
2018-12-13 19:33:05 GMT 39.310410 -120.859703 44,050 33 369 1472
2018-12-13 19:33:00 GMT 39.304138 -120.865013 44,000 33 370 1472
2018-12-13 19:32:54 GMT 39.295303 -120.872375 43,800 33 372 1472
2018-12-13 19:32:49 GMT 39.288319 -120.878174 43,725 32 373 1472
2018-12-13 19:32:45 GMT 39.282688 -120.882874 43,550 32 374 1472
2018-12-13 19:32:42 GMT 39.278687 -120.886208 43,525 32 374 1472
2018-12-13 19:32:38 GMT 39.272305 -120.891479 43,425 32 376 1408
2018-12-13 19:32:33 GMT 39.263855 -120.898453 43,275 32 377 1472
2018-12-13 19:32:29 GMT 39.257919 -120.903381 43,200 32 379 1472
2018-12-13 19:32:23 GMT 39.249451 -120.910339 43,050 32 381 1472
2018-12-13 19:32:20 GMT 39.244560 -120.914429 42,975 32 382 1472
2018-12-13 19:32:16 GMT 39.239254 -120.918884 42,875 33 383 1472
2018-12-13 19:32:10 GMT 39.230453 -120.926270 42,725 33 385 1472
2018-12-13 19:32:07 GMT 39.226227 -120.929855 42,650 34 386 1472
2018-12-13 19:32:04 GMT 39.221786 -120.933739 42,600 34 387 1472
2018-12-13 19:31:59 GMT 39.213043 -120.941589 42,450 35 388 1472
2018-12-13 19:31:56 GMT 39.208763 -120.945496 42,350 36 391 1472
2018-12-13 19:31:53 GMT 39.206432 -120.947693 42,325 37 392 1472
2018-12-13 19:31:49 GMT 39.198334 -120.955627 42,200 37 394 1472
2018-12-13 19:31:46 GMT 39.194752 -120.959229 42,050 37 395 1536
2018-12-13 19:31:43 GMT 39.191303 -120.962708 42,050 37 395 1536
2018-12-13 19:31:38 GMT 39.182831 -120.971176 41,925 37 396 1472
2018-12-13 19:31:34 GMT 39.178207 -120.975777 41,825 37 398 1472
2018-12-13 19:31:31 GMT 39.175243 -120.978760 41,800 37 399 1472
2018-12-13 19:31:27 GMT 39.166992 -120.987000 41,725 37 399 1472
2018-12-13 19:31:22 GMT 39.159790 -120.994263 41,600 37 400 1472
2018-12-13 19:31:16 GMT 39.150742 -121.003242 41,450 37 401 1472
2018-12-13 19:31:11 GMT 39.143169 -121.010864 41,250 37 404 1472
2018-12-13 19:31:07 GMT 39.139355 -121.014648 41,200 37 404 1472
2018-12-13 19:31:03 GMT 39.134079 -121.019958 41,100 37 405 1472
2018-12-13 19:31:00 GMT 39.127155 -121.026855 40,950 37 406 1536
2018-12-13 19:30:57 GMT 39.123291 -121.030701 40,925 37 407 1472
2018-12-13 19:30:54 GMT 39.118263 -121.035706 40,850 37 408 1472
2018-12-13 19:30:50 GMT 39.107651 -121.046326 40,625 37 410 1472
2018-12-13 19:30:46 GMT 39.107651 -121.046326 40,650 37 410 1472
2018-12-13 19:30:43 GMT 39.101646 -121.052307 40,575 37 411 1472
2018-12-13 19:30:39 GMT 39.095921 -121.057983 40,525 37 411 1472
2018-12-13 19:30:35 GMT 39.091324 -121.062592 40,400 37 412 1472
2018-12-13 19:30:32 GMT 39.085144 -121.068741 40,300 37 414 1472
2018-12-13 19:30:28 GMT 39.079422 -121.074471 40,200 37 415 1472
2018-12-13 19:30:25 GMT 39.075111 -121.078796 40,150 37 415 1472
2018-12-13 19:30:21 GMT 39.069012 -121.084839 40,050 37 416 1472
2018-12-13 19:30:17 GMT 39.062531 -121.091309 39,925 37 417 1472
2018-12-13 19:30:13 GMT 39.058594 -121.095245 39,825 37 419 1472
2018-12-13 19:30:09 GMT 39.050491 -121.103310 39,750 37 419 1536
2018-12-13 19:30:06 GMT 39.046715 -121.107056 39,725 37 420 1472
2018-12-13 19:30:02 GMT 39.039871 -121.113876 39,575 37 421 1472
2018-12-13 19:29:57 GMT 39.031631 -121.122070 39,425 37 421 1472
2018-12-13 19:29:51 GMT 39.022293 -121.131371 39,275 37 423 1472
2018-12-13 19:29:47 GMT 39.017807 -121.135849 39,225 37 424 1472
2018-12-13 19:29:44 GMT 39.013103 -121.140564 39,175 37 424 1472
2018-12-13 19:29:41 GMT 39.008308 -121.145386 39,075 37 425 1472
2018-12-13 19:29:34 GMT 38.996017 -121.157593 38,900 37 426 1472
2018-12-13 19:29:31 GMT 38.991440 -121.162186 38,725 37 427 1472
2018-12-13 19:29:28 GMT 38.986725 -121.166840 38,725 37 427 1472
2018-12-13 19:29:23 GMT 38.979492 -121.174072 38,625 37 428 1472
2018-12-13 19:29:19 GMT 38.974323 -121.179199 38,525 37 429 1472
2018-12-13 19:29:16 GMT 38.968506 -121.184937 38,450 37 429 1472
2018-12-13 19:29:12 GMT 38.962872 -121.190613 38,125 37 430 1472
2018-12-13 19:29:09 GMT 38.958172 -121.195251 38,275 37 431 1472
2018-12-13 19:29:04 GMT 38.948860 -121.204529 38,150 37 431 1472
2018-12-13 19:29:01 GMT 38.944160 -121.209229 38,050 37 432 1472
2018-12-13 19:28:58 GMT 38.940903 -121.212456 38,000 37 432 1472
2018-12-13 19:28:51 GMT 38.928799 -121.224487 37,850 37 433 1536
2018-12-13 19:28:48 GMT 38.923908 -121.229309 37,750 37 434 1472
2018-12-13 19:28:40 GMT 38.912315 -121.240845 37,575 37 435 1472
2018-12-13 19:28:37 GMT 38.907303 -121.245834 37,475 37 435 1472
2018-12-13 19:28:29 GMT 38.895557 -121.257446 37,275 37 436 1536
2018-12-13 19:28:26 GMT 38.890625 -121.262329 37,250 37 436 1472
2018-12-13 19:28:18 GMT 38.876705 -121.276123 37,025 37 438 1472
2018-12-13 19:28:15 GMT 38.871864 -121.280884 36,950 37 439 1472
2018-12-13 19:28:08 GMT 38.861111 -121.291565 36,800 37 439 1472
2018-12-13 19:28:05 GMT 38.856968 -121.295654 36,700 37 439 1536
2018-12-13 19:27:59 GMT 38.846817 -121.305725 36,450 37 439 1536
2018-12-13 19:27:56 GMT 38.842628 -121.309875 36,450 37 439 1536
2018-12-13 19:27:53 GMT 38.838299 -121.314148 36,425 37 441 1472
2018-12-13 19:27:48 GMT 38.825542 -121.326721 36,225 37 441 1472
2018-12-13 19:27:42 GMT 38.820465 -121.331757 36,150 37 441 1472
2018-12-13 19:27:36 GMT 38.808414 -121.343628 35,975 37 441 1472
2018-12-13 19:27:33 GMT 38.803570 -121.348389 35,575 37 442 1472
2018-12-13 19:27:27 GMT 38.789886 -121.361908 35,725 37 442 1536
2018-12-13 19:27:24 GMT 38.784576 -121.367165 35,650 37 442 1536
2018-12-13 19:27:20 GMT 38.784576 -121.367165 35,600 37 442 1472
2018-12-13 19:27:15 GMT 38.776058 -121.375549 35,425 37 442 1472
2018-12-13 19:27:12 GMT 38.771072 -121.380478 35,425 37 442 1536
2018-12-13 19:27:08 GMT 38.764748 -121.386719 35,350 37 442 1472
2018-12-13 19:27:05 GMT 38.758163 -121.393196 35,200 37 442 1472
2018-12-13 19:27:01 GMT 38.753082 -121.398209 35,150 37 442 1472
2018-12-13 19:26:57 GMT 38.746628 -121.404594 35,025 37 442 1536
2018-12-13 19:26:52 GMT 38.737885 -121.413193 34,875 37 442 1472
2018-12-13 19:26:48 GMT 38.731323 -121.419678 34,700 37 442 1472
2018-12-13 19:26:42 GMT 38.720428 -121.430359 34,575 37 442 1472
2018-12-13 19:26:35 GMT 38.711678 -121.438965 34,575 37 442 1472
2018-12-13 19:26:31 GMT 38.700829 -121.449707 34,325 37 442 1472
2018-12-13 19:26:24 GMT 38.693893 -121.456543 34,025 37 441 1472
2018-12-13 19:26:20 GMT 38.685059 -121.465202 34,050 37 442 1536
2018-12-13 19:26:17 GMT 38.680023 -121.470161 34,000 37 441 1472
2018-12-13 19:26:14 GMT 38.676903 -121.473267 33,950 37 441 1472
2018-12-13 19:26:09 GMT 38.667686 -121.482300 33,825 37 440 1536
2018-12-13 19:26:06 GMT 38.662766 -121.487175 33,725 37 440 1536
2018-12-13 19:26:02 GMT 38.657776 -121.492073 33,650 37 440 1536
2018-12-13 19:25:58 GMT 38.650276 -121.499451 33,550 37 439 1536
2018-12-13 19:25:53 GMT 38.643265 -121.506340 33,350 37 439 1536
2018-12-13 19:25:50 GMT 38.636810 -121.512672 33,325 37 439 1536
2018-12-13 19:25:47 GMT 38.632462 -121.516968 33,225 37 439 1536
2018-12-13 19:25:44 GMT 38.627419 -121.521912 33,175 37 437 1536
2018-12-13 19:25:40 GMT 38.622665 -121.526581 33,100 37 437 1536
2018-12-13 19:25:36 GMT 38.608936 -121.540039 32,925 37 436 1536
2018-12-13 19:25:32 GMT 38.608936 -121.540039 32,900 37 436 1536
2018-12-13 19:25:29 GMT 38.605118 -121.543762 32,825 37 436 1536
2018-12-13 19:25:25 GMT 38.596973 -121.551758 32,425 37 435 1472
2018-12-13 19:25:21 GMT 38.591526 -121.557068 32,625 37 435 1472
2018-12-13 19:25:17 GMT 38.584358 -121.564087 32,500 37 434 1536
2018-12-13 19:25:14 GMT 38.579609 -121.568787 32,425 37 432 1536
2018-12-13 19:25:10 GMT 38.573231 -121.575012 32,325 37 432 1536
2018-12-13 19:25:05 GMT 38.566574 -121.581543 32,250 37 431 1536
2018-12-13 19:25:02 GMT 38.561546 -121.586487 32,175 37 431 1536
2018-12-13 19:24:59 GMT 38.555542 -121.592346 32,050 37 430 1536
2018-12-13 19:24:56 GMT 38.550793 -121.596985 31,975 37 430 1536
2018-12-13 19:24:53 GMT 38.546089 -121.601624 31,875 37 427 1536
2018-12-13 19:24:50 GMT 38.542053 -121.605576 31,875 37 427 1536
2018-12-13 19:24:47 GMT 38.536827 -121.610718 31,750 37 427 1536
2018-12-13 19:24:44 GMT 38.532028 -121.615372 31,675 37 426 1536
2018-12-13 19:24:41 GMT 38.527283 -121.620056 31,600 37 425 1536
2018-12-13 19:24:35 GMT 38.518673 -121.628418 31,450 37 423 1536
2018-12-13 19:24:31 GMT 38.512154 -121.634827 31,300 37 422 1536
2018-12-13 19:24:28 GMT 38.508430 -121.638428 31,300 37 422 1536
2018-12-13 19:24:23 GMT 38.501633 -121.645142 31,175 37 420 1536
2018-12-13 19:24:20 GMT 38.495117 -121.651428 31,025 37 419 1536
2018-12-13 19:24:17 GMT 38.492043 -121.654419 31,025 37 419 1536
2018-12-13 19:24:12 GMT 38.482452 -121.663795 30,875 37 416 1536
2018-12-13 19:24:08 GMT 38.476181 -121.669884 30,800 37 416 1536
2018-12-13 19:24:01 GMT 38.466625 -121.679138 30,600 37 413 1472
2018-12-13 19:23:57 GMT 38.459690 -121.685974 30,500 37 411 1536
2018-12-13 19:23:50 GMT 38.450474 -121.694885 30,325 37 409 1536
2018-12-13 19:23:45 GMT 38.442371 -121.702759 30,200 37 406 1536
2018-12-13 19:23:40 GMT 38.433929 -121.710960 30,050 37 404 1536
2018-12-13 19:23:35 GMT 38.426872 -121.717834 29,925 37 403 1536
2018-12-13 19:23:28 GMT 38.417496 -121.726959 29,775 37 400 1536
2018-12-13 19:23:25 GMT 38.411556 -121.732758 29,650 37 398 1536
2018-12-13 19:23:17 GMT 38.402058 -121.741951 29,500 37 395 1472
2018-12-13 19:23:14 GMT 38.395542 -121.748337 29,400 37 389 1984
2018-12-13 19:23:11 GMT 38.393280 -121.750488 29,350 37 393 1536
2018-12-13 19:23:07 GMT 38.386963 -121.756622 29,225 37 390 1920
2018-12-13 19:23:04 GMT 38.381378 -121.762062 29,075 37 389 1984
2018-12-13 19:23:01 GMT 38.378357 -121.764984 29,050 37 388 1984
2018-12-13 19:22:58 GMT 38.374649 -121.768600 28,950 37 388 1984
2018-12-13 19:22:55 GMT 38.369751 -121.773415 28,625 37 385 1984
2018-12-13 19:22:51 GMT 38.363297 -121.779709 28,725 37 385 2048
2018-12-13 19:22:48 GMT 38.358952 -121.783867 28,525 37 385 2048
2018-12-13 19:22:44 GMT 38.355412 -121.787331 28,525 37 385 2048
2018-12-13 19:22:39 GMT 38.346863 -121.795601 28,300 37 383 1984
2018-12-13 19:22:36 GMT 38.342144 -121.800224 28,200 37 382 1984
2018-12-13 19:22:32 GMT 38.336281 -121.805901 28,050 37 381 2048
2018-12-13 19:22:29 GMT 38.332043 -121.810020 27,950 37 381 2048
2018-12-13 19:22:26 GMT 38.327713 -121.814194 27,850 37 379 2048
2018-12-13 19:22:22 GMT 38.324112 -121.817696 27,600 37 378 2048
2018-12-13 19:22:18 GMT 38.316605 -121.824997 27,575 37 378 2048
2018-12-13 19:22:14 GMT 38.311066 -121.830315 27,450 37 377 1984
2018-12-13 19:22:11 GMT 38.308823 -121.832474 27,275 37 376 1984
2018-12-13 19:22:07 GMT 38.301552 -121.839577 27,225 37 375 2048
2018-12-13 19:22:03 GMT 38.295959 -121.844978 27,075 37 373 1984
2018-12-13 19:21:59 GMT 38.291077 -121.849724 26,425 37 368 2048
2018-12-13 19:21:56 GMT 38.286423 -121.854202 26,850 37 371 2048
2018-12-13 19:21:53 GMT 38.282547 -121.857956 26,725 37 371 2048
2018-12-13 19:21:49 GMT 38.278370 -121.862022 26,425 37 368 2048
2018-12-13 19:21:46 GMT 38.272888 -121.867310 26,450 37 368 2048
2018-12-13 19:21:42 GMT 38.262863 -121.877007 26,350 37 366 1984
2018-12-13 19:21:38 GMT 38.262863 -121.877007 26,275 37 362 1984
2018-12-13 19:21:34 GMT 38.256767 -121.882919 26,125 37 364 2048
2018-12-13 19:21:31 GMT 38.254532 -121.885010 26,050 37 363 1984
2018-12-13 19:21:28 GMT 38.248260 -121.891090 25,625 37 362 1984
2018-12-13 19:21:22 GMT 38.242264 -121.896873 25,775 37 359 1984
2018-12-13 19:21:19 GMT 38.237640 -121.901375 25,625 37 359 2048
2018-12-13 19:21:16 GMT 38.233772 -121.905136 25,550 37 357 2368
2018-12-13 19:21:13 GMT 38.229164 -121.909554 25,400 37 356 2496
2018-12-13 19:21:09 GMT 38.223160 -121.915405 25,200 37 356 2432
2018-12-13 19:21:04 GMT 38.217316 -121.921013 25,100 37 355 2496
2018-12-13 19:21:01 GMT 38.213516 -121.924690 24,900 37 354 2624
2018-12-13 19:20:58 GMT 38.209053 -121.929016 24,750 37 354 2944
2018-12-13 19:20:54 GMT 38.198345 -121.939407 24,500 37 354 2944
2018-12-13 19:20:50 GMT 38.198345 -121.939407 24,400 37 354 2944
2018-12-13 19:20:47 GMT 38.194611 -121.942986 24,200 37 356 3008
2018-12-13 19:20:42 GMT 38.189896 -121.947540 24,050 37 356 2944
2018-12-13 19:20:39 GMT 38.185181 -121.952103 23,800 37 357 2944
2018-12-13 19:20:36 GMT 38.175861 -121.961082 23,600 37 358 3008
2018-12-13 19:20:33 GMT 38.175861 -121.961082 23,500 37 358 3008
2018-12-13 19:20:30 GMT 38.172184 -121.964661 23,325 37 358 3008
2018-12-13 19:20:27 GMT 38.169479 -121.967293 23,075 37 361 3008
2018-12-13 19:20:22 GMT 38.162064 -121.974419 22,900 37 361 3008
2018-12-13 19:20:19 GMT 38.158768 -121.977638 22,750 37 361 2944
2018-12-13 19:20:16 GMT 38.155151 -121.981140 22,725 37 361 2944
2018-12-13 19:20:13 GMT 38.151749 -121.984367 22,600 37 362 2944
2018-12-13 19:20:10 GMT 38.146637 -121.989380 22,400 37 363 3072
2018-12-13 19:20:07 GMT 38.142017 -121.993797 22,250 37 363 3392
2018-12-13 19:20:03 GMT 38.135735 -121.999893 21,975 37 364 3840
2018-12-13 19:19:58 GMT 38.126587 -122.008606 21,550 37 368 2880
2018-12-13 19:19:55 GMT 38.126587 -122.008606 21,550 36 369 2496
2018-12-13 19:19:52 GMT 38.122139 -122.012848 21,425 36 370 1984
2018-12-13 19:19:48 GMT 38.116150 -122.018539 21,275 36 368 1920
2018-12-13 19:19:45 GMT 38.111713 -122.022697 21,200 36 368 1920
2018-12-13 19:19:42 GMT 38.107544 -122.026604 21,075 36 365 1920
2018-12-13 19:19:37 GMT 38.101982 -122.031715 20,925 36 362 2176
2018-12-13 19:19:34 GMT 38.097095 -122.036194 20,825 35 363 2112
2018-12-13 19:19:31 GMT 38.093353 -122.039642 20,725 36 361 2304
2018-12-13 19:19:26 GMT 38.086441 -122.046356 20,400 38 362 2432
2018-12-13 19:19:22 GMT 38.081909 -122.051331 20,225 42 362 2432
2018-12-13 19:19:19 GMT 38.079117 -122.054718 20,200 46 362 2368
2018-12-13 19:19:15 GMT 38.072933 -122.063004 20,000 47 360 2048
2018-12-13 19:19:12 GMT 38.067116 -122.070946 19,900 47 359 2048
2018-12-13 19:19:05 GMT 38.061676 -122.078384 19,725 47 358 2304
2018-12-13 19:19:01 GMT 38.057106 -122.084618 19,625 47 355 2816
2018-12-13 19:18:58 GMT 38.054810 -122.087730 17,575 47 355 2944
2018-12-13 19:18:54 GMT 38.049332 -122.095306 19,225 47 355 2944
2018-12-13 19:18:50 GMT 38.044956 -122.101273 19,025 47 355 2880
2018-12-13 19:18:42 GMT 38.032574 -122.118233 18,525 47 355 3008
2018-12-13 19:18:39 GMT 38.032574 -122.118233 18,375 47 355 2880
2018-12-13 19:18:36 GMT 38.030106 -122.121574 18,375 47 355 2816
2018-12-13 19:18:32 GMT 38.024658 -122.129036 18,125 47 354 2368
2018-12-13 19:18:28 GMT 38.021309 -122.133636 18,025 47 354 2240
2018-12-13 19:18:25 GMT 38.017303 -122.139069 17,875 47 353 2368
2018-12-13 19:18:21 GMT 38.009670 -122.149460 17,625 47 349 2304
2018-12-13 19:18:15 GMT 38.005852 -122.154655 17,475 47 346 2112
2018-12-13 19:18:10 GMT 38.000198 -122.162361 17,375 47 345 2112
2018-12-13 19:18:07 GMT 37.997910 -122.165459 17,225 47 342 2048
2018-12-13 19:18:04 GMT 37.993698 -122.171127 17,075 47 338 2048
2018-12-13 19:18:00 GMT 37.991043 -122.174751 17,000 47 336 2048
2018-12-13 19:17:57 GMT 37.987930 -122.179016 16,900 47 334 2240
2018-12-13 19:17:54 GMT 37.983536 -122.184914 16,850 46 332 2432
2018-12-13 19:17:51 GMT 37.980015 -122.189644 16,600 46 328 3136
2018-12-13 19:17:48 GMT 37.976944 -122.193741 16,500 46 328 3136
2018-12-13 19:17:45 GMT 37.972183 -122.200165 16,200 46 326 3200
2018-12-13 19:17:39 GMT 37.969162 -122.204201 15,600 46 325 3392
2018-12-13 19:17:35 GMT 37.963669 -122.211502 15,750 46 325 3776
2018-12-13 19:17:31 GMT 37.959503 -122.216995 15,500 45 325 3840
2018-12-13 19:17:25 GMT 37.949982 -122.229271 15,075 45 326 3264
2018-12-13 19:17:22 GMT 37.949982 -122.229271 14,950 45 326 3200
2018-12-13 19:17:19 GMT 37.947739 -122.232079 14,200 45 325 3136
2018-12-13 19:17:15 GMT 37.942841 -122.238274 14,575 44 323 3136
2018-12-13 19:17:12 GMT 37.939281 -122.242722 14,425 44 323 3136
2018-12-13 19:17:09 GMT 37.935650 -122.247200 14,250 44 321 3136
2018-12-13 19:17:05 GMT 37.932037 -122.251595 14,000 43 320 3200
2018-12-13 19:17:02 GMT 37.928101 -122.256386 13,875 43 319 3328
2018-12-13 19:16:58 GMT 37.924011 -122.261353 13,675 44 317 3584
2018-12-13 19:16:53 GMT 37.919220 -122.267258 13,200 48 317 3264
2018-12-13 19:16:50 GMT 37.916054 -122.271263 13,325 44 317 3584
2018-12-13 19:16:47 GMT 37.913544 -122.274498 13,075 47 316 3456
2018-12-13 19:16:43 GMT 37.909630 -122.279922 12,775 52 317 2880
2018-12-13 19:16:40 GMT 37.906837 -122.284218 12,775 52 317 2880
2018-12-13 19:16:36 GMT 37.903393 -122.290192 12,175 56 314 2752
2018-12-13 19:16:33 GMT 37.900551 -122.295746 12,350 56 312 2752
2018-12-13 19:16:30 GMT 37.898254 -122.300041 12,225 53 310 2880
2018-12-13 19:16:27 GMT 37.896286 -122.303139 12,125 49 307 3136
2018-12-13 19:16:24 GMT 37.892990 -122.307808 11,925 46 304 4160
2018-12-13 19:16:21 GMT 37.890472 -122.311203 11,575 46 303 4928
2018-12-13 19:16:18 GMT 37.886536 -122.316521 11,425 46 304 4736
2018-12-13 19:16:15 GMT 37.883835 -122.320145 11,200 46 307 4416
2018-12-13 19:16:11 GMT 37.875870 -122.330833 10,725 48 304 2816
2018-12-13 19:16:07 GMT 37.875870 -122.330833 10,550 46 310 3392
2018-12-13 19:16:03 GMT 37.872070 -122.335976 10,375 47 307 3136
2018-12-13 19:16:00 GMT 37.869919 -122.338898 10,250 47 305 2944
2018-12-13 19:15:57 GMT 37.866028 -122.344337 10,075 48 305 2816
2018-12-13 19:15:54 GMT 37.863819 -122.347450 9,975 49 300 2816
2018-12-13 19:15:50 GMT 37.859726 -122.353424 9,675 47 296 3200
2018-12-13 19:15:45 GMT 37.856327 -122.358200 9,625 46 294 3456
2018-12-13 19:15:42 GMT 37.851765 -122.363869 9,350 41 291 4160
2018-12-13 19:15:39 GMT 37.849716 -122.366020 9,200 37 290 4480
2018-12-13 19:15:35 GMT 37.845665 -122.369720 8,925 30 290 4416
2018-12-13 19:15:31 GMT 37.840530 -122.373199 8,600 23 290 4160
2018-12-13 19:15:28 GMT 37.836449 -122.375214 8,425 19 290 4096
2018-12-13 19:15:25 GMT 37.831795 -122.376770 8,000 8 287 4032
2018-12-13 19:15:19 GMT 37.826431 -122.377701 7,875 2 287 4032
2018-12-13 19:15:16 GMT 37.816711 -122.377129 7,450 348 283 4032
2018-12-13 19:15:13 GMT 37.816711 -122.377129 7,375 350 284 4032
2018-12-13 19:15:10 GMT 37.812698 -122.376007 7,200 309 276 4032
2018-12-13 19:15:06 GMT 37.807617 -122.373787 6,475 335 281 4032
2018-12-13 19:15:01 GMT 37.802696 -122.370621 6,675 331 280 4032
2018-12-13 19:14:58 GMT 37.799534 -122.367813 6,400 320 279 3904
2018-12-13 19:14:54 GMT 37.795296 -122.362976 6,225 315 278 3968
2018-12-13 19:14:50 GMT 37.787888 -122.351753 5,650 309 275 4032
2018-12-13 19:14:45 GMT 37.784683 -122.346619 5,375 308 275 4096
2018-12-13 19:14:41 GMT 37.784683 -122.346619 5,225 308 274 4032
2018-12-13 19:14:37 GMT 37.782028 -122.342232 5,075 308 273 4032
2018-12-13 19:14:33 GMT 37.779373 -122.337967 4,575 308 270 4032
2018-12-13 19:14:30 GMT 37.775986 -122.332527 4,475 309 267 4032
2018-12-13 19:14:27 GMT 37.773602 -122.328583 4,275 309 267 4032
2018-12-13 19:14:21 GMT 37.769165 -122.321487 3,875 309 262 4096
2018-12-13 19:14:18 GMT 37.767551 -122.318909 3,550 309 259 4096
2018-12-13 19:14:15 GMT 37.764862 -122.314590 3,550 309 259 4032
2018-12-13 19:14:12 GMT 37.763306 -122.312080 3,025 309 256 4032
2018-12-13 19:14:08 GMT 37.757675 -122.302963 2,975 308 251 4032
2018-12-13 19:14:05 GMT 37.757675 -122.302963 2,825 308 249 4096
2018-12-13 19:14:02 GMT 37.755543 -122.299446 2,600 308 247 4032
2018-12-13 19:13:58 GMT 37.752747 -122.294907 2,350 307 243 3264
2018-12-13 19:13:54 GMT 37.750374 -122.290909 2,125 307 242 3072
2018-12-13 19:13:51 GMT 37.747860 -122.286606 1,950 307 239 2176
2018-12-13 19:13:46 GMT 37.745625 -122.282791 1,825 307 237 896
2018-12-13 19:13:42 GMT 37.741058 -122.275085 1,675 307 237 896
2018-12-13 19:13:36 GMT 37.738358 -122.270584 1,625 308 235 576
2018-12-13 19:13:33 GMT 37.736801 -122.267960 1,600 308 231 640
2018-12-13 19:13:29 GMT 37.733917 -122.263222 1,550 308 231 640
2018-12-13 19:13:23 GMT 37.729980 -122.256912 1,500 309 225 704
2018-12-13 19:13:18 GMT 37.727005 -122.252274 1,375 310 207 2432
2018-12-13 19:13:14 GMT 37.724304 -122.248032 1,225 310 197 2432
2018-12-13 19:13:10 GMT 37.721558 -122.243858 1,025 311 184 2368
2018-12-13 19:13:07 GMT 37.718079 -122.238617 875 311 166 2816
2018-12-13 19:13:03 GMT 37.718079 -122.238617 775 311 172 2944
2018-12-13 19:12:59 GMT 37.716248 -122.235992 575 312 159 3008
2018-12-13 19:12:56 GMT 37.714855 -122.234009 500 312 163 2880
2018-12-13 19:12:50 GMT 37.711487 -122.229156 125 312 150 3328
2018-12-13 19:12:46 GMT 37.709702 -122.226463 -100 311 148 2240
2018-12-13 19:12:40 GMT 37.707500 -122.223259 -250 311 141 1024
2018-12-13 19:12:35 GMT 37.705124 -122.219688 -325 310 101 -64
2018-12-13 19:12:30 GMT 37.703625 -122.217499 0 295 80
2018-12-13 19:12:23 GMT 37.702473 -122.215752 0 298 35
2018-12-13 19:12:19 GMT 37.702068 -122.215126 0 295 19
2018-12-13 19:12:12 GMT 37.701794 -122.214737 0 295 12
2018-12-13 19:12:08 GMT 37.701702 -122.214439 0 255 11
2018-12-13 19:12:01 GMT 37.701862 -122.214035 0 208 13
2018-12-13 19:11:57 GMT 37.702042 -122.213867 0 205 10
2018-12-13 19:11:52 GMT 37.702160 -122.213722 0 202 6
2018-12-13 19:11:43 GMT 37.702263 -122.213661 0 191 0
2018-12-13 19:11:24 GMT 37.702263 -122.213654 0 191 0
2018-12-13 19:10:48 GMT 37.702263 -122.213661 0 191 0
2018-12-13 19:09:54 GMT 37.702263 -122.213654 0 191 0
2018-12-13 19:09:32 GMT 37.702263 -122.213661 0 191 0
2018-12-13 19:09:09 GMT 37.702263 -122.213654 0 191 0
2018-12-13 19:09:03 GMT 37.702274 -122.213661 0 191 3
2018-12-13 19:09:00 GMT 37.702297 -122.213646 0 188 6
2018-12-13 19:08:51 GMT 37.702610 -122.213570 0 154 8
2018-12-13 19:08:48 GMT 37.702763 -122.213615 0 149 9
2018-12-13 19:08:39 GMT 37.703121 -122.213783 0 146 8
2018-12-13 19:08:28 GMT 37.703316 -122.213860 0 146 0
2018-12-13 19:08:23 GMT 37.703327 -122.213875 0 146 0
2018-12-13 19:08:14 GMT 37.703320 -122.213867 0 146 0
2018-12-13 19:08:09 GMT 37.703331 -122.213867 0 146 0
2018-12-13 19:08:00 GMT 37.703320 -122.213867 0 146 0
2018-12-13 19:07:56 GMT 37.703327 -122.213875 0 146 0
2018-12-13 19:07:47 GMT 37.703320 -122.213867 0 146 0
2018-12-13 19:07:37 GMT 37.703320 -122.213867 0 146 0
2018-12-13 19:07:23 GMT 37.703648 -122.214005 0 146 16
2018-12-13 19:07:13 GMT 37.704262 -122.214661 0 115 17
2018-12-13 19:07:07 GMT 37.704540 -122.215073 0 115 21
2018-12-13 19:07:02 GMT 37.704845 -122.215538 0 118 21
2018-12-13 19:06:50 GMT 37.705536 -122.216576 0 115 22
2018-12-13 19:06:45 GMT 37.705948 -122.217186 0 115 21
2018-12-13 19:06:40 GMT 37.706200 -122.217567 0 118 21
2018-12-13 19:06:30 GMT 37.706905 -122.218628 0 118 24
2018-12-13 19:06:19 GMT 37.707699 -122.219818 0 115 27
2018-12-13 19:06:08 GMT 37.708546 -122.221092 0 115 25
2018-12-13 19:05:57 GMT 37.709312 -122.222244 0 115 23
2018-12-13 19:05:48 GMT 37.709896 -122.223122 0 115 21
2018-12-13 19:05:45 GMT 37.709988 -122.223259 0 115 20
2018-12-13 19:05:38 GMT 37.710434 -122.223923 0 115 17
2018-12-13 19:05:35 GMT 37.710560 -122.224121 0 118 16
2018-12-13 19:05:25 GMT 37.711166 -122.224213 0 196 15
2018-12-13 19:05:17 GMT 37.711704 -122.223679 0 205 20
2018-12-13 19:05:13 GMT 37.711945 -122.223419 0 208 21
2018-12-13 19:05:03 GMT 37.712654 -122.222679 0 208 19
2018-12-13 19:04:56 GMT 37.713032 -122.222260 0 208 19
2018-12-13 19:04:51 GMT 37.713329 -122.221878 0 216 20
2018-12-13 19:04:45 GMT 37.713730 -122.221321 0 213 21
2018-12-13 19:04:41 GMT 37.714085 -122.220810 0 213 23
2018-12-13 19:04:30 GMT 37.714783 -122.219833 0 213 22
2018-12-13 19:04:18 GMT 37.715542 -122.218750 0 213 22
2018-12-13 19:04:06 GMT 37.716331 -122.217613 0 216 23
2018-12-13 19:03:57 GMT 37.717052 -122.216583 0 213 25
2018-12-13 19:03:48 GMT 37.717770 -122.215584 0 213 25
2018-12-13 19:03:41 GMT 37.718300 -122.214844 0 213 24
2018-12-13 19:03:33 GMT 37.718811 -122.214096 0 213 22
2018-12-13 19:03:24 GMT 37.719379 -122.213303 0 213 20
2018-12-13 19:03:13 GMT 37.719952 -122.212440 0 227 21
2018-12-13 19:03:02 GMT 37.720360 -122.211197 0 236 24
2018-12-13 19:02:59 GMT 37.720474 -122.210793 0 236 24
2018-12-13 19:02:50 GMT 37.720837 -122.209633 0 233 23
2018-12-13 19:02:40 GMT 37.721214 -122.208435 0 236 20
2018-12-13 19:02:31 GMT 37.721500 -122.207497 0 236 18
2018-12-13 19:02:19 GMT 37.721878 -122.206467 0 219 18
2018-12-13 19:02:15 GMT 37.722153 -122.206230 0 191 20
2018-12-13 19:02:11 GMT 37.722599 -122.206009 0 188 21
2018-12-13 19:02:08 GMT 37.722908 -122.205841 0 188 21
2018-12-13 19:02:04 GMT 37.723103 -122.205750 0 188 21
2018-12-13 19:01:57 GMT 37.723812 -122.205368 0 188 20
2018-12-13 19:01:54 GMT 37.724094 -122.205238 0 188 21
2018-12-13 19:01:49 GMT 37.724468 -122.205048 0 188 22
2018-12-13 19:01:42 GMT 37.725132 -122.204704 0 188 16
2018-12-13 19:01:36 GMT 37.725471 -122.204552 0 182 11
2018-12-13 19:01:32 GMT 37.725609 -122.204521 0 165 9
2018-12-13 19:01:28 GMT 37.725780 -122.204597 0 118 12
2018-12-13 19:01:25 GMT 37.725876 -122.204796 0 101 14
2018-12-13 19:01:22 GMT 37.725941 -122.204971 0 98 15
2018-12-13 19:01:16 GMT 37.726086 -122.205406 0 98 17
2018-12-13 19:01:13 GMT 37.726200 -122.205780 0 98 18
2018-12-13 19:01:09 GMT 37.726318 -122.206146 0 98 18
2018-12-13 19:01:03 GMT 37.726517 -122.206764 0 98 19
2018-12-13 19:01:00 GMT 37.726616 -122.207062 0 98 19
2018-12-13 19:00:52 GMT 37.726868 -122.207855 0 98 19
2018-12-13 19:00:45 GMT 37.727085 -122.208527 0 98 17
2018-12-13 19:00:40 GMT 37.727215 -122.208931 0 98 17
2018-12-13 19:00:37 GMT 37.727291 -122.209183 0 98 17
2018-12-13 19:00:30 GMT 37.727505 -122.209824 0 98 17
2018-12-13 19:00:22 GMT 37.727703 -122.210434 0 98 16
2018-12-13 19:00:19 GMT 37.727818 -122.210777 0 98 15
2018-12-13 19:00:11 GMT 37.728012 -122.211372 0 98 14
2018-12-13 19:00:07 GMT 37.728111 -122.211708 0 98 13
2018-12-13 19:00:02 GMT 37.728218 -122.212029 0 98 12
2018-12-13 18:59:56 GMT 37.728321 -122.212349 0 104 11
2018-12-13 18:59:45 GMT 37.728634 -122.212837 0 123 9
2018-12-13 18:59:39 GMT 37.728825 -122.213013 0 135 8
2018-12-13 18:59:34 GMT 37.728970 -122.213104 0 143 7
2018-12-13 18:59:29 GMT 37.729156 -122.213173 0 168 7
2018-12-13 18:59:23 GMT 37.729294 -122.213127 0 194 7
2018-12-13 18:59:18 GMT 37.729408 -122.213036 0 196 7
2018-12-13 18:59:13 GMT 37.729523 -122.212936 0 213 6
2018-12-13 18:59:03 GMT 37.729668 -122.212738 0 230 4
2018-12-13 18:58:59 GMT 37.729683 -122.212662 0 250 4
2018-12-13 18:58:56 GMT 37.729694 -122.212601 0 270 3
2018-12-13 18:58:50 GMT 37.729668 -122.212524 0 286 4
2018-12-13 18:58:30 GMT 37.729637 -122.212471 0 289 0
2018-12-13 18:58:25 GMT 37.729633 -122.212463 0 289 0
2018-12-13 18:58:14 GMT 37.729637 -122.212471 0 289 0
2018-12-13 18:57:50 GMT 37.729633 -122.212463 0 289 0
2018-12-13 18:57:34 GMT 37.729637 -122.212471 0 289 0
2018-12-13 18:57:19 GMT 37.729633 -122.212463 0 289 0
2018-12-13 18:57:05 GMT 37.729633 -122.212463 0 289 0
2018-12-13 18:56:55 GMT 37.729637 -122.212471 0 289 0
2018-12-13 18:56:34 GMT 37.729633 -122.212463 0 289 0
2018-12-13 18:56:25 GMT 37.729637 -122.212471 0 289 0
2018-12-13 18:55:40 GMT 37.729633 -122.212463 0 289 0
2018-12-13 18:55:30 GMT 37.729637 -122.212471 0 289 0
2018-12-13 18:55:15 GMT 37.729633 -122.212463 0 289 0
2018-12-13 18:54:55 GMT 37.729637 -122.212471 0 289 0
2018-12-13 18:54:45 GMT 37.729633 -122.212463 0 289 0
2018-12-13 18:54:35 GMT 37.729637 -122.212471 0 289 0
2018-12-13 18:54:24 GMT 37.729637 -122.212471 0 289 0
2018-12-13 18:53:55 GMT 37.729633 -122.212463 0 289 0
2018-12-13 18:53:44 GMT 37.729637 -122.212471 0 289 0
2018-12-13 18:53:10 GMT 37.729637 -122.212471 0 289 0
2018-12-13 18:53:05 GMT 37.729633 -122.212463 0 289 0
2018-12-13 18:52:55 GMT 37.729637 -122.212471 0 289 0
2018-12-13 18:52:45 GMT 37.729633 -122.212463 0 289 0
2018-12-13 18:52:35 GMT 37.729637 -122.212471 0 289 0
2018-12-13 18:52:21 GMT 37.729633 -122.212463 0 289 0
2018-12-13 18:52:05 GMT 37.729637 -122.212471 0 289 0
2018-12-13 18:51:55 GMT 37.729649 -122.212471 0 289 0
2018-12-13 18:51:46 GMT 37.729645 -122.212463 0 289 0
2018-12-13 18:51:40 GMT 37.729649 -122.212471 0 289 0
2018-12-13 18:51:31 GMT 37.729645 -122.212463 0 289 0
2018-12-13 18:51:10 GMT 37.729649 -122.212471 0 289 0
2018-12-13 18:51:05 GMT 37.729645 -122.212463 0 289 0
2018-12-13 18:51:00 GMT 37.729649 -122.212471 0 289 0
2018-12-13 18:50:50 GMT 37.729645 -122.212463 0 289 0
2018-12-13 18:50:40 GMT 37.729645 -122.212463 0 289 0
2018-12-13 18:50:35 GMT 37.729649 -122.212471 0 289 0
2018-12-13 18:49:56 GMT 37.729637 -122.212471 0 289 0
2018-12-13 18:49:40 GMT 37.729637 -122.212471 0 289 0
2018-12-13 18:49:30 GMT 37.729637 -122.212471 0 289 0
2018-12-13 18:49:16 GMT 37.729645 -122.212463 0 289 0
2018-12-13 18:49:04 GMT 37.729637 -122.212471 0 289 0
2018-12-13 18:48:30 GMT 37.729637 -122.212471 0 289 0
2018-12-13 18:48:19 GMT 37.729637 -122.212471 0 289 0
2018-12-13 18:48:15 GMT 37.729633 -122.212463 0 289 0
2018-12-13 18:48:09 GMT 37.729637 -122.212471 0 289 0
2018-12-13 18:47:54 GMT 37.729633 -122.212463 0 289 0
2018-12-13 18:47:40 GMT 37.729637 -122.212471 0 289 0
2018-12-13 18:47:34 GMT 37.729633 -122.212463 0 289 0
2018-12-13 18:47:19 GMT 37.729637 -122.212471 0 289 0
2018-12-13 18:47:09 GMT 37.729633 -122.212463 0 289 0
2018-12-13 18:47:05 GMT 37.729637 -122.212471 0 289 0
2018-12-13 18:46:10 GMT 37.729633 -122.212463 0 289 0
2018-12-13 18:45:50 GMT 37.729637 -122.212471 0 289 0
2018-12-13 18:45:40 GMT 37.729637 -122.212471 0 289 0
2018-12-13 18:44:20 GMT 37.729633 -122.212463 0 289 0
2018-12-13 18:44:00 GMT 37.729649 -122.212471 0 289 0
2018-12-13 18:43:50 GMT 37.729633 -122.212463 0 289 0
2018-12-13 18:43:05 GMT 37.729637 -122.212471 0 289 0
2018-12-13 18:42:15 GMT 37.729633 -122.212463 0 289 0
2018-12-13 18:41:40 GMT 37.729637 -122.212471 0 289 0
2018-12-13 18:41:30 GMT 37.729633 -122.212463 0 289 0
2018-12-13 18:41:25 GMT 37.729637 -122.212471 0 289 0
2018-12-13 18:41:05 GMT 37.729633 -122.212463 0 289 0
2018-12-13 18:40:14 GMT 37.729637 -122.212471 0 289 0
2018-12-13 18:40:09 GMT 37.729645 -122.212463 0 289 0
2018-12-13 18:39:54 GMT 37.729649 -122.212471 0 289 0
2018-12-13 18:39:34 GMT 37.729633 -122.212463 0 289 0
2018-12-13 18:38:53 GMT 37.729645 -122.212463 0 289 0
2018-12-13 18:38:47 GMT 37.729633 -122.212463 0 289 0
2018-12-13 18:38:37 GMT 37.729637 -122.212486 0 289 0
2018-12-13 18:38:28 GMT 37.729649 -122.212486 0 289 0
2018-12-13 18:37:37 GMT 37.729633 -122.212479 0 289 0
2018-12-13 18:36:34 GMT 37.729633 -122.212479 0 289 0
2018-12-13 18:36:08 GMT 37.729637 -122.212486 0 289 0
2018-12-13 18:35:47 GMT 37.729633 -122.212479 0 289 0
2018-12-13 18:35:38 GMT 37.729649 -122.212486 0 289 0
2018-12-13 18:35:23 GMT 37.729649 -122.212486 0 289 0
2018-12-13 18:35:07 GMT 37.729633 -122.212479 0 289 0
2018-12-13 18:34:52 GMT 37.729637 -122.212486 0 289 0
2018-12-13 18:34:27 GMT 37.729645 -122.212479 0 289 0
2018-12-13 18:34:23 GMT 37.729649 -122.212486 0 289 0
2018-12-13 18:34:03 GMT 37.729645 -122.212479 0 289 0
2018-12-13 18:33:53 GMT 37.729649 -122.212486 0 289 0
2018-12-13 18:33:38 GMT 37.729645 -122.212479 0 289 0
2018-12-13 18:33:27 GMT 37.729649 -122.212486 0 289 0
2018-12-13 18:33:12 GMT 37.729645 -122.212479 0 289 0
2018-12-13 18:33:02 GMT 37.729645 -122.212463 0 289 0
2018-12-13 18:31:44 GMT 37.729637 -122.212471 0 289 0
2018-12-13 18:31:18 GMT 37.729633 -122.212463 0 289 0
2018-12-13 18:30:28 GMT 37.729637 -122.212471 0 289 0
2018-12-13 18:30:13 GMT 37.729633 -122.212463 0 289 0
2018-12-13 18:30:07 GMT 37.729637 -122.212471 0 289 0
2018-12-13 18:30:03 GMT 37.729633 -122.212463 0 289 0
2018-12-13 18:29:57 GMT 37.729645 -122.212479 0 289 0
2018-12-13 18:29:48 GMT 37.729633 -122.212463 0 289 0
2018-12-13 18:29:39 GMT 37.729633 -122.212479 0 289 0
2018-12-13 18:29:34 GMT 37.729649 -122.212486 0 289 0
2018-12-13 18:29:19 GMT 37.729633 -122.212479 0 289 0
2018-12-13 18:29:09 GMT 37.729649 -122.212471 0 289 0
2018-12-13 18:28:48 GMT 37.729633 -122.212479 0 289 0
2018-12-13 18:28:44 GMT 37.729633 -122.212463 0 289 0
2018-12-13 18:28:38 GMT 37.729637 -122.212486 0 289 0
2018-12-13 18:28:29 GMT 37.729649 -122.212471 0 289 0
2018-12-13 18:28:23 GMT 37.729645 -122.212463 0 289 0
2018-12-13 18:28:18 GMT 37.729649 -122.212471 0 289 0
2018-12-13 18:27:43 GMT 37.729645 -122.212463 0 289 0
2018-12-13 18:27:22 GMT 37.729649 -122.212471 0 289 0
2018-12-13 18:26:52 GMT 37.729645 -122.212463 0 289 0
2018-12-13 18:25:43 GMT 37.729645 -122.212463 0 289 0
2018-12-13 18:25:33 GMT 37.729649 -122.212471 0 289 0
2018-12-13 18:24:58 GMT 37.729637 -122.212471 0 289 0
2018-12-13 18:24:48 GMT 37.729649 -122.212471 0 289 0
2018-12-13 18:24:33 GMT 37.729645 -122.212463 0 289 0
2018-12-13 18:24:27 GMT 37.729645 -122.212479 0 289 0
2018-12-13 18:24:23 GMT 37.729637 -122.212471 0 289 0
2018-12-13 18:23:57 GMT 37.729649 -122.212471 0 289 0
2018-12-13 18:23:42 GMT 37.729645 -122.212463 0 289 0
2018-12-13 18:23:18 GMT 37.729649 -122.212471 0 289 0
2018-12-13 18:23:07 GMT 37.729645 -122.212463 0 289 0
2018-12-13 18:22:57 GMT 37.729649 -122.212471 0 289 0
2018-12-13 18:22:27 GMT 37.729645 -122.212463 0 289 0
2018-12-13 18:22:22 GMT 37.729649 -122.212471 0 289 0
2018-12-13 18:22:12 GMT 37.729645 -122.212479 0 289 0
2018-12-13 18:21:38 GMT 37.729645 -122.212463 0 289 0
2018-12-13 18:21:22 GMT 37.729637 -122.212471 0 289 0
2018-12-13 18:21:12 GMT 37.729645 -122.212463 0 289 0
2018-12-13 18:20:38 GMT 37.729637 -122.212471 0 289 0
2018-12-13 18:19:47 GMT 37.729633 -122.212479 0 289 0
2018-12-13 18:19:38 GMT 37.729637 -122.212471 0 289 0
2018-12-13 18:19:22 GMT 37.729645 -122.212479 0 289 0
2018-12-13 18:18:41 GMT 37.729645 -122.212463 0 289 0
2018-12-13 18:17:05 GMT 37.729645 -122.212463 0 289 0
2018-12-13 18:16:16 GMT 37.729637 -122.212471 0 289 0
2018-12-13 18:15:51 GMT 37.729649 -122.212471 0 289 0
2018-12-13 18:15:41 GMT 37.729645 -122.212463 0 289 0

Making use of Plane Finder data

You are free to use the raw flight data, aircraft information and images provided in this report for your own purposes provided the data is correctly attributed to Plane Finder. We ask that you please credit Plane Finder and link to planefinder.net in close proximity to the content.

Optionally one of the following logos (no smaller then 150x24px) can be used and must link to planefinder.net

Embedding the Plane Finder map

You are welcome to embed the Plane Finder playback map on your website to offer visitors a more interactive experience. We suggest using the following HTML code:

<iframe src="//planefinder.net/data/report/OPT374-N374FX-7700-squawk-2018-12-14/map" width="800" height="600" seamless="seamless"></iframe>

Where our data comes from

Plane Finder has a global network of data feeds and antenna radars that receive data broadcast directly from aircraft. The primary technologies used are ADS-B and MLAT. We also show feeds from the FAA and a FLARM glider feed.

Click here to find out more about the Plane Finder network.

How we collect our data